<?xml version="1.0" encoding="UTF-8" standalone="no" ?>
<gpx xmlns="http://www.topografix.com/GPX/1/1" xmlns:xsi="http://www.w3.org/2001/XMLSchema-instance" xsi:schemaLocation="http://www.topografix.com/GPX/1/1 http://www.topografix.com/GPX/1/1/gpx.xsd" version="1.1" creator="VisuGPX - https://www.visugpx.com">
  <metadata>
    <name>Pic de Sarroa, 2755 m et Pic des Tourettes, 2771 m</name>
    <desc><![CDATA[Au départ de la D105, ski de randonnée, en mars/avril, par neige stabilisée.
Parcours, en boucle, ajusté
Lac de Pouey-Laun, Pic Sarroa, Pic des Tourettes, Col d\'Estibère, Col d\'Ausseilla et Cabane de Bouleste, avec retour à la barrière de la route du Lac du Tech]]></desc>
  </metadata>
  <trk>
    <name><![CDATA[Tracé théorique ajusté au tracé du 9-03-2011]]></name>
    <trkseg>
      <trkpt lat="42.93009" lon="-0.24485">
        <ele>1085.9</ele>
        <time>2011-03-09T07:42:15Z</time>
      </trkpt>
      <trkpt lat="42.93009" lon="-0.24486">
        <ele>1085</ele>
        <time>2011-03-09T07:43:09Z</time>
      </trkpt>
      <trkpt lat="42.93001" lon="-0.24496">
        <ele>1085.9</ele>
        <time>2011-03-09T07:43:20Z</time>
      </trkpt>
      <trkpt lat="42.92999" lon="-0.24499">
        <ele>1085.5</ele>
        <time>2011-03-09T07:43:25Z</time>
      </trkpt>
      <trkpt lat="42.9299" lon="-0.24524">
        <ele>1085.9</ele>
        <time>2011-03-09T07:43:41Z</time>
      </trkpt>
      <trkpt lat="42.92981" lon="-0.24547">
        <ele>1086.9</ele>
        <time>2011-03-09T07:43:57Z</time>
      </trkpt>
      <trkpt lat="42.92971" lon="-0.24571">
        <ele>1088.3</ele>
        <time>2011-03-09T07:44:19Z</time>
      </trkpt>
      <trkpt lat="42.92959" lon="-0.24581">
        <ele>1088.8</ele>
        <time>2011-03-09T07:44:45Z</time>
      </trkpt>
      <trkpt lat="42.92939" lon="-0.24594">
        <ele>1090.3</ele>
        <time>2011-03-09T07:45:05Z</time>
      </trkpt>
      <trkpt lat="42.92918" lon="-0.24603">
        <ele>1093.2</ele>
        <time>2011-03-09T07:45:27Z</time>
      </trkpt>
      <trkpt lat="42.92913" lon="-0.24605">
        <ele>1093.6</ele>
        <time>2011-03-09T07:45:33Z</time>
      </trkpt>
      <trkpt lat="42.92885" lon="-0.24618">
        <ele>1096.5</ele>
        <time>2011-03-09T07:46:00Z</time>
      </trkpt>
      <trkpt lat="42.92858" lon="-0.2463">
        <ele>1098.4</ele>
        <time>2011-03-09T07:46:24Z</time>
      </trkpt>
      <trkpt lat="42.92834" lon="-0.2464">
        <ele>1100.8</ele>
        <time>2011-03-09T07:46:43Z</time>
      </trkpt>
      <trkpt lat="42.92809" lon="-0.24646">
        <ele>1102.8</ele>
        <time>2011-03-09T07:47:03Z</time>
      </trkpt>
      <trkpt lat="42.92782" lon="-0.24654">
        <ele>1105.2</ele>
        <time>2011-03-09T07:47:25Z</time>
      </trkpt>
      <trkpt lat="42.92752" lon="-0.24672">
        <ele>1107.1</ele>
        <time>2011-03-09T07:47:50Z</time>
      </trkpt>
      <trkpt lat="42.92724" lon="-0.24688">
        <ele>1109.5</ele>
        <time>2011-03-09T07:48:13Z</time>
      </trkpt>
      <trkpt lat="42.92697" lon="-0.24706">
        <ele>1111.9</ele>
        <time>2011-03-09T07:48:36Z</time>
      </trkpt>
      <trkpt lat="42.92675" lon="-0.24721">
        <ele>1113.3</ele>
        <time>2011-03-09T07:48:56Z</time>
      </trkpt>
      <trkpt lat="42.92656" lon="-0.2474">
        <ele>1114.8</ele>
        <time>2011-03-09T07:49:14Z</time>
      </trkpt>
      <trkpt lat="42.92631" lon="-0.24759">
        <ele>1116.7</ele>
        <time>2011-03-09T07:49:36Z</time>
      </trkpt>
      <trkpt lat="42.92598" lon="-0.24776">
        <ele>1118.6</ele>
        <time>2011-03-09T07:50:03Z</time>
      </trkpt>
      <trkpt lat="42.92575" lon="-0.24789">
        <ele>1120.6</ele>
        <time>2011-03-09T07:50:23Z</time>
      </trkpt>
      <trkpt lat="42.92549" lon="-0.248">
        <ele>1123</ele>
        <time>2011-03-09T07:50:45Z</time>
      </trkpt>
      <trkpt lat="42.92524" lon="-0.24814">
        <ele>1125.4</ele>
        <time>2011-03-09T07:51:07Z</time>
      </trkpt>
      <trkpt lat="42.92496" lon="-0.2483">
        <ele>1126.8</ele>
        <time>2011-03-09T07:51:30Z</time>
      </trkpt>
      <trkpt lat="42.92467" lon="-0.24848">
        <ele>1128.2</ele>
        <time>2011-03-09T07:51:53Z</time>
      </trkpt>
      <trkpt lat="42.92442" lon="-0.24863">
        <ele>1130.2</ele>
        <time>2011-03-09T07:52:14Z</time>
      </trkpt>
      <trkpt lat="42.92422" lon="-0.2488">
        <ele>1132.6</ele>
        <time>2011-03-09T07:52:33Z</time>
      </trkpt>
      <trkpt lat="42.9241" lon="-0.24909">
        <ele>1134.5</ele>
        <time>2011-03-09T07:52:52Z</time>
      </trkpt>
      <trkpt lat="42.92407" lon="-0.24916">
        <ele>1135</ele>
        <time>2011-03-09T07:52:56Z</time>
      </trkpt>
      <trkpt lat="42.92404" lon="-0.24925">
        <ele>1135.5</ele>
        <time>2011-03-09T07:53:02Z</time>
      </trkpt>
      <trkpt lat="42.92403" lon="-0.24931">
        <ele>1136.4</ele>
        <time>2011-03-09T07:53:06Z</time>
      </trkpt>
      <trkpt lat="42.924" lon="-0.24942">
        <ele>1136.9</ele>
        <time>2011-03-09T07:53:12Z</time>
      </trkpt>
      <trkpt lat="42.92396" lon="-0.24949">
        <ele>1137.9</ele>
        <time>2011-03-09T07:53:17Z</time>
      </trkpt>
      <trkpt lat="42.92388" lon="-0.24978">
        <ele>1139.8</ele>
        <time>2011-03-09T07:53:36Z</time>
      </trkpt>
      <trkpt lat="42.92383" lon="-0.25002">
        <ele>1141.7</ele>
        <time>2011-03-09T07:53:50Z</time>
      </trkpt>
      <trkpt lat="42.9238" lon="-0.25009">
        <ele>1142.2</ele>
        <time>2011-03-09T07:53:55Z</time>
      </trkpt>
      <trkpt lat="42.92374" lon="-0.25031">
        <ele>1143.6</ele>
        <time>2011-03-09T07:54:10Z</time>
      </trkpt>
      <trkpt lat="42.92369" lon="-0.25043">
        <ele>1145.1</ele>
        <time>2011-03-09T07:54:24Z</time>
      </trkpt>
      <trkpt lat="42.92368" lon="-0.25043">
        <ele>1145.1</ele>
        <time>2011-03-09T07:54:25Z</time>
      </trkpt>
      <trkpt lat="42.92367" lon="-0.25049">
        <ele>1145.5</ele>
        <time>2011-03-09T07:54:29Z</time>
      </trkpt>
      <trkpt lat="42.92357" lon="-0.25073">
        <ele>1147.5</ele>
        <time>2011-03-09T07:54:46Z</time>
      </trkpt>
      <trkpt lat="42.92356" lon="-0.25078">
        <ele>1148</ele>
        <time>2011-03-09T07:54:49Z</time>
      </trkpt>
      <trkpt lat="42.92352" lon="-0.25087">
        <ele>1148.4</ele>
        <time>2011-03-09T07:54:55Z</time>
      </trkpt>
      <trkpt lat="42.92348" lon="-0.25093">
        <ele>1149.4</ele>
        <time>2011-03-09T07:54:59Z</time>
      </trkpt>
      <trkpt lat="42.92342" lon="-0.25103">
        <ele>1150.4</ele>
        <time>2011-03-09T07:55:06Z</time>
      </trkpt>
      <trkpt lat="42.92338" lon="-0.25115">
        <ele>1150.8</ele>
        <time>2011-03-09T07:55:14Z</time>
      </trkpt>
      <trkpt lat="42.92328" lon="-0.25129">
        <ele>1152.3</ele>
        <time>2011-03-09T07:55:26Z</time>
      </trkpt>
      <trkpt lat="42.92324" lon="-0.25143">
        <ele>1153.2</ele>
        <time>2011-03-09T07:55:35Z</time>
      </trkpt>
      <trkpt lat="42.9232" lon="-0.25149">
        <ele>1153.7</ele>
        <time>2011-03-09T07:55:41Z</time>
      </trkpt>
      <trkpt lat="42.92316" lon="-0.25154">
        <ele>1154.7</ele>
        <time>2011-03-09T07:55:45Z</time>
      </trkpt>
      <trkpt lat="42.92301" lon="-0.25163">
        <ele>1156.1</ele>
        <time>2011-03-09T07:55:57Z</time>
      </trkpt>
      <trkpt lat="42.9228" lon="-0.25173">
        <ele>1158</ele>
        <time>2011-03-09T07:56:15Z</time>
      </trkpt>
      <trkpt lat="42.92274" lon="-0.25177">
        <ele>1159</ele>
        <time>2011-03-09T07:56:21Z</time>
      </trkpt>
      <trkpt lat="42.92257" lon="-0.25183">
        <ele>1160.9</ele>
        <time>2011-03-09T07:56:36Z</time>
      </trkpt>
      <trkpt lat="42.92253" lon="-0.25185">
        <ele>1161.4</ele>
        <time>2011-03-09T07:56:39Z</time>
      </trkpt>
      <trkpt lat="42.92249" lon="-0.25189">
        <ele>1161.4</ele>
        <time>2011-03-09T07:56:43Z</time>
      </trkpt>
      <trkpt lat="42.92238" lon="-0.25195">
        <ele>1162.9</ele>
        <time>2011-03-09T07:56:53Z</time>
      </trkpt>
      <trkpt lat="42.92214" lon="-0.25206">
        <ele>1165.3</ele>
        <time>2011-03-09T07:57:14Z</time>
      </trkpt>
      <trkpt lat="42.92196" lon="-0.25212">
        <ele>1167.2</ele>
        <time>2011-03-09T07:57:29Z</time>
      </trkpt>
      <trkpt lat="42.92187" lon="-0.25211">
        <ele>1167.7</ele>
        <time>2011-03-09T07:57:36Z</time>
      </trkpt>
      <trkpt lat="42.92168" lon="-0.2522">
        <ele>1170.5</ele>
        <time>2011-03-09T07:57:54Z</time>
      </trkpt>
      <trkpt lat="42.9214" lon="-0.25234">
        <ele>1173.4</ele>
        <time>2011-03-09T07:58:18Z</time>
      </trkpt>
      <trkpt lat="42.92125" lon="-0.25235">
        <ele>1175.3</ele>
        <time>2011-03-09T07:58:29Z</time>
      </trkpt>
      <trkpt lat="42.92101" lon="-0.25253">
        <ele>1177.8</ele>
        <time>2011-03-09T07:58:51Z</time>
      </trkpt>
      <trkpt lat="42.9208" lon="-0.25269">
        <ele>1180.2</ele>
        <time>2011-03-09T07:59:10Z</time>
      </trkpt>
      <trkpt lat="42.92057" lon="-0.25294">
        <ele>1183</ele>
        <time>2011-03-09T07:59:33Z</time>
      </trkpt>
      <trkpt lat="42.92049" lon="-0.25303">
        <ele>1184</ele>
        <time>2011-03-09T07:59:42Z</time>
      </trkpt>
      <trkpt lat="42.92047" lon="-0.25306">
        <ele>1184.5</ele>
        <time>2011-03-09T07:59:45Z</time>
      </trkpt>
      <trkpt lat="42.92027" lon="-0.25317">
        <ele>1186.4</ele>
        <time>2011-03-09T08:00:02Z</time>
      </trkpt>
      <trkpt lat="42.92019" lon="-0.25315">
        <ele>1187.8</ele>
        <time>2011-03-09T08:00:10Z</time>
      </trkpt>
      <trkpt lat="42.92014" lon="-0.25314">
        <ele>1188.3</ele>
        <time>2011-03-09T08:00:14Z</time>
      </trkpt>
      <trkpt lat="42.92005" lon="-0.25307">
        <ele>1188.8</ele>
        <time>2011-03-09T08:00:22Z</time>
      </trkpt>
      <trkpt lat="42.91998" lon="-0.25301">
        <ele>1189.8</ele>
        <time>2011-03-09T08:00:28Z</time>
      </trkpt>
      <trkpt lat="42.91984" lon="-0.25294">
        <ele>1190.7</ele>
        <time>2011-03-09T08:00:40Z</time>
      </trkpt>
      <trkpt lat="42.91961" lon="-0.25311">
        <ele>1193.1</ele>
        <time>2011-03-09T08:01:00Z</time>
      </trkpt>
      <trkpt lat="42.91958" lon="-0.25313">
        <ele>1193.6</ele>
        <time>2011-03-09T08:01:03Z</time>
      </trkpt>
      <trkpt lat="42.91952" lon="-0.2532">
        <ele>1194.1</ele>
        <time>2011-03-09T08:01:09Z</time>
      </trkpt>
      <trkpt lat="42.91936" lon="-0.25335">
        <ele>1195.1</ele>
        <time>2011-03-09T08:01:25Z</time>
      </trkpt>
      <trkpt lat="42.91914" lon="-0.25346">
        <ele>1197.5</ele>
        <time>2011-03-09T08:01:44Z</time>
      </trkpt>
      <trkpt lat="42.91905" lon="-0.25362">
        <ele>1198.4</ele>
        <time>2011-03-09T08:01:55Z</time>
      </trkpt>
      <trkpt lat="42.91891" lon="-0.25383">
        <ele>1199.4</ele>
        <time>2011-03-09T08:02:10Z</time>
      </trkpt>
      <trkpt lat="42.91872" lon="-0.25393">
        <ele>1201.3</ele>
        <time>2011-03-09T08:02:27Z</time>
      </trkpt>
      <trkpt lat="42.91855" lon="-0.25414">
        <ele>1203.2</ele>
        <time>2011-03-09T08:02:47Z</time>
      </trkpt>
      <trkpt lat="42.91832" lon="-0.25425">
        <ele>1204.7</ele>
        <time>2011-03-09T08:03:07Z</time>
      </trkpt>
      <trkpt lat="42.9182" lon="-0.25439">
        <ele>1206.1</ele>
        <time>2011-03-09T08:03:20Z</time>
      </trkpt>
      <trkpt lat="42.91808" lon="-0.25453">
        <ele>1207.6</ele>
        <time>2011-03-09T08:03:32Z</time>
      </trkpt>
      <trkpt lat="42.91796" lon="-0.25457">
        <ele>1208</ele>
        <time>2011-03-09T08:03:42Z</time>
      </trkpt>
      <trkpt lat="42.91786" lon="-0.25463">
        <ele>1208.5</ele>
        <time>2011-03-09T08:03:51Z</time>
      </trkpt>
      <trkpt lat="42.91779" lon="-0.25465">
        <ele>1209.5</ele>
        <time>2011-03-09T08:03:56Z</time>
      </trkpt>
      <trkpt lat="42.91774" lon="-0.2547">
        <ele>1210</ele>
        <time>2011-03-09T08:04:00Z</time>
      </trkpt>
      <trkpt lat="42.91757" lon="-0.2548">
        <ele>1211.4</ele>
        <time>2011-03-09T08:04:15Z</time>
      </trkpt>
      <trkpt lat="42.91736" lon="-0.25496">
        <ele>1213.8</ele>
        <time>2011-03-09T08:04:34Z</time>
      </trkpt>
      <trkpt lat="42.91714" lon="-0.25513">
        <ele>1214.8</ele>
        <time>2011-03-09T08:04:53Z</time>
      </trkpt>
      <trkpt lat="42.91688" lon="-0.25549">
        <ele>1214.3</ele>
        <time>2011-03-09T08:05:19Z</time>
      </trkpt>
      <trkpt lat="42.91672" lon="-0.25572">
        <ele>1214.3</ele>
        <time>2011-03-09T08:05:36Z</time>
      </trkpt>
      <trkpt lat="42.9164" lon="-0.2558">
        <ele>1214.8</ele>
        <time>2011-03-09T08:05:58Z</time>
      </trkpt>
      <trkpt lat="42.91605" lon="-0.25584">
        <ele>1214.3</ele>
        <time>2011-03-09T08:06:23Z</time>
      </trkpt>
      <trkpt lat="42.91579" lon="-0.25593">
        <ele>1213.8</ele>
        <time>2011-03-09T08:06:42Z</time>
      </trkpt>
      <trkpt lat="42.9155" lon="-0.25613">
        <ele>1213.8</ele>
        <time>2011-03-09T08:07:05Z</time>
      </trkpt>
      <trkpt lat="42.91527" lon="-0.25649">
        <ele>1214.3</ele>
        <time>2011-03-09T08:07:30Z</time>
      </trkpt>
      <trkpt lat="42.91513" lon="-0.25694">
        <ele>1214.3</ele>
        <time>2011-03-09T08:07:55Z</time>
      </trkpt>
      <trkpt lat="42.91496" lon="-0.25736">
        <ele>1214.3</ele>
        <time>2011-03-09T08:08:21Z</time>
      </trkpt>
      <trkpt lat="42.91483" lon="-0.25771">
        <ele>1214.3</ele>
        <time>2011-03-09T08:08:42Z</time>
      </trkpt>
      <trkpt lat="42.91468" lon="-0.25802">
        <ele>1214.3</ele>
        <time>2011-03-09T08:09:01Z</time>
      </trkpt>
      <trkpt lat="42.91445" lon="-0.25825">
        <ele>1214.3</ele>
        <time>2011-03-09T08:09:23Z</time>
      </trkpt>
      <trkpt lat="42.91416" lon="-0.25856">
        <ele>1214.3</ele>
        <time>2011-03-09T08:09:49Z</time>
      </trkpt>
      <trkpt lat="42.91393" lon="-0.25874">
        <ele>1214.3</ele>
        <time>2011-03-09T08:10:09Z</time>
      </trkpt>
      <trkpt lat="42.91356" lon="-0.25884">
        <ele>1214.3</ele>
        <time>2011-03-09T08:10:36Z</time>
      </trkpt>
      <trkpt lat="42.9134" lon="-0.25887">
        <ele>1214.3</ele>
        <time>2011-03-09T08:10:48Z</time>
      </trkpt>
      <trkpt lat="42.91338" lon="-0.25888">
        <ele>1214.3</ele>
        <time>2011-03-09T08:10:50Z</time>
      </trkpt>
      <trkpt lat="42.91332" lon="-0.2589">
        <ele>1214.3</ele>
        <time>2011-03-09T08:10:55Z</time>
      </trkpt>
      <trkpt lat="42.91293" lon="-0.25904">
        <ele>1214.3</ele>
        <time>2011-03-09T08:11:25Z</time>
      </trkpt>
      <trkpt lat="42.91262" lon="-0.25917">
        <ele>1214.3</ele>
        <time>2011-03-09T08:11:48Z</time>
      </trkpt>
      <trkpt lat="42.9123" lon="-0.25939">
        <ele>1214.3</ele>
        <time>2011-03-09T08:12:13Z</time>
      </trkpt>
      <trkpt lat="42.91221" lon="-0.25946">
        <ele>1239.90234375</ele>
      </trkpt>
      <trkpt lat="42.91221" lon="-0.25946">
        <ele>1239.90234375</ele>
      </trkpt>
      <trkpt lat="42.91238" lon="-0.25957">
        <ele>1239.90234375</ele>
      </trkpt>
      <trkpt lat="42.91247" lon="-0.25953">
        <ele>1239.90234375</ele>
      </trkpt>
      <trkpt lat="42.91259" lon="-0.25966">
        <ele>1239.90234375</ele>
      </trkpt>
      <trkpt lat="42.91259" lon="-0.25966">
        <ele>1239.90234375</ele>
      </trkpt>
      <trkpt lat="42.91266" lon="-0.25987">
        <ele>1239.90234375</ele>
      </trkpt>
      <trkpt lat="42.91266" lon="-0.25987">
        <ele>1239.90234375</ele>
      </trkpt>
      <trkpt lat="42.9126" lon="-0.25998">
        <ele>1239.90234375</ele>
      </trkpt>
      <trkpt lat="42.9126" lon="-0.26005">
        <ele>1239.90234375</ele>
      </trkpt>
      <trkpt lat="42.91249" lon="-0.26015">
        <ele>1239.90234375</ele>
      </trkpt>
      <trkpt lat="42.91247" lon="-0.26015">
        <ele>1239.90234375</ele>
      </trkpt>
      <trkpt lat="42.91239" lon="-0.26032">
        <ele>1239.90234375</ele>
      </trkpt>
      <trkpt lat="42.91221" lon="-0.26052">
        <ele>1241.5078125</ele>
      </trkpt>
      <trkpt lat="42.91208" lon="-0.26073">
        <ele>1244.3828125</ele>
      </trkpt>
      <trkpt lat="42.91187" lon="-0.26084">
        <ele>1244.41796875</ele>
      </trkpt>
      <trkpt lat="42.91187" lon="-0.26084">
        <ele>1244.42578125</ele>
      </trkpt>
      <trkpt lat="42.91174" lon="-0.26101">
        <ele>1246.2421875</ele>
      </trkpt>
      <trkpt lat="42.91172" lon="-0.26134">
        <ele>1254.19921875</ele>
      </trkpt>
      <trkpt lat="42.91183" lon="-0.26129">
        <ele>1253.69921875</ele>
      </trkpt>
      <trkpt lat="42.91195" lon="-0.26133">
        <ele>1256.28125</ele>
      </trkpt>
      <trkpt lat="42.91195" lon="-0.26133">
        <ele>1256.2578125</ele>
      </trkpt>
      <trkpt lat="42.91207" lon="-0.26131">
        <ele>1256.96875</ele>
      </trkpt>
      <trkpt lat="42.91207" lon="-0.26131">
        <ele>1256.8984375</ele>
      </trkpt>
      <trkpt lat="42.91215" lon="-0.26124">
        <ele>1255.76171875</ele>
      </trkpt>
      <trkpt lat="42.91251" lon="-0.26118">
        <ele>1253.3046875</ele>
      </trkpt>
      <trkpt lat="42.91262" lon="-0.26164">
        <ele>1264.7421875</ele>
      </trkpt>
      <trkpt lat="42.91269" lon="-0.26176">
        <ele>1268.50390625</ele>
      </trkpt>
      <trkpt lat="42.91271" lon="-0.26197">
        <ele>1274.8984375</ele>
      </trkpt>
      <trkpt lat="42.91258" lon="-0.26233">
        <ele>1279.83203125</ele>
      </trkpt>
      <trkpt lat="42.91238" lon="-0.2627">
        <ele>1280.07421875</ele>
      </trkpt>
      <trkpt lat="42.91239" lon="-0.26292">
        <ele>1281.12890625</ele>
      </trkpt>
      <trkpt lat="42.91225" lon="-0.26315">
        <ele>1284.0859375</ele>
      </trkpt>
      <trkpt lat="42.91208" lon="-0.26361">
        <ele>1297.26171875</ele>
      </trkpt>
      <trkpt lat="42.91208" lon="-0.26361">
        <ele>1297.296875</ele>
      </trkpt>
      <trkpt lat="42.91187" lon="-0.26369">
        <ele>1303.27734375</ele>
      </trkpt>
      <trkpt lat="42.91161" lon="-0.26391">
        <ele>1309.58203125</ele>
      </trkpt>
      <trkpt lat="42.91152" lon="-0.26408">
        <ele>1314.328125</ele>
      </trkpt>
      <trkpt lat="42.91131" lon="-0.26425">
        <ele>1319.86328125</ele>
      </trkpt>
      <trkpt lat="42.91105" lon="-0.26468">
        <ele>1334.59765625</ele>
      </trkpt>
      <trkpt lat="42.91105" lon="-0.26481">
        <ele>1338.1015625</ele>
      </trkpt>
      <trkpt lat="42.91135" lon="-0.26523">
        <ele>1347.28515625</ele>
      </trkpt>
      <trkpt lat="42.91144" lon="-0.26532">
        <ele>1349.34375</ele>
      </trkpt>
      <trkpt lat="42.91187" lon="-0.26541">
        <ele>1351.640625</ele>
      </trkpt>
      <trkpt lat="42.91191" lon="-0.26558">
        <ele>1357.75390625</ele>
      </trkpt>
      <trkpt lat="42.91153" lon="-0.2656">
        <ele>1358.578125</ele>
      </trkpt>
      <trkpt lat="42.91136" lon="-0.26562">
        <ele>1360.24609375</ele>
      </trkpt>
      <trkpt lat="42.91101" lon="-0.26575">
        <ele>1368.1953125</ele>
      </trkpt>
      <trkpt lat="42.91067" lon="-0.26567">
        <ele>1369.47265625</ele>
      </trkpt>
      <trkpt lat="42.91037" lon="-0.26571">
        <ele>1377.8515625</ele>
      </trkpt>
      <trkpt lat="42.91037" lon="-0.26571">
        <ele>1377.80859375</ele>
      </trkpt>
      <trkpt lat="42.91019" lon="-0.26584">
        <ele>1385.77734375</ele>
      </trkpt>
      <trkpt lat="42.91006" lon="-0.26583">
        <ele>1387.01171875</ele>
      </trkpt>
      <trkpt lat="42.90985" lon="-0.26597">
        <ele>1394.609375</ele>
      </trkpt>
      <trkpt lat="42.90964" lon="-0.26653">
        <ele>1414.77734375</ele>
      </trkpt>
      <trkpt lat="42.90938" lon="-0.26687">
        <ele>1427.23046875</ele>
      </trkpt>
      <trkpt lat="42.90939" lon="-0.26687">
        <ele>1427.21875</ele>
      </trkpt>
      <trkpt lat="42.90916" lon="-0.26695">
        <ele>1433.4609375</ele>
      </trkpt>
      <trkpt lat="42.90917" lon="-0.26704">
        <ele>1435.58984375</ele>
      </trkpt>
      <trkpt lat="42.90912" lon="-0.26704">
        <ele>1436.46875</ele>
      </trkpt>
      <trkpt lat="42.9091" lon="-0.26714">
        <ele>1439.17578125</ele>
      </trkpt>
      <trkpt lat="42.9089" lon="-0.26752">
        <ele>1457.05078125</ele>
      </trkpt>
      <trkpt lat="42.90869" lon="-0.26762">
        <ele>1468.015625</ele>
      </trkpt>
      <trkpt lat="42.9084" lon="-0.26785">
        <ele>1479.34375</ele>
      </trkpt>
      <trkpt lat="42.90822" lon="-0.26791">
        <ele>1480.08203125</ele>
      </trkpt>
      <trkpt lat="42.90809" lon="-0.26803">
        <ele>1480.08203125</ele>
      </trkpt>
      <trkpt lat="42.90805" lon="-0.2681">
        <ele>1480.08203125</ele>
      </trkpt>
      <trkpt lat="42.90784" lon="-0.2683">
        <ele>1480.08203125</ele>
      </trkpt>
      <trkpt lat="42.90781" lon="-0.26835">
        <ele>1480.08203125</ele>
      </trkpt>
      <trkpt lat="42.90769" lon="-0.26845">
        <ele>1480.08203125</ele>
      </trkpt>
      <trkpt lat="42.90769" lon="-0.26845">
        <ele>1480.08203125</ele>
      </trkpt>
      <trkpt lat="42.90758" lon="-0.26891">
        <ele>1480.08203125</ele>
      </trkpt>
      <trkpt lat="42.90741" lon="-0.26902">
        <ele>1481.96875</ele>
      </trkpt>
      <trkpt lat="42.90743" lon="-0.26914">
        <ele>1485.7421875</ele>
      </trkpt>
      <trkpt lat="42.90743" lon="-0.26914">
        <ele>1485.671875</ele>
      </trkpt>
      <trkpt lat="42.90734" lon="-0.26938">
        <ele>1493.3828125</ele>
      </trkpt>
      <trkpt lat="42.90734" lon="-0.26938">
        <ele>1493.37109375</ele>
      </trkpt>
      <trkpt lat="42.90678" lon="-0.27018">
        <ele>1519.87109375</ele>
      </trkpt>
      <trkpt lat="42.90668" lon="-0.27046">
        <ele>1520.0078125</ele>
      </trkpt>
      <trkpt lat="42.90665" lon="-0.27084">
        <ele>1520.109375</ele>
      </trkpt>
      <trkpt lat="42.90665" lon="-0.27084">
        <ele>1520.09765625</ele>
      </trkpt>
      <trkpt lat="42.90669" lon="-0.27159">
        <ele>1528.84375</ele>
      </trkpt>
      <trkpt lat="42.90665" lon="-0.27172">
        <ele>1531.3984375</ele>
      </trkpt>
      <trkpt lat="42.90665" lon="-0.27171">
        <ele>1531.28125</ele>
      </trkpt>
      <trkpt lat="42.90681" lon="-0.27224">
        <ele>1548.9296875</ele>
      </trkpt>
      <trkpt lat="42.90681" lon="-0.27224">
        <ele>1548.953125</ele>
      </trkpt>
      <trkpt lat="42.90678" lon="-0.27292">
        <ele>1559.4296875</ele>
      </trkpt>
      <trkpt lat="42.90678" lon="-0.27292">
        <ele>1559.40234375</ele>
      </trkpt>
      <trkpt lat="42.90698" lon="-0.27382">
        <ele>1568.10546875</ele>
      </trkpt>
      <trkpt lat="42.90691" lon="-0.27418">
        <ele>1575.23828125</ele>
      </trkpt>
      <trkpt lat="42.90691" lon="-0.27418">
        <ele>1575.16796875</ele>
      </trkpt>
      <trkpt lat="42.90685" lon="-0.2743">
        <ele>1579.51953125</ele>
      </trkpt>
      <trkpt lat="42.90676" lon="-0.27466">
        <ele>1598.4765625</ele>
      </trkpt>
      <trkpt lat="42.90676" lon="-0.27466">
        <ele>1598.4375</ele>
      </trkpt>
      <trkpt lat="42.90667" lon="-0.27468">
        <ele>1599</ele>
      </trkpt>
      <trkpt lat="42.90663" lon="-0.27474">
        <ele>1599.8671875</ele>
      </trkpt>
      <trkpt lat="42.90663" lon="-0.27474">
        <ele>1599.86328125</ele>
      </trkpt>
      <trkpt lat="42.90654" lon="-0.27479">
        <ele>1599.8671875</ele>
      </trkpt>
      <trkpt lat="42.90648" lon="-0.27491">
        <ele>1599.8671875</ele>
      </trkpt>
      <trkpt lat="42.90648" lon="-0.27491">
        <ele>1599.8671875</ele>
      </trkpt>
      <trkpt lat="42.90638" lon="-0.27502">
        <ele>1599.8671875</ele>
      </trkpt>
      <trkpt lat="42.90635" lon="-0.27517">
        <ele>1599.8671875</ele>
      </trkpt>
      <trkpt lat="42.90637" lon="-0.27528">
        <ele>1599.8671875</ele>
      </trkpt>
      <trkpt lat="42.90653" lon="-0.27543">
        <ele>1599.8671875</ele>
      </trkpt>
      <trkpt lat="42.90652" lon="-0.27543">
        <ele>1599.8671875</ele>
      </trkpt>
      <trkpt lat="42.90655" lon="-0.27553">
        <ele>1599.8671875</ele>
      </trkpt>
      <trkpt lat="42.90654" lon="-0.27553">
        <ele>1599.8671875</ele>
      </trkpt>
      <trkpt lat="42.90648" lon="-0.27567">
        <ele>1599.8671875</ele>
      </trkpt>
      <trkpt lat="42.9065" lon="-0.27598">
        <ele>1599.8671875</ele>
      </trkpt>
      <trkpt lat="42.90648" lon="-0.27606">
        <ele>1599.8671875</ele>
      </trkpt>
      <trkpt lat="42.90644" lon="-0.27605">
        <ele>1599.8671875</ele>
      </trkpt>
      <trkpt lat="42.90644" lon="-0.27605">
        <ele>1599.8671875</ele>
      </trkpt>
      <trkpt lat="42.90642" lon="-0.27622">
        <ele>1599.87890625</ele>
      </trkpt>
      <trkpt lat="42.90642" lon="-0.27622">
        <ele>1599.87109375</ele>
      </trkpt>
      <trkpt lat="42.90637" lon="-0.27629">
        <ele>1600.08984375</ele>
      </trkpt>
      <trkpt lat="42.9064" lon="-0.27695">
        <ele>1608.65234375</ele>
      </trkpt>
      <trkpt lat="42.9064" lon="-0.27695">
        <ele>1608.640625</ele>
      </trkpt>
      <trkpt lat="42.90633" lon="-0.277">
        <ele>1611.8203125</ele>
      </trkpt>
      <trkpt lat="42.90634" lon="-0.277">
        <ele>1611.78515625</ele>
      </trkpt>
      <trkpt lat="42.90638" lon="-0.2771">
        <ele>1615.359375</ele>
      </trkpt>
      <trkpt lat="42.90633" lon="-0.27717">
        <ele>1618.8359375</ele>
      </trkpt>
      <trkpt lat="42.90633" lon="-0.27717">
        <ele>1618.80859375</ele>
      </trkpt>
      <trkpt lat="42.90631" lon="-0.2773">
        <ele>1625.44921875</ele>
      </trkpt>
      <trkpt lat="42.90631" lon="-0.27736">
        <ele>1628.1484375</ele>
      </trkpt>
      <trkpt lat="42.90639" lon="-0.2774">
        <ele>1628.23046875</ele>
      </trkpt>
      <trkpt lat="42.90646" lon="-0.27762">
        <ele>1632.5234375</ele>
      </trkpt>
      <trkpt lat="42.90641" lon="-0.27777">
        <ele>1635.45703125</ele>
      </trkpt>
      <trkpt lat="42.90644" lon="-0.27792">
        <ele>1637.5390625</ele>
      </trkpt>
      <trkpt lat="42.90644" lon="-0.27792">
        <ele>1637.48046875</ele>
      </trkpt>
      <trkpt lat="42.90643" lon="-0.27805">
        <ele>1639.2109375</ele>
      </trkpt>
      <trkpt lat="42.9065" lon="-0.2782">
        <ele>1640.09765625</ele>
      </trkpt>
      <trkpt lat="42.90648" lon="-0.27846">
        <ele>1640.09765625</ele>
      </trkpt>
      <trkpt lat="42.90657" lon="-0.27864">
        <ele>1640.09765625</ele>
      </trkpt>
      <trkpt lat="42.90657" lon="-0.27902">
        <ele>1640.32421875</ele>
      </trkpt>
      <trkpt lat="42.90656" lon="-0.27901">
        <ele>1640.3046875</ele>
      </trkpt>
      <trkpt lat="42.90652" lon="-0.27912">
        <ele>1640.3203125</ele>
      </trkpt>
      <trkpt lat="42.90659" lon="-0.27914">
        <ele>1640.99609375</ele>
      </trkpt>
      <trkpt lat="42.90659" lon="-0.27914">
        <ele>1640.9765625</ele>
      </trkpt>
      <trkpt lat="42.90657" lon="-0.27925">
        <ele>1642.08203125</ele>
      </trkpt>
      <trkpt lat="42.90668" lon="-0.27954">
        <ele>1650.7890625</ele>
      </trkpt>
      <trkpt lat="42.9067" lon="-0.27983">
        <ele>1657.90625</ele>
      </trkpt>
      <trkpt lat="42.90665" lon="-0.27996">
        <ele>1660.0234375</ele>
      </trkpt>
      <trkpt lat="42.90674" lon="-0.28043">
        <ele>1672.12109375</ele>
      </trkpt>
      <trkpt lat="42.90678" lon="-0.28048">
        <ele>1674.4375</ele>
      </trkpt>
      <trkpt lat="42.90678" lon="-0.28048">
        <ele>1674.484375</ele>
      </trkpt>
      <trkpt lat="42.90674" lon="-0.28071">
        <ele>1679.64453125</ele>
      </trkpt>
      <trkpt lat="42.90674" lon="-0.28071">
        <ele>1679.5859375</ele>
      </trkpt>
      <trkpt lat="42.9067" lon="-0.28077">
        <ele>1680.1796875</ele>
      </trkpt>
      <trkpt lat="42.9067" lon="-0.28077">
        <ele>1680.1171875</ele>
      </trkpt>
      <trkpt lat="42.90672" lon="-0.28094">
        <ele>1685.7421875</ele>
      </trkpt>
      <trkpt lat="42.90672" lon="-0.28094">
        <ele>1685.65234375</ele>
      </trkpt>
      <trkpt lat="42.90665" lon="-0.28109">
        <ele>1689.52734375</ele>
      </trkpt>
      <trkpt lat="42.90665" lon="-0.28109">
        <ele>1689.5703125</ele>
      </trkpt>
      <trkpt lat="42.90672" lon="-0.2811">
        <ele>1691.4375</ele>
      </trkpt>
      <trkpt lat="42.90672" lon="-0.28109">
        <ele>1691.29296875</ele>
      </trkpt>
      <trkpt lat="42.90665" lon="-0.28133">
        <ele>1698.7734375</ele>
      </trkpt>
      <trkpt lat="42.90666" lon="-0.28133">
        <ele>1698.82421875</ele>
      </trkpt>
      <trkpt lat="42.90672" lon="-0.28133">
        <ele>1700.734375</ele>
      </trkpt>
      <trkpt lat="42.90671" lon="-0.28133">
        <ele>1700.5859375</ele>
      </trkpt>
      <trkpt lat="42.90672" lon="-0.28146">
        <ele>1705.734375</ele>
      </trkpt>
      <trkpt lat="42.90672" lon="-0.28146">
        <ele>1705.59375</ele>
      </trkpt>
      <trkpt lat="42.90687" lon="-0.28131">
        <ele>1704.76953125</ele>
      </trkpt>
      <trkpt lat="42.9068" lon="-0.28149">
        <ele>1708.92578125</ele>
      </trkpt>
      <trkpt lat="42.9068" lon="-0.28148">
        <ele>1708.83984375</ele>
      </trkpt>
      <trkpt lat="42.90689" lon="-0.28148">
        <ele>1711.41796875</ele>
      </trkpt>
      <trkpt lat="42.90689" lon="-0.28148">
        <ele>1711.171875</ele>
      </trkpt>
      <trkpt lat="42.90682" lon="-0.28174">
        <ele>1717.1796875</ele>
      </trkpt>
      <trkpt lat="42.90689" lon="-0.28174">
        <ele>1720.0234375</ele>
      </trkpt>
      <trkpt lat="42.90685" lon="-0.28221">
        <ele>1734.46875</ele>
      </trkpt>
      <trkpt lat="42.90685" lon="-0.28221">
        <ele>1734.2734375</ele>
      </trkpt>
      <trkpt lat="42.90676" lon="-0.28234">
        <ele>1736.11328125</ele>
      </trkpt>
      <trkpt lat="42.90676" lon="-0.28233">
        <ele>1736.015625</ele>
      </trkpt>
      <trkpt lat="42.90672" lon="-0.28232">
        <ele>1733.94140625</ele>
      </trkpt>
      <trkpt lat="42.90663" lon="-0.2825">
        <ele>1738.44921875</ele>
      </trkpt>
      <trkpt lat="42.90664" lon="-0.28262">
        <ele>1743.3984375</ele>
      </trkpt>
      <trkpt lat="42.90664" lon="-0.28262">
        <ele>1743.30078125</ele>
      </trkpt>
      <trkpt lat="42.90659" lon="-0.28273">
        <ele>1746.5234375</ele>
      </trkpt>
      <trkpt lat="42.9065" lon="-0.28281">
        <ele>1748.05859375</ele>
      </trkpt>
      <trkpt lat="42.9065" lon="-0.28311">
        <ele>1759.05078125</ele>
      </trkpt>
      <trkpt lat="42.90633" lon="-0.28324">
        <ele>1763.20703125</ele>
      </trkpt>
      <trkpt lat="42.90631" lon="-0.28346">
        <ele>1773.5546875</ele>
      </trkpt>
      <trkpt lat="42.90631" lon="-0.28346">
        <ele>1773.4375</ele>
      </trkpt>
      <trkpt lat="42.90611" lon="-0.28371">
        <ele>1779.8984375</ele>
      </trkpt>
      <trkpt lat="42.90612" lon="-0.28391">
        <ele>1790.8671875</ele>
      </trkpt>
      <trkpt lat="42.90618" lon="-0.2839">
        <ele>1791.69140625</ele>
      </trkpt>
      <trkpt lat="42.90618" lon="-0.28397">
        <ele>1796.0859375</ele>
      </trkpt>
      <trkpt lat="42.90613" lon="-0.28402">
        <ele>1797.6640625</ele>
      </trkpt>
      <trkpt lat="42.90613" lon="-0.28402">
        <ele>1797.69921875</ele>
      </trkpt>
      <trkpt lat="42.9062" lon="-0.28402">
        <ele>1799.640625</ele>
      </trkpt>
      <trkpt lat="42.90614" lon="-0.28419">
        <ele>1808.0078125</ele>
      </trkpt>
      <trkpt lat="42.906" lon="-0.28434">
        <ele>1811.55078125</ele>
      </trkpt>
      <trkpt lat="42.90601" lon="-0.28434">
        <ele>1811.6328125</ele>
      </trkpt>
      <trkpt lat="42.90567" lon="-0.28448">
        <ele>1817.328125</ele>
      </trkpt>
      <trkpt lat="42.90554" lon="-0.28461">
        <ele>1826.375</ele>
      </trkpt>
      <trkpt lat="42.90554" lon="-0.28462">
        <ele>1826.6328125</ele>
      </trkpt>
      <trkpt lat="42.90554" lon="-0.2847">
        <ele>1831.1328125</ele>
      </trkpt>
      <trkpt lat="42.90543" lon="-0.28483">
        <ele>1837.58203125</ele>
      </trkpt>
      <trkpt lat="42.90536" lon="-0.28502">
        <ele>1840.04296875</ele>
      </trkpt>
      <trkpt lat="42.9053" lon="-0.28502">
        <ele>1840.04296875</ele>
      </trkpt>
      <trkpt lat="42.90531" lon="-0.28502">
        <ele>1840.04296875</ele>
      </trkpt>
      <trkpt lat="42.90526" lon="-0.28507">
        <ele>1840.04296875</ele>
      </trkpt>
      <trkpt lat="42.90526" lon="-0.28503">
        <ele>1840.04296875</ele>
      </trkpt>
      <trkpt lat="42.90522" lon="-0.28502">
        <ele>1840.04296875</ele>
      </trkpt>
      <trkpt lat="42.90511" lon="-0.28511">
        <ele>1840.04296875</ele>
      </trkpt>
      <trkpt lat="42.90502" lon="-0.28509">
        <ele>1840.04296875</ele>
      </trkpt>
      <trkpt lat="42.90501" lon="-0.28502">
        <ele>1840.04296875</ele>
      </trkpt>
      <trkpt lat="42.90496" lon="-0.28503">
        <ele>1840.31640625</ele>
      </trkpt>
      <trkpt lat="42.90487" lon="-0.28508">
        <ele>1841.94140625</ele>
      </trkpt>
      <trkpt lat="42.90487" lon="-0.28509">
        <ele>1841.94140625</ele>
      </trkpt>
      <trkpt lat="42.90478" lon="-0.28521">
        <ele>1844.18359375</ele>
      </trkpt>
      <trkpt lat="42.90479" lon="-0.28534">
        <ele>1843.47265625</ele>
      </trkpt>
      <trkpt lat="42.90472" lon="-0.28539">
        <ele>1845.7890625</ele>
      </trkpt>
      <trkpt lat="42.90459" lon="-0.28571">
        <ele>1853.73046875</ele>
      </trkpt>
      <trkpt lat="42.90453" lon="-0.28573">
        <ele>1855.6640625</ele>
      </trkpt>
      <trkpt lat="42.90442" lon="-0.28592">
        <ele>1860.2734375</ele>
      </trkpt>
      <trkpt lat="42.90442" lon="-0.28609">
        <ele>1863.48828125</ele>
      </trkpt>
      <trkpt lat="42.90449" lon="-0.28624">
        <ele>1868.0078125</ele>
      </trkpt>
      <trkpt lat="42.90442" lon="-0.28637">
        <ele>1872.34765625</ele>
      </trkpt>
      <trkpt lat="42.90438" lon="-0.28659">
        <ele>1879.08984375</ele>
      </trkpt>
      <trkpt lat="42.90444" lon="-0.28668">
        <ele>1880.05078125</ele>
      </trkpt>
      <trkpt lat="42.90444" lon="-0.28667">
        <ele>1880.0078125</ele>
      </trkpt>
      <trkpt lat="42.90433" lon="-0.28691">
        <ele>1880.34765625</ele>
      </trkpt>
      <trkpt lat="42.90433" lon="-0.2869">
        <ele>1880.3359375</ele>
      </trkpt>
      <trkpt lat="42.90448" lon="-0.28695">
        <ele>1881.3359375</ele>
      </trkpt>
      <trkpt lat="42.90444" lon="-0.2871">
        <ele>1881.84765625</ele>
      </trkpt>
      <trkpt lat="42.90444" lon="-0.2871">
        <ele>1881.8203125</ele>
      </trkpt>
      <trkpt lat="42.90457" lon="-0.28712">
        <ele>1883.66015625</ele>
      </trkpt>
      <trkpt lat="42.90451" lon="-0.28725">
        <ele>1886.265625</ele>
      </trkpt>
      <trkpt lat="42.90459" lon="-0.28727">
        <ele>1888.21875</ele>
      </trkpt>
      <trkpt lat="42.90459" lon="-0.28727">
        <ele>1888.09375</ele>
      </trkpt>
      <trkpt lat="42.90455" lon="-0.2874">
        <ele>1892.4375</ele>
      </trkpt>
      <trkpt lat="42.9049" lon="-0.28746">
        <ele>1904.1953125</ele>
      </trkpt>
      <trkpt lat="42.90471" lon="-0.28782">
        <ele>1912.484375</ele>
      </trkpt>
      <trkpt lat="42.90471" lon="-0.28781">
        <ele>1912.359375</ele>
      </trkpt>
      <trkpt lat="42.90498" lon="-0.28776">
        <ele>1920.0078125</ele>
      </trkpt>
      <trkpt lat="42.90498" lon="-0.28776">
        <ele>1919.76953125</ele>
      </trkpt>
      <trkpt lat="42.90485" lon="-0.28815">
        <ele>1930.9765625</ele>
      </trkpt>
      <trkpt lat="42.90484" lon="-0.28815">
        <ele>1930.796875</ele>
      </trkpt>
      <trkpt lat="42.90506" lon="-0.28805">
        <ele>1938.4609375</ele>
      </trkpt>
      <trkpt lat="42.90513" lon="-0.28804">
        <ele>1943.76953125</ele>
      </trkpt>
      <trkpt lat="42.905" lon="-0.28835">
        <ele>1947.71484375</ele>
      </trkpt>
      <trkpt lat="42.90518" lon="-0.28827">
        <ele>1957.1953125</ele>
      </trkpt>
      <trkpt lat="42.90508" lon="-0.28852">
        <ele>1961.453125</ele>
      </trkpt>
      <trkpt lat="42.90528" lon="-0.28845">
        <ele>1972.82421875</ele>
      </trkpt>
      <trkpt lat="42.90524" lon="-0.28861">
        <ele>1976.19140625</ele>
      </trkpt>
      <trkpt lat="42.90491" lon="-0.28921">
        <ele>1983.84765625</ele>
      </trkpt>
      <trkpt lat="42.90502" lon="-0.28923">
        <ele>1990.66796875</ele>
      </trkpt>
      <trkpt lat="42.90496" lon="-0.28938">
        <ele>1994.83984375</ele>
      </trkpt>
      <trkpt lat="42.90496" lon="-0.28938">
        <ele>1994.91796875</ele>
      </trkpt>
      <trkpt lat="42.90498" lon="-0.2894">
        <ele>1997.27734375</ele>
      </trkpt>
      <trkpt lat="42.90498" lon="-0.2894">
        <ele>1997.0546875</ele>
      </trkpt>
      <trkpt lat="42.90502" lon="-0.28935">
        <ele>1996.91015625</ele>
      </trkpt>
      <trkpt lat="42.90502" lon="-0.28935">
        <ele>1996.81640625</ele>
      </trkpt>
      <trkpt lat="42.90502" lon="-0.28944">
        <ele>2001.4921875</ele>
      </trkpt>
      <trkpt lat="42.90502" lon="-0.28943">
        <ele>2001.26171875</ele>
      </trkpt>
      <trkpt lat="42.90507" lon="-0.2894">
        <ele>2001.66796875</ele>
      </trkpt>
      <trkpt lat="42.90509" lon="-0.28942">
        <ele>2004.77734375</ele>
      </trkpt>
      <trkpt lat="42.905" lon="-0.28967">
        <ele>2012.5625</ele>
      </trkpt>
      <trkpt lat="42.90504" lon="-0.28968">
        <ele>2015.08984375</ele>
      </trkpt>
      <trkpt lat="42.90504" lon="-0.28968">
        <ele>2014.8671875</ele>
      </trkpt>
      <trkpt lat="42.90502" lon="-0.28978">
        <ele>2019.46875</ele>
      </trkpt>
      <trkpt lat="42.90502" lon="-0.28978">
        <ele>2019.56640625</ele>
      </trkpt>
      <trkpt lat="42.90498" lon="-0.28982">
        <ele>2019.33203125</ele>
      </trkpt>
      <trkpt lat="42.90502" lon="-0.28983">
        <ele>2022.27734375</ele>
      </trkpt>
      <trkpt lat="42.90502" lon="-0.28983">
        <ele>2022.1796875</ele>
      </trkpt>
      <trkpt lat="42.905" lon="-0.28993">
        <ele>2026.41015625</ele>
      </trkpt>
      <trkpt lat="42.90507" lon="-0.28993">
        <ele>2030</ele>
      </trkpt>
      <trkpt lat="42.905" lon="-0.29004">
        <ele>2032.875</ele>
      </trkpt>
      <trkpt lat="42.90509" lon="-0.29006">
        <ele>2038.52734375</ele>
      </trkpt>
      <trkpt lat="42.90502" lon="-0.29015">
        <ele>2039.83984375</ele>
      </trkpt>
      <trkpt lat="42.90502" lon="-0.29015">
        <ele>2039.61328125</ele>
      </trkpt>
      <trkpt lat="42.90507" lon="-0.29017">
        <ele>2043.2578125</ele>
      </trkpt>
      <trkpt lat="42.90502" lon="-0.29022">
        <ele>2043.49609375</ele>
      </trkpt>
      <trkpt lat="42.90507" lon="-0.29026">
        <ele>2048.07421875</ele>
      </trkpt>
      <trkpt lat="42.90507" lon="-0.29026">
        <ele>2047.84375</ele>
      </trkpt>
      <trkpt lat="42.90496" lon="-0.29042">
        <ele>2051.890625</ele>
      </trkpt>
      <trkpt lat="42.90496" lon="-0.29042">
        <ele>2051.734375</ele>
      </trkpt>
      <trkpt lat="42.90492" lon="-0.29041">
        <ele>2049.08203125</ele>
      </trkpt>
      <trkpt lat="42.90492" lon="-0.29045">
        <ele>2051.4140625</ele>
      </trkpt>
      <trkpt lat="42.90491" lon="-0.29045">
        <ele>2051.19921875</ele>
      </trkpt>
      <trkpt lat="42.90488" lon="-0.29043">
        <ele>2048.62890625</ele>
      </trkpt>
      <trkpt lat="42.90488" lon="-0.29043">
        <ele>2048.83984375</ele>
      </trkpt>
      <trkpt lat="42.90489" lon="-0.29047">
        <ele>2051.5859375</ele>
      </trkpt>
      <trkpt lat="42.90489" lon="-0.29047">
        <ele>2051.51171875</ele>
      </trkpt>
      <trkpt lat="42.90484" lon="-0.29047">
        <ele>2049.4609375</ele>
      </trkpt>
      <trkpt lat="42.90486" lon="-0.29054">
        <ele>2053.8671875</ele>
      </trkpt>
      <trkpt lat="42.90477" lon="-0.29049">
        <ele>2048.76953125</ele>
      </trkpt>
      <trkpt lat="42.90477" lon="-0.2906">
        <ele>2055.46484375</ele>
      </trkpt>
      <trkpt lat="42.90464" lon="-0.2906">
        <ele>2052.51953125</ele>
      </trkpt>
      <trkpt lat="42.90466" lon="-0.29073">
        <ele>2060.73046875</ele>
      </trkpt>
      <trkpt lat="42.90466" lon="-0.29072">
        <ele>2060.578125</ele>
      </trkpt>
      <trkpt lat="42.90459" lon="-0.29075">
        <ele>2060.828125</ele>
      </trkpt>
      <trkpt lat="42.90455" lon="-0.29084">
        <ele>2065.890625</ele>
      </trkpt>
      <trkpt lat="42.90449" lon="-0.29088">
        <ele>2067.62109375</ele>
      </trkpt>
      <trkpt lat="42.90444" lon="-0.29099">
        <ele>2073.953125</ele>
      </trkpt>
      <trkpt lat="42.90444" lon="-0.29099">
        <ele>2074.10546875</ele>
      </trkpt>
      <trkpt lat="42.90433" lon="-0.29107">
        <ele>2077.8828125</ele>
      </trkpt>
      <trkpt lat="42.90425" lon="-0.29107">
        <ele>2077.30078125</ele>
      </trkpt>
      <trkpt lat="42.90425" lon="-0.29112">
        <ele>2080.0625</ele>
      </trkpt>
      <trkpt lat="42.9042" lon="-0.29114">
        <ele>2080.7578125</ele>
      </trkpt>
      <trkpt lat="42.90423" lon="-0.29138">
        <ele>2092.36328125</ele>
      </trkpt>
      <trkpt lat="42.90418" lon="-0.29142">
        <ele>2093.9140625</ele>
      </trkpt>
      <trkpt lat="42.90423" lon="-0.2915">
        <ele>2097.9375</ele>
      </trkpt>
      <trkpt lat="42.90423" lon="-0.2915">
        <ele>2097.91796875</ele>
      </trkpt>
      <trkpt lat="42.90419" lon="-0.29159">
        <ele>2101.0703125</ele>
      </trkpt>
      <trkpt lat="42.90421" lon="-0.29165">
        <ele>2104.01171875</ele>
      </trkpt>
      <trkpt lat="42.90414" lon="-0.29165">
        <ele>2103.046875</ele>
      </trkpt>
      <trkpt lat="42.90414" lon="-0.29165">
        <ele>2103.06640625</ele>
      </trkpt>
      <trkpt lat="42.90406" lon="-0.29159">
        <ele>2100.5078125</ele>
      </trkpt>
      <trkpt lat="42.90395" lon="-0.29173">
        <ele>2106.03515625</ele>
      </trkpt>
      <trkpt lat="42.90382" lon="-0.2918">
        <ele>2108.62890625</ele>
      </trkpt>
      <trkpt lat="42.9038" lon="-0.29198">
        <ele>2115.015625</ele>
      </trkpt>
      <trkpt lat="42.90375" lon="-0.29204">
        <ele>2117.6328125</ele>
      </trkpt>
      <trkpt lat="42.90399" lon="-0.29206">
        <ele>2118.76953125</ele>
      </trkpt>
      <trkpt lat="42.90386" lon="-0.29236">
        <ele>2129.390625</ele>
      </trkpt>
      <trkpt lat="42.90386" lon="-0.29236">
        <ele>2129.3828125</ele>
      </trkpt>
      <trkpt lat="42.90374" lon="-0.29281">
        <ele>2143.68359375</ele>
      </trkpt>
      <trkpt lat="42.90356" lon="-0.29313">
        <ele>2152.8671875</ele>
      </trkpt>
      <trkpt lat="42.90355" lon="-0.29313">
        <ele>2152.8671875</ele>
      </trkpt>
      <trkpt lat="42.90369" lon="-0.29315">
        <ele>2153.66796875</ele>
      </trkpt>
      <trkpt lat="42.90369" lon="-0.29315">
        <ele>2153.50390625</ele>
      </trkpt>
      <trkpt lat="42.90384" lon="-0.29324">
        <ele>2156.59765625</ele>
      </trkpt>
      <trkpt lat="42.90432" lon="-0.29317">
        <ele>2156.45703125</ele>
      </trkpt>
      <trkpt lat="42.90432" lon="-0.29316">
        <ele>2156.3828125</ele>
      </trkpt>
      <trkpt lat="42.90429" lon="-0.29347">
        <ele>2166.25</ele>
      </trkpt>
      <trkpt lat="42.90423" lon="-0.29359">
        <ele>2169.99609375</ele>
      </trkpt>
      <trkpt lat="42.90423" lon="-0.29359">
        <ele>2169.91015625</ele>
      </trkpt>
      <trkpt lat="42.90412" lon="-0.29363">
        <ele>2171.03125</ele>
      </trkpt>
      <trkpt lat="42.90403" lon="-0.29381">
        <ele>2177.55859375</ele>
      </trkpt>
      <trkpt lat="42.90393" lon="-0.2939">
        <ele>2180.66015625</ele>
      </trkpt>
      <trkpt lat="42.90393" lon="-0.2939">
        <ele>2180.6328125</ele>
      </trkpt>
      <trkpt lat="42.90393" lon="-0.29408">
        <ele>2188.5</ele>
      </trkpt>
      <trkpt lat="42.9038" lon="-0.29429">
        <ele>2197.28515625</ele>
      </trkpt>
      <trkpt lat="42.90373" lon="-0.29431">
        <ele>2198.203125</ele>
      </trkpt>
      <trkpt lat="42.90383" lon="-0.29449">
        <ele>2206.5</ele>
      </trkpt>
      <trkpt lat="42.90369" lon="-0.29453">
        <ele>2208.41796875</ele>
      </trkpt>
      <trkpt lat="42.9038" lon="-0.29474">
        <ele>2220.58203125</ele>
      </trkpt>
      <trkpt lat="42.90358" lon="-0.29472">
        <ele>2220.21875</ele>
      </trkpt>
      <trkpt lat="42.90358" lon="-0.29472">
        <ele>2220.1015625</ele>
      </trkpt>
      <trkpt lat="42.90344" lon="-0.29452">
        <ele>2211.29296875</ele>
      </trkpt>
      <trkpt lat="42.90346" lon="-0.29487">
        <ele>2229.59765625</ele>
      </trkpt>
      <trkpt lat="42.90324" lon="-0.29485">
        <ele>2230.12109375</ele>
      </trkpt>
      <trkpt lat="42.90333" lon="-0.29504">
        <ele>2239.62109375</ele>
      </trkpt>
      <trkpt lat="42.90333" lon="-0.29504">
        <ele>2239.49609375</ele>
      </trkpt>
      <trkpt lat="42.90323" lon="-0.29514">
        <ele>2245.359375</ele>
      </trkpt>
      <trkpt lat="42.90323" lon="-0.29514">
        <ele>2245.24609375</ele>
      </trkpt>
      <trkpt lat="42.90312" lon="-0.29519">
        <ele>2248.1875</ele>
      </trkpt>
      <trkpt lat="42.90297" lon="-0.29519">
        <ele>2249.17578125</ele>
      </trkpt>
      <trkpt lat="42.90287" lon="-0.29535">
        <ele>2256.15234375</ele>
      </trkpt>
      <trkpt lat="42.90239" lon="-0.29556">
        <ele>2266.97265625</ele>
      </trkpt>
      <trkpt lat="42.9021" lon="-0.29586">
        <ele>2280.08203125</ele>
      </trkpt>
      <trkpt lat="42.90172" lon="-0.29596">
        <ele>2282.72265625</ele>
      </trkpt>
      <trkpt lat="42.90152" lon="-0.29616">
        <ele>2285.6484375</ele>
      </trkpt>
      <trkpt lat="42.90152" lon="-0.29615">
        <ele>2285.546875</ele>
      </trkpt>
      <trkpt lat="42.90152" lon="-0.29622">
        <ele>2288.03515625</ele>
      </trkpt>
      <trkpt lat="42.90146" lon="-0.29627">
        <ele>2287.80078125</ele>
      </trkpt>
      <trkpt lat="42.9014" lon="-0.29673">
        <ele>2304.19140625</ele>
      </trkpt>
      <trkpt lat="42.90131" lon="-0.297">
        <ele>2312.59375</ele>
      </trkpt>
      <trkpt lat="42.90118" lon="-0.29717">
        <ele>2315.11328125</ele>
      </trkpt>
      <trkpt lat="42.90103" lon="-0.29758">
        <ele>2327.8125</ele>
      </trkpt>
      <trkpt lat="42.90063" lon="-0.298">
        <ele>2322.4453125</ele>
      </trkpt>
      <trkpt lat="42.90028" lon="-0.29863">
        <ele>2331.0078125</ele>
      </trkpt>
      <trkpt lat="42.90015" lon="-0.29879">
        <ele>2338.02734375</ele>
      </trkpt>
      <trkpt lat="42.9001" lon="-0.2991">
        <ele>2354.5703125</ele>
      </trkpt>
      <trkpt lat="42.89989" lon="-0.2994">
        <ele>2358.1796875</ele>
      </trkpt>
      <trkpt lat="42.89989" lon="-0.2994">
        <ele>2358.1640625</ele>
      </trkpt>
      <trkpt lat="42.89972" lon="-0.29974">
        <ele>2360.0234375</ele>
      </trkpt>
      <trkpt lat="42.89964" lon="-0.29983">
        <ele>2360.0234375</ele>
      </trkpt>
      <trkpt lat="42.89934" lon="-0.29991">
        <ele>2360.0234375</ele>
      </trkpt>
      <trkpt lat="42.89938" lon="-0.30021">
        <ele>2360.0234375</ele>
      </trkpt>
      <trkpt lat="42.89947" lon="-0.30039">
        <ele>2360.0234375</ele>
      </trkpt>
      <trkpt lat="42.89968" lon="-0.30056">
        <ele>2360.0234375</ele>
      </trkpt>
      <trkpt lat="42.89968" lon="-0.30055">
        <ele>2360.0234375</ele>
      </trkpt>
      <trkpt lat="42.89968" lon="-0.30064">
        <ele>2360.0234375</ele>
      </trkpt>
      <trkpt lat="42.89968" lon="-0.30064">
        <ele>2360.0234375</ele>
      </trkpt>
      <trkpt lat="42.89986" lon="-0.30099">
        <ele>2360.0234375</ele>
      </trkpt>
      <trkpt lat="42.89986" lon="-0.30099">
        <ele>2360.0234375</ele>
      </trkpt>
      <trkpt lat="42.89998" lon="-0.30176">
        <ele>2360.203125</ele>
      </trkpt>
      <trkpt lat="42.89998" lon="-0.30219">
        <ele>2361.11328125</ele>
      </trkpt>
      <trkpt lat="42.89981" lon="-0.30369">
        <ele>2367.2734375</ele>
      </trkpt>
      <trkpt lat="42.89964" lon="-0.30453">
        <ele>2374.328125</ele>
      </trkpt>
      <trkpt lat="42.89959" lon="-0.30468">
        <ele>2374.890625</ele>
      </trkpt>
      <trkpt lat="42.89942" lon="-0.30489">
        <ele>2369.1875</ele>
      </trkpt>
      <trkpt lat="42.89938" lon="-0.30528">
        <ele>2373.83203125</ele>
      </trkpt>
      <trkpt lat="42.89931" lon="-0.30528">
        <ele>2370.328125</ele>
      </trkpt>
      <trkpt lat="42.89927" lon="-0.30602">
        <ele>2377.484375</ele>
      </trkpt>
      <trkpt lat="42.89919" lon="-0.30645">
        <ele>2379.62109375</ele>
      </trkpt>
      <trkpt lat="42.89919" lon="-0.30645">
        <ele>2379.72265625</ele>
      </trkpt>
      <trkpt lat="42.89904" lon="-0.30688">
        <ele>2381.20703125</ele>
      </trkpt>
      <trkpt lat="42.89904" lon="-0.30688">
        <ele>2381.046875</ele>
      </trkpt>
      <trkpt lat="42.89888" lon="-0.30717">
        <ele>2379.21875</ele>
      </trkpt>
      <trkpt lat="42.89861" lon="-0.30794">
        <ele>2387.80859375</ele>
      </trkpt>
      <trkpt lat="42.89844" lon="-0.30822">
        <ele>2389.34375</ele>
      </trkpt>
      <trkpt lat="42.89844" lon="-0.30822">
        <ele>2389.41015625</ele>
      </trkpt>
      <trkpt lat="42.89833" lon="-0.30826">
        <ele>2386.65234375</ele>
      </trkpt>
      <trkpt lat="42.89826" lon="-0.30842">
        <ele>2388.44140625</ele>
      </trkpt>
      <trkpt lat="42.89798" lon="-0.30875">
        <ele>2390.02734375</ele>
      </trkpt>
      <trkpt lat="42.89796" lon="-0.30885">
        <ele>2392.7890625</ele>
      </trkpt>
      <trkpt lat="42.89796" lon="-0.30884">
        <ele>2392.6484375</ele>
      </trkpt>
      <trkpt lat="42.89783" lon="-0.30901">
        <ele>2394.015625</ele>
      </trkpt>
      <trkpt lat="42.89777" lon="-0.30909">
        <ele>2394.04296875</ele>
      </trkpt>
      <trkpt lat="42.89772" lon="-0.30926">
        <ele>2398.03515625</ele>
      </trkpt>
      <trkpt lat="42.89766" lon="-0.30933">
        <ele>2390.9</ele>
        <time>2011-03-09T11:03:11Z</time>
      </trkpt>
      <trkpt lat="42.89765" lon="-0.30933">
        <ele>2390.9</ele>
        <time>2011-03-09T11:03:16Z</time>
      </trkpt>
      <trkpt lat="42.89766" lon="-0.30937">
        <ele>2390</ele>
        <time>2011-03-09T11:03:26Z</time>
      </trkpt>
      <trkpt lat="42.89765" lon="-0.30936">
        <ele>2390</ele>
        <time>2011-03-09T11:04:12Z</time>
      </trkpt>
      <trkpt lat="42.89764" lon="-0.30936">
        <ele>2390.9</ele>
        <time>2011-03-09T11:04:52Z</time>
      </trkpt>
      <trkpt lat="42.89757" lon="-0.30946">
        <ele>2391.9</ele>
        <time>2011-03-09T11:05:21Z</time>
      </trkpt>
      <trkpt lat="42.89751" lon="-0.30957">
        <ele>2395.3</ele>
        <time>2011-03-09T11:05:40Z</time>
      </trkpt>
      <trkpt lat="42.89742" lon="-0.30966">
        <ele>2398.1</ele>
        <time>2011-03-09T11:06:02Z</time>
      </trkpt>
      <trkpt lat="42.89733" lon="-0.30973">
        <ele>2400.5</ele>
        <time>2011-03-09T11:06:21Z</time>
      </trkpt>
      <trkpt lat="42.89728" lon="-0.30981">
        <ele>2403.4</ele>
        <time>2011-03-09T11:06:40Z</time>
      </trkpt>
      <trkpt lat="42.89738" lon="-0.30991">
        <ele>2406.8</ele>
        <time>2011-03-09T11:06:59Z</time>
      </trkpt>
      <trkpt lat="42.89738" lon="-0.30994">
        <ele>2408.2</ele>
        <time>2011-03-09T11:07:12Z</time>
      </trkpt>
      <trkpt lat="42.89733" lon="-0.30998">
        <ele>2411.6</ele>
        <time>2011-03-09T11:07:32Z</time>
      </trkpt>
      <trkpt lat="42.89731" lon="-0.31001">
        <ele>2413</ele>
        <time>2011-03-09T11:07:42Z</time>
      </trkpt>
      <trkpt lat="42.89737" lon="-0.31005">
        <ele>2415</ele>
        <time>2011-03-09T11:07:56Z</time>
      </trkpt>
      <trkpt lat="42.89742" lon="-0.31007">
        <ele>2416.9</ele>
        <time>2011-03-09T11:08:08Z</time>
      </trkpt>
      <trkpt lat="42.89747" lon="-0.31011">
        <ele>2418.8</ele>
        <time>2011-03-09T11:08:20Z</time>
      </trkpt>
      <trkpt lat="42.89749" lon="-0.31013">
        <ele>2420.7</ele>
        <time>2011-03-09T11:08:32Z</time>
      </trkpt>
      <trkpt lat="42.89743" lon="-0.31018">
        <ele>2423.1</ele>
        <time>2011-03-09T11:08:49Z</time>
      </trkpt>
      <trkpt lat="42.89738" lon="-0.31025">
        <ele>2425.5</ele>
        <time>2011-03-09T11:09:05Z</time>
      </trkpt>
      <trkpt lat="42.89732" lon="-0.31031">
        <ele>2428.4</ele>
        <time>2011-03-09T11:09:22Z</time>
      </trkpt>
      <trkpt lat="42.89735" lon="-0.31037">
        <ele>2430.4</ele>
        <time>2011-03-09T11:09:34Z</time>
      </trkpt>
      <trkpt lat="42.89742" lon="-0.31044">
        <ele>2433.2</ele>
        <time>2011-03-09T11:09:48Z</time>
      </trkpt>
      <trkpt lat="42.89748" lon="-0.31046">
        <ele>2435.6</ele>
        <time>2011-03-09T11:10:00Z</time>
      </trkpt>
      <trkpt lat="42.89743" lon="-0.31051">
        <ele>2438</ele>
        <time>2011-03-09T11:10:15Z</time>
      </trkpt>
      <trkpt lat="42.89737" lon="-0.31057">
        <ele>2440.4</ele>
        <time>2011-03-09T11:10:32Z</time>
      </trkpt>
      <trkpt lat="42.89732" lon="-0.31063">
        <ele>2442.8</ele>
        <time>2011-03-09T11:10:46Z</time>
      </trkpt>
      <trkpt lat="42.89728" lon="-0.31068">
        <ele>2443.8</ele>
        <time>2011-03-09T11:10:57Z</time>
      </trkpt>
      <trkpt lat="42.89734" lon="-0.31077">
        <ele>2447.2</ele>
        <time>2011-03-09T11:11:13Z</time>
      </trkpt>
      <trkpt lat="42.89737" lon="-0.31081">
        <ele>2449.1</ele>
        <time>2011-03-09T11:11:27Z</time>
      </trkpt>
      <trkpt lat="42.89732" lon="-0.31086">
        <ele>2451.5</ele>
        <time>2011-03-09T11:11:42Z</time>
      </trkpt>
      <trkpt lat="42.89723" lon="-0.3109">
        <ele>2454.4</ele>
        <time>2011-03-09T11:12:02Z</time>
      </trkpt>
      <trkpt lat="42.89716" lon="-0.31091">
        <ele>2456.8</ele>
        <time>2011-03-09T11:12:24Z</time>
      </trkpt>
      <trkpt lat="42.8972" lon="-0.31097">
        <ele>2458.2</ele>
        <time>2011-03-09T11:12:38Z</time>
      </trkpt>
      <trkpt lat="42.89721" lon="-0.31104">
        <ele>2460.2</ele>
        <time>2011-03-09T11:12:44Z</time>
      </trkpt>
      <trkpt lat="42.89723" lon="-0.31118">
        <ele>2462.1</ele>
        <time>2011-03-09T11:13:00Z</time>
      </trkpt>
      <trkpt lat="42.89719" lon="-0.31124">
        <ele>2464.5</ele>
        <time>2011-03-09T11:13:16Z</time>
      </trkpt>
      <trkpt lat="42.89712" lon="-0.31141">
        <ele>2467.4</ele>
        <time>2011-03-09T11:13:38Z</time>
      </trkpt>
      <trkpt lat="42.89705" lon="-0.31157">
        <ele>2470.2</ele>
        <time>2011-03-09T11:13:57Z</time>
      </trkpt>
      <trkpt lat="42.89697" lon="-0.31171">
        <ele>2473.6</ele>
        <time>2011-03-09T11:14:16Z</time>
      </trkpt>
      <trkpt lat="42.89688" lon="-0.31181">
        <ele>2475.5</ele>
        <time>2011-03-09T11:14:39Z</time>
      </trkpt>
      <trkpt lat="42.89675" lon="-0.31191">
        <ele>2478.4</ele>
        <time>2011-03-09T11:15:03Z</time>
      </trkpt>
      <trkpt lat="42.89664" lon="-0.31197">
        <ele>2481.8</ele>
        <time>2011-03-09T11:15:22Z</time>
      </trkpt>
      <trkpt lat="42.89656" lon="-0.31206">
        <ele>2485.1</ele>
        <time>2011-03-09T11:15:39Z</time>
      </trkpt>
      <trkpt lat="42.89654" lon="-0.31205">
        <ele>2486.1</ele>
        <time>2011-03-09T11:15:57Z</time>
      </trkpt>
      <trkpt lat="42.89654" lon="-0.31205">
        <ele>2483.2</ele>
        <time>2011-03-09T11:16:04Z</time>
      </trkpt>
      <trkpt lat="42.89654" lon="-0.31205">
        <ele>2486.1</ele>
        <time>2011-03-09T11:16:06Z</time>
      </trkpt>
      <trkpt lat="42.89654" lon="-0.31206">
        <ele>2486.1</ele>
        <time>2011-03-09T11:16:07Z</time>
      </trkpt>
      <trkpt lat="42.8965" lon="-0.3121">
        <ele>2487.1</ele>
        <time>2011-03-09T11:16:22Z</time>
      </trkpt>
      <trkpt lat="42.89643" lon="-0.31219">
        <ele>2490</ele>
        <time>2011-03-09T11:16:36Z</time>
      </trkpt>
      <trkpt lat="42.89635" lon="-0.3123">
        <ele>2493.3</ele>
        <time>2011-03-09T11:16:53Z</time>
      </trkpt>
      <trkpt lat="42.89624" lon="-0.31241">
        <ele>2496.2</ele>
        <time>2011-03-09T11:17:13Z</time>
      </trkpt>
      <trkpt lat="42.89615" lon="-0.31257">
        <ele>2498.6</ele>
        <time>2011-03-09T11:17:37Z</time>
      </trkpt>
      <trkpt lat="42.89607" lon="-0.31279">
        <ele>2497.2</ele>
        <time>2011-03-09T11:17:51Z</time>
      </trkpt>
      <trkpt lat="42.89602" lon="-0.31291">
        <ele>2499.6</ele>
        <time>2011-03-09T11:18:07Z</time>
      </trkpt>
      <trkpt lat="42.89593" lon="-0.31304">
        <ele>2502.9</ele>
        <time>2011-03-09T11:18:27Z</time>
      </trkpt>
      <trkpt lat="42.89586" lon="-0.31313">
        <ele>2506.3</ele>
        <time>2011-03-09T11:18:46Z</time>
      </trkpt>
      <trkpt lat="42.89577" lon="-0.3132">
        <ele>2509.2</ele>
        <time>2011-03-09T11:19:05Z</time>
      </trkpt>
      <trkpt lat="42.89569" lon="-0.31335">
        <ele>2512.5</ele>
        <time>2011-03-09T11:19:28Z</time>
      </trkpt>
      <trkpt lat="42.89566" lon="-0.31347">
        <ele>2514.5</ele>
        <time>2011-03-09T11:19:43Z</time>
      </trkpt>
      <trkpt lat="42.89559" lon="-0.31357">
        <ele>2517.8</ele>
        <time>2011-03-09T11:20:00Z</time>
      </trkpt>
      <trkpt lat="42.89554" lon="-0.31366">
        <ele>2520.7</ele>
        <time>2011-03-09T11:20:19Z</time>
      </trkpt>
      <trkpt lat="42.89548" lon="-0.31372">
        <ele>2522.6</ele>
        <time>2011-03-09T11:20:42Z</time>
      </trkpt>
      <trkpt lat="42.89545" lon="-0.31388">
        <ele>2526</ele>
        <time>2011-03-09T11:21:00Z</time>
      </trkpt>
      <trkpt lat="42.89544" lon="-0.31403">
        <ele>2528.4</ele>
        <time>2011-03-09T11:21:14Z</time>
      </trkpt>
      <trkpt lat="42.89546" lon="-0.31416">
        <ele>2531.8</ele>
        <time>2011-03-09T11:21:32Z</time>
      </trkpt>
      <trkpt lat="42.89546" lon="-0.31425">
        <ele>2534.2</ele>
        <time>2011-03-09T11:21:45Z</time>
      </trkpt>
      <trkpt lat="42.89545" lon="-0.31433">
        <ele>2537.1</ele>
        <time>2011-03-09T11:22:01Z</time>
      </trkpt>
      <trkpt lat="42.89545" lon="-0.31435">
        <ele>2535.1</ele>
        <time>2011-03-09T11:22:06Z</time>
      </trkpt>
      <trkpt lat="42.89545" lon="-0.31435">
        <ele>2538.5</ele>
        <time>2011-03-09T11:22:07Z</time>
      </trkpt>
      <trkpt lat="42.89545" lon="-0.31435">
        <ele>2537.5</ele>
        <time>2011-03-09T11:22:08Z</time>
      </trkpt>
      <trkpt lat="42.89545" lon="-0.31435">
        <ele>2536.6</ele>
        <time>2011-03-09T11:22:13Z</time>
      </trkpt>
      <trkpt lat="42.89543" lon="-0.31444">
        <ele>2539.5</ele>
        <time>2011-03-09T11:22:53Z</time>
      </trkpt>
      <trkpt lat="42.89544" lon="-0.31448">
        <ele>2540.4</ele>
        <time>2011-03-09T11:22:58Z</time>
      </trkpt>
      <trkpt lat="42.89546" lon="-0.31448">
        <ele>2540.9</ele>
        <time>2011-03-09T11:23:00Z</time>
      </trkpt>
      <trkpt lat="42.89554" lon="-0.3145">
        <ele>2543.3</ele>
        <time>2011-03-09T11:23:12Z</time>
      </trkpt>
      <trkpt lat="42.89564" lon="-0.31453">
        <ele>2546.2</ele>
        <time>2011-03-09T11:23:30Z</time>
      </trkpt>
      <trkpt lat="42.89559" lon="-0.31461">
        <ele>2548.6</ele>
        <time>2011-03-09T11:23:47Z</time>
      </trkpt>
      <trkpt lat="42.89554" lon="-0.31473">
        <ele>2552</ele>
        <time>2011-03-09T11:24:04Z</time>
      </trkpt>
      <trkpt lat="42.89547" lon="-0.31481">
        <ele>2554.8</ele>
        <time>2011-03-09T11:24:22Z</time>
      </trkpt>
      <trkpt lat="42.89549" lon="-0.31484">
        <ele>2556.3</ele>
        <time>2011-03-09T11:24:36Z</time>
      </trkpt>
      <trkpt lat="42.89554" lon="-0.31487">
        <ele>2558.2</ele>
        <time>2011-03-09T11:24:49Z</time>
      </trkpt>
      <trkpt lat="42.89564" lon="-0.31486">
        <ele>2560.1</ele>
        <time>2011-03-09T11:25:00Z</time>
      </trkpt>
      <trkpt lat="42.89564" lon="-0.31489">
        <ele>2561.1</ele>
        <time>2011-03-09T11:25:10Z</time>
      </trkpt>
      <trkpt lat="42.89558" lon="-0.31494">
        <ele>2563</ele>
        <time>2011-03-09T11:25:23Z</time>
      </trkpt>
      <trkpt lat="42.8955" lon="-0.31498">
        <ele>2564.9</ele>
        <time>2011-03-09T11:25:38Z</time>
      </trkpt>
      <trkpt lat="42.89548" lon="-0.31502">
        <ele>2566.9</ele>
        <time>2011-03-09T11:25:54Z</time>
      </trkpt>
      <trkpt lat="42.89553" lon="-0.31505">
        <ele>2569.3</ele>
        <time>2011-03-09T11:26:10Z</time>
      </trkpt>
      <trkpt lat="42.89563" lon="-0.31511">
        <ele>2570.7</ele>
        <time>2011-03-09T11:26:23Z</time>
      </trkpt>
      <trkpt lat="42.89559" lon="-0.31515">
        <ele>2571.7</ele>
        <time>2011-03-09T11:26:34Z</time>
      </trkpt>
      <trkpt lat="42.89553" lon="-0.31519">
        <ele>2575</ele>
        <time>2011-03-09T11:26:51Z</time>
      </trkpt>
      <trkpt lat="42.89548" lon="-0.31525">
        <ele>2576.5</ele>
        <time>2011-03-09T11:27:08Z</time>
      </trkpt>
      <trkpt lat="42.89548" lon="-0.31526">
        <ele>2579.4</ele>
        <time>2011-03-09T11:27:27Z</time>
      </trkpt>
      <trkpt lat="42.89565" lon="-0.31528">
        <ele>2581.8</ele>
        <time>2011-03-09T11:27:47Z</time>
      </trkpt>
      <trkpt lat="42.89561" lon="-0.31528">
        <ele>2583.2</ele>
        <time>2011-03-09T11:28:02Z</time>
      </trkpt>
      <trkpt lat="42.89555" lon="-0.31534">
        <ele>2585.6</ele>
        <time>2011-03-09T11:28:17Z</time>
      </trkpt>
      <trkpt lat="42.8955" lon="-0.3154">
        <ele>2588</ele>
        <time>2011-03-09T11:28:32Z</time>
      </trkpt>
      <trkpt lat="42.89551" lon="-0.31546">
        <ele>2589.9</ele>
        <time>2011-03-09T11:28:48Z</time>
      </trkpt>
      <trkpt lat="42.89552" lon="-0.31549">
        <ele>2592.8</ele>
        <time>2011-03-09T11:29:05Z</time>
      </trkpt>
      <trkpt lat="42.89562" lon="-0.31551">
        <ele>2594.7</ele>
        <time>2011-03-09T11:29:16Z</time>
      </trkpt>
      <trkpt lat="42.89561" lon="-0.31554">
        <ele>2596.2</ele>
        <time>2011-03-09T11:29:28Z</time>
      </trkpt>
      <trkpt lat="42.89553" lon="-0.31561">
        <ele>2598.6</ele>
        <time>2011-03-09T11:29:46Z</time>
      </trkpt>
      <trkpt lat="42.89548" lon="-0.31565">
        <ele>2601</ele>
        <time>2011-03-09T11:30:01Z</time>
      </trkpt>
      <trkpt lat="42.89547" lon="-0.31569">
        <ele>2602.4</ele>
        <time>2011-03-09T11:30:13Z</time>
      </trkpt>
      <trkpt lat="42.89552" lon="-0.31572">
        <ele>2603.4</ele>
        <time>2011-03-09T11:30:20Z</time>
      </trkpt>
      <trkpt lat="42.89556" lon="-0.31576">
        <ele>2605.3</ele>
        <time>2011-03-09T11:30:32Z</time>
      </trkpt>
      <trkpt lat="42.89561" lon="-0.31578">
        <ele>2606.8</ele>
        <time>2011-03-09T11:30:44Z</time>
      </trkpt>
      <trkpt lat="42.89557" lon="-0.31581">
        <ele>2609.6</ele>
        <time>2011-03-09T11:31:01Z</time>
      </trkpt>
      <trkpt lat="42.89552" lon="-0.31586">
        <ele>2612</ele>
        <time>2011-03-09T11:31:17Z</time>
      </trkpt>
      <trkpt lat="42.89549" lon="-0.3159">
        <ele>2613.5</ele>
        <time>2011-03-09T11:31:32Z</time>
      </trkpt>
      <trkpt lat="42.89554" lon="-0.31595">
        <ele>2615.9</ele>
        <time>2011-03-09T11:31:46Z</time>
      </trkpt>
      <trkpt lat="42.8956" lon="-0.31598">
        <ele>2618.3</ele>
        <time>2011-03-09T11:32:00Z</time>
      </trkpt>
      <trkpt lat="42.89559" lon="-0.31601">
        <ele>2619.7</ele>
        <time>2011-03-09T11:32:14Z</time>
      </trkpt>
      <trkpt lat="42.89553" lon="-0.31607">
        <ele>2622.1</ele>
        <time>2011-03-09T11:32:32Z</time>
      </trkpt>
      <trkpt lat="42.89554" lon="-0.3161">
        <ele>2624.1</ele>
        <time>2011-03-09T11:32:43Z</time>
      </trkpt>
      <trkpt lat="42.89561" lon="-0.31614">
        <ele>2625.5</ele>
        <time>2011-03-09T11:32:53Z</time>
      </trkpt>
      <trkpt lat="42.89559" lon="-0.31617">
        <ele>2627.9</ele>
        <time>2011-03-09T11:33:14Z</time>
      </trkpt>
      <trkpt lat="42.89554" lon="-0.31621">
        <ele>2629.8</ele>
        <time>2011-03-09T11:33:31Z</time>
      </trkpt>
      <trkpt lat="42.89555" lon="-0.31622">
        <ele>2631.3</ele>
        <time>2011-03-09T11:33:43Z</time>
      </trkpt>
      <trkpt lat="42.89551" lon="-0.31622">
        <ele>2633.2</ele>
        <time>2011-03-09T11:34:28Z</time>
      </trkpt>
      <trkpt lat="42.8955" lon="-0.31622">
        <ele>2633.7</ele>
        <time>2011-03-09T11:34:51Z</time>
      </trkpt>
      <trkpt lat="42.8955" lon="-0.31622">
        <ele>2632.7</ele>
        <time>2011-03-09T11:35:05Z</time>
      </trkpt>
      <trkpt lat="42.8955" lon="-0.31622">
        <ele>2633.2</ele>
        <time>2011-03-09T11:35:25Z</time>
      </trkpt>
      <trkpt lat="42.89546" lon="-0.3162">
        <ele>2630.8</ele>
        <time>2011-03-09T11:40:52Z</time>
      </trkpt>
      <trkpt lat="42.89545" lon="-0.31622">
        <ele>2630.3</ele>
        <time>2011-03-09T11:40:54Z</time>
      </trkpt>
      <trkpt lat="42.89543" lon="-0.31624">
        <ele>2629.3</ele>
        <time>2011-03-09T11:40:56Z</time>
      </trkpt>
      <trkpt lat="42.89546" lon="-0.31627">
        <ele>2625</ele>
        <time>2011-03-09T11:40:59Z</time>
      </trkpt>
      <trkpt lat="42.89546" lon="-0.31629">
        <ele>2625</ele>
        <time>2011-03-09T11:41:00Z</time>
      </trkpt>
      <trkpt lat="42.89546" lon="-0.31633">
        <ele>2622.6</ele>
        <time>2011-03-09T11:41:02Z</time>
      </trkpt>
      <trkpt lat="42.89548" lon="-0.31638">
        <ele>2619.7</ele>
        <time>2011-03-09T11:41:05Z</time>
      </trkpt>
      <trkpt lat="42.89548" lon="-0.3164">
        <ele>2618.8</ele>
        <time>2011-03-09T11:41:08Z</time>
      </trkpt>
      <trkpt lat="42.89545" lon="-0.31645">
        <ele>2616.4</ele>
        <time>2011-03-09T11:41:11Z</time>
      </trkpt>
      <trkpt lat="42.89551" lon="-0.31654">
        <ele>2613</ele>
        <time>2011-03-09T11:41:17Z</time>
      </trkpt>
      <trkpt lat="42.89552" lon="-0.31658">
        <ele>2609.6</ele>
        <time>2011-03-09T11:41:20Z</time>
      </trkpt>
      <trkpt lat="42.8955" lon="-0.31661">
        <ele>2606.3</ele>
        <time>2011-03-09T11:41:27Z</time>
      </trkpt>
      <trkpt lat="42.8955" lon="-0.31661">
        <ele>2604.8</ele>
        <time>2011-03-09T11:41:51Z</time>
      </trkpt>
      <trkpt lat="42.89543" lon="-0.31666">
        <ele>2601</ele>
        <time>2011-03-09T11:41:56Z</time>
      </trkpt>
      <trkpt lat="42.89537" lon="-0.3167">
        <ele>2600</ele>
        <time>2011-03-09T11:41:59Z</time>
      </trkpt>
      <trkpt lat="42.89517" lon="-0.31677">
        <ele>2595.7</ele>
        <time>2011-03-09T11:42:03Z</time>
      </trkpt>
      <trkpt lat="42.89483" lon="-0.31693">
        <ele>2593.8</ele>
        <time>2011-03-09T11:42:13Z</time>
      </trkpt>
      <trkpt lat="42.8945" lon="-0.31703">
        <ele>2590.9</ele>
        <time>2011-03-09T11:42:24Z</time>
      </trkpt>
      <trkpt lat="42.89431" lon="-0.31713">
        <ele>2589.9</ele>
        <time>2011-03-09T11:42:34Z</time>
      </trkpt>
      <trkpt lat="42.8943" lon="-0.31713">
        <ele>2589.9</ele>
        <time>2011-03-09T11:43:03Z</time>
      </trkpt>
      <trkpt lat="42.89413" lon="-0.31717">
        <ele>2586.6</ele>
        <time>2011-03-09T11:43:08Z</time>
      </trkpt>
      <trkpt lat="42.89402" lon="-0.31722">
        <ele>2585.6</ele>
        <time>2011-03-09T11:43:10Z</time>
      </trkpt>
      <trkpt lat="42.8937" lon="-0.31747">
        <ele>2583.7</ele>
        <time>2011-03-09T11:43:22Z</time>
      </trkpt>
      <trkpt lat="42.8936" lon="-0.31759">
        <ele>2583.2</ele>
        <time>2011-03-09T11:43:35Z</time>
      </trkpt>
      <trkpt lat="42.89352" lon="-0.31769">
        <ele>2583.2</ele>
        <time>2011-03-09T11:43:52Z</time>
      </trkpt>
      <trkpt lat="42.89345" lon="-0.3178">
        <ele>2584.2</ele>
        <time>2011-03-09T11:44:07Z</time>
      </trkpt>
      <trkpt lat="42.89332" lon="-0.31792">
        <ele>2588</ele>
        <time>2011-03-09T11:49:38Z</time>
      </trkpt>
      <trkpt lat="42.89323" lon="-0.31798">
        <ele>2590.4</ele>
        <time>2011-03-09T11:49:56Z</time>
      </trkpt>
      <trkpt lat="42.8932" lon="-0.31797">
        <ele>2591.4</ele>
        <time>2011-03-09T11:50:13Z</time>
      </trkpt>
      <trkpt lat="42.89322" lon="-0.31794">
        <ele>2593.8</ele>
        <time>2011-03-09T11:50:25Z</time>
      </trkpt>
      <trkpt lat="42.89324" lon="-0.31783">
        <ele>2596.7</ele>
        <time>2011-03-09T11:50:44Z</time>
      </trkpt>
      <trkpt lat="42.89325" lon="-0.3177">
        <ele>2599.5</ele>
        <time>2011-03-09T11:51:04Z</time>
      </trkpt>
      <trkpt lat="42.89321" lon="-0.31765">
        <ele>2602.4</ele>
        <time>2011-03-09T11:51:21Z</time>
      </trkpt>
      <trkpt lat="42.89312" lon="-0.31768">
        <ele>2605.3</ele>
        <time>2011-03-09T11:51:39Z</time>
      </trkpt>
      <trkpt lat="42.89302" lon="-0.3177">
        <ele>2607.7</ele>
        <time>2011-03-09T11:51:56Z</time>
      </trkpt>
      <trkpt lat="42.89295" lon="-0.31773">
        <ele>2609.6</ele>
        <time>2011-03-09T11:52:12Z</time>
      </trkpt>
      <trkpt lat="42.89286" lon="-0.31773">
        <ele>2613</ele>
        <time>2011-03-09T11:52:31Z</time>
      </trkpt>
      <trkpt lat="42.89289" lon="-0.31768">
        <ele>2614.9</ele>
        <time>2011-03-09T11:52:43Z</time>
      </trkpt>
      <trkpt lat="42.89295" lon="-0.31758">
        <ele>2617.8</ele>
        <time>2011-03-09T11:53:03Z</time>
      </trkpt>
      <trkpt lat="42.89298" lon="-0.31745">
        <ele>2620.7</ele>
        <time>2011-03-09T11:53:22Z</time>
      </trkpt>
      <trkpt lat="42.89292" lon="-0.31744">
        <ele>2623.1</ele>
        <time>2011-03-09T11:53:38Z</time>
      </trkpt>
      <trkpt lat="42.89281" lon="-0.31746">
        <ele>2626.5</ele>
        <time>2011-03-09T11:53:58Z</time>
      </trkpt>
      <trkpt lat="42.89276" lon="-0.31744">
        <ele>2629.3</ele>
        <time>2011-03-09T11:54:18Z</time>
      </trkpt>
      <trkpt lat="42.89281" lon="-0.31736">
        <ele>2631.3</ele>
        <time>2011-03-09T11:54:35Z</time>
      </trkpt>
      <trkpt lat="42.89285" lon="-0.31727">
        <ele>2633.7</ele>
        <time>2011-03-09T11:54:52Z</time>
      </trkpt>
      <trkpt lat="42.89279" lon="-0.31728">
        <ele>2635.6</ele>
        <time>2011-03-09T11:55:14Z</time>
      </trkpt>
      <trkpt lat="42.8927" lon="-0.31729">
        <ele>2638</ele>
        <time>2011-03-09T11:55:30Z</time>
      </trkpt>
      <trkpt lat="42.89261" lon="-0.31728">
        <ele>2641.4</ele>
        <time>2011-03-09T11:55:48Z</time>
      </trkpt>
      <trkpt lat="42.89256" lon="-0.31729">
        <ele>2642.8</ele>
        <time>2011-03-09T11:56:12Z</time>
      </trkpt>
      <trkpt lat="42.89247" lon="-0.31727">
        <ele>2646.2</ele>
        <time>2011-03-09T11:56:27Z</time>
      </trkpt>
      <trkpt lat="42.89238" lon="-0.31723">
        <ele>2649.1</ele>
        <time>2011-03-09T11:56:44Z</time>
      </trkpt>
      <trkpt lat="42.8923" lon="-0.31721">
        <ele>2651.5</ele>
        <time>2011-03-09T11:57:06Z</time>
      </trkpt>
      <trkpt lat="42.89224" lon="-0.31721">
        <ele>2654.3</ele>
        <time>2011-03-09T11:57:19Z</time>
      </trkpt>
      <trkpt lat="42.89217" lon="-0.31716">
        <ele>2657.7</ele>
        <time>2011-03-09T11:57:40Z</time>
      </trkpt>
      <trkpt lat="42.89222" lon="-0.31706">
        <ele>2660.6</ele>
        <time>2011-03-09T11:57:56Z</time>
      </trkpt>
      <trkpt lat="42.89223" lon="-0.31704">
        <ele>2660.6</ele>
        <time>2011-03-09T11:58:29Z</time>
      </trkpt>
      <trkpt lat="42.89229" lon="-0.31693">
        <ele>2664</ele>
        <time>2011-03-09T11:59:03Z</time>
      </trkpt>
      <trkpt lat="42.89236" lon="-0.31685">
        <ele>2666.8</ele>
        <time>2011-03-09T11:59:17Z</time>
      </trkpt>
      <trkpt lat="42.8924" lon="-0.31679">
        <ele>2670.2</ele>
        <time>2011-03-09T11:59:31Z</time>
      </trkpt>
      <trkpt lat="42.8923" lon="-0.31672">
        <ele>2672.6</ele>
        <time>2011-03-09T11:59:48Z</time>
      </trkpt>
      <trkpt lat="42.89222" lon="-0.31668">
        <ele>2676</ele>
        <time>2011-03-09T12:00:04Z</time>
      </trkpt>
      <trkpt lat="42.89214" lon="-0.31664">
        <ele>2678.4</ele>
        <time>2011-03-09T12:00:20Z</time>
      </trkpt>
      <trkpt lat="42.89206" lon="-0.31661">
        <ele>2681.3</ele>
        <time>2011-03-09T12:00:35Z</time>
      </trkpt>
      <trkpt lat="42.89195" lon="-0.31659">
        <ele>2684.6</ele>
        <time>2011-03-09T12:00:54Z</time>
      </trkpt>
      <trkpt lat="42.89189" lon="-0.3166">
        <ele>2687</ele>
        <time>2011-03-09T12:01:15Z</time>
      </trkpt>
      <trkpt lat="42.89189" lon="-0.31659">
        <ele>2687.5</ele>
        <time>2011-03-09T12:01:36Z</time>
      </trkpt>
      <trkpt lat="42.89181" lon="-0.31657">
        <ele>2689.9</ele>
        <time>2011-03-09T12:02:01Z</time>
      </trkpt>
      <trkpt lat="42.89173" lon="-0.31658">
        <ele>2692.8</ele>
        <time>2011-03-09T12:02:16Z</time>
      </trkpt>
      <trkpt lat="42.89167" lon="-0.31657">
        <ele>2694.7</ele>
        <time>2011-03-09T12:02:38Z</time>
      </trkpt>
      <trkpt lat="42.89164" lon="-0.31653">
        <ele>2697.6</ele>
        <time>2011-03-09T12:02:51Z</time>
      </trkpt>
      <trkpt lat="42.89167" lon="-0.31641">
        <ele>2701</ele>
        <time>2011-03-09T12:03:08Z</time>
      </trkpt>
      <trkpt lat="42.8917" lon="-0.31629">
        <ele>2703.8</ele>
        <time>2011-03-09T12:03:26Z</time>
      </trkpt>
      <trkpt lat="42.89174" lon="-0.3162">
        <ele>2706.7</ele>
        <time>2011-03-09T12:03:42Z</time>
      </trkpt>
      <trkpt lat="42.89171" lon="-0.31612">
        <ele>2709.1</ele>
        <time>2011-03-09T12:03:57Z</time>
      </trkpt>
      <trkpt lat="42.8916" lon="-0.3161">
        <ele>2712</ele>
        <time>2011-03-09T12:04:15Z</time>
      </trkpt>
      <trkpt lat="42.8915" lon="-0.31611">
        <ele>2714.4</ele>
        <time>2011-03-09T12:04:32Z</time>
      </trkpt>
      <trkpt lat="42.89139" lon="-0.31612">
        <ele>2717.3</ele>
        <time>2011-03-09T12:04:51Z</time>
      </trkpt>
      <trkpt lat="42.89131" lon="-0.31612">
        <ele>2720.7</ele>
        <time>2011-03-09T12:05:07Z</time>
      </trkpt>
      <trkpt lat="42.89124" lon="-0.31609">
        <ele>2723.6</ele>
        <time>2011-03-09T12:05:24Z</time>
      </trkpt>
      <trkpt lat="42.89126" lon="-0.31594">
        <ele>2726.9</ele>
        <time>2011-03-09T12:05:47Z</time>
      </trkpt>
      <trkpt lat="42.89126" lon="-0.3158">
        <ele>2730.3</ele>
        <time>2011-03-09T12:06:07Z</time>
      </trkpt>
      <trkpt lat="42.8911" lon="-0.31581">
        <ele>2733.2</ele>
        <time>2011-03-09T12:06:27Z</time>
      </trkpt>
      <trkpt lat="42.89096" lon="-0.3159">
        <ele>2736</ele>
        <time>2011-03-09T12:06:53Z</time>
      </trkpt>
      <trkpt lat="42.8909" lon="-0.31593">
        <ele>2739.4</ele>
        <time>2011-03-09T12:07:07Z</time>
      </trkpt>
      <trkpt lat="42.89088" lon="-0.31593">
        <ele>2740.9</ele>
        <time>2011-03-09T12:07:20Z</time>
      </trkpt>
      <trkpt lat="42.89084" lon="-0.31601">
        <ele>2742.8</ele>
        <time>2011-03-09T12:07:41Z</time>
      </trkpt>
      <trkpt lat="42.89082" lon="-0.31598">
        <ele>2743.7</ele>
        <time>2011-03-09T12:08:01Z</time>
      </trkpt>
      <trkpt lat="42.89082" lon="-0.31596">
        <ele>2744.2</ele>
        <time>2011-03-09T12:08:39Z</time>
      </trkpt>
      <trkpt lat="42.8908" lon="-0.31596">
        <ele>2744.2</ele>
        <time>2011-03-09T12:09:16Z</time>
      </trkpt>
      <trkpt lat="42.89075" lon="-0.31595">
        <ele>2744.7</ele>
        <time>2011-03-09T12:09:30Z</time>
      </trkpt>
      <trkpt lat="42.89063" lon="-0.3159">
        <ele>2743.7</ele>
        <time>2011-03-09T12:09:52Z</time>
      </trkpt>
      <trkpt lat="42.89053" lon="-0.31586">
        <ele>2743.3</ele>
        <time>2011-03-09T12:10:04Z</time>
      </trkpt>
      <trkpt lat="42.89047" lon="-0.3158">
        <ele>2746.6</ele>
        <time>2011-03-09T12:10:22Z</time>
      </trkpt>
      <trkpt lat="42.89045" lon="-0.3158">
        <ele>2748.5</ele>
        <time>2011-03-09T12:11:06Z</time>
      </trkpt>
      <trkpt lat="42.89042" lon="-0.31579">
        <ele>2750</ele>
        <time>2011-03-09T12:11:26Z</time>
      </trkpt>
      <trkpt lat="42.89042" lon="-0.31577">
        <ele>2750.5</ele>
        <time>2011-03-09T12:11:51Z</time>
      </trkpt>
      <trkpt lat="42.89042" lon="-0.31575">
        <ele>2751.4</ele>
        <time>2011-03-09T12:12:05Z</time>
      </trkpt>
      <trkpt lat="42.89041" lon="-0.31572">
        <ele>2752.9</ele>
        <time>2011-03-09T12:12:18Z</time>
      </trkpt>
      <trkpt lat="42.8904" lon="-0.31569">
        <ele>2753.4</ele>
        <time>2011-03-09T12:12:34Z</time>
      </trkpt>
      <trkpt lat="42.89039" lon="-0.31567">
        <ele>2753.8</ele>
        <time>2011-03-09T12:12:52Z</time>
      </trkpt>
      <trkpt lat="42.89034" lon="-0.31567">
        <ele>2754.3</ele>
        <time>2011-03-09T12:13:10Z</time>
      </trkpt>
      <trkpt lat="42.89029" lon="-0.31567">
        <ele>2755.3</ele>
        <time>2011-03-09T12:13:24Z</time>
      </trkpt>
      <trkpt lat="42.89027" lon="-0.31568">
        <ele>2757.2</ele>
        <time>2011-03-09T12:13:51Z</time>
      </trkpt>
      <trkpt lat="42.89027" lon="-0.31569">
        <ele>2757.2</ele>
        <time>2011-03-09T12:15:18Z</time>
      </trkpt>
      <trkpt lat="42.89033" lon="-0.31567">
        <ele>2753.8</ele>
        <time>2011-03-09T12:15:55Z</time>
      </trkpt>
      <trkpt lat="42.8904" lon="-0.31575">
        <ele>2751.9</ele>
        <time>2011-03-09T12:16:17Z</time>
      </trkpt>
      <trkpt lat="42.89042" lon="-0.31579">
        <ele>2750</ele>
        <time>2011-03-09T12:16:34Z</time>
      </trkpt>
      <trkpt lat="42.89045" lon="-0.3158">
        <ele>2748.1</ele>
        <time>2011-03-09T12:16:55Z</time>
      </trkpt>
      <trkpt lat="42.89048" lon="-0.31583">
        <ele>2744.7</ele>
        <time>2011-03-09T12:17:04Z</time>
      </trkpt>
      <trkpt lat="42.89059" lon="-0.31587">
        <ele>2742.3</ele>
        <time>2011-03-09T12:17:20Z</time>
      </trkpt>
      <trkpt lat="42.89066" lon="-0.3159">
        <ele>2742.8</ele>
        <time>2011-03-09T12:17:38Z</time>
      </trkpt>
      <trkpt lat="42.8907" lon="-0.31591">
        <ele>2742.8</ele>
        <time>2011-03-09T12:17:54Z</time>
      </trkpt>
      <trkpt lat="42.89072" lon="-0.31592">
        <ele>2742.8</ele>
        <time>2011-03-09T12:18:08Z</time>
      </trkpt>
      <trkpt lat="42.89076" lon="-0.31593">
        <ele>2743.7</ele>
        <time>2011-03-09T12:18:23Z</time>
      </trkpt>
      <trkpt lat="42.89076" lon="-0.31594">
        <ele>2743.7</ele>
        <time>2011-03-09T12:18:43Z</time>
      </trkpt>
      <trkpt lat="42.89076" lon="-0.31594">
        <ele>2743.7</ele>
        <time>2011-03-09T12:19:08Z</time>
      </trkpt>
      <trkpt lat="42.8908" lon="-0.31596">
        <ele>2744.2</ele>
        <time>2011-03-09T12:27:02Z</time>
      </trkpt>
      <trkpt lat="42.8908" lon="-0.31597">
        <ele>2744.7</ele>
        <time>2011-03-09T12:27:32Z</time>
      </trkpt>
      <trkpt lat="42.89082" lon="-0.31598">
        <ele>2744.7</ele>
        <time>2011-03-09T12:28:33Z</time>
      </trkpt>
      <trkpt lat="42.89083" lon="-0.31597">
        <ele>2745.2</ele>
        <time>2011-03-09T12:29:16Z</time>
      </trkpt>
      <trkpt lat="42.89085" lon="-0.31598">
        <ele>2744.7</ele>
        <time>2011-03-09T12:29:35Z</time>
      </trkpt>
      <trkpt lat="42.89085" lon="-0.316">
        <ele>2744.7</ele>
        <time>2011-03-09T12:29:54Z</time>
      </trkpt>
      <trkpt lat="42.89086" lon="-0.31602">
        <ele>2744.2</ele>
        <time>2011-03-09T12:30:00Z</time>
      </trkpt>
      <trkpt lat="42.89094" lon="-0.316">
        <ele>2739.4</ele>
        <time>2011-03-09T12:30:03Z</time>
      </trkpt>
      <trkpt lat="42.89098" lon="-0.316">
        <ele>2737.5</ele>
        <time>2011-03-09T12:30:06Z</time>
      </trkpt>
      <trkpt lat="42.89097" lon="-0.31602">
        <ele>2737</ele>
        <time>2011-03-09T12:30:21Z</time>
      </trkpt>
      <trkpt lat="42.89106" lon="-0.31609">
        <ele>2734.6</ele>
        <time>2011-03-09T12:30:24Z</time>
      </trkpt>
      <trkpt lat="42.89116" lon="-0.31616">
        <ele>2728.8</ele>
        <time>2011-03-09T12:30:26Z</time>
      </trkpt>
      <trkpt lat="42.89124" lon="-0.31621">
        <ele>2725.5</ele>
        <time>2011-03-09T12:30:28Z</time>
      </trkpt>
      <trkpt lat="42.89131" lon="-0.31626">
        <ele>2720.2</ele>
        <time>2011-03-09T12:30:30Z</time>
      </trkpt>
      <trkpt lat="42.89131" lon="-0.31628">
        <ele>2719.7</ele>
        <time>2011-03-09T12:30:32Z</time>
      </trkpt>
      <trkpt lat="42.89138" lon="-0.31638">
        <ele>2715.4</ele>
        <time>2011-03-09T12:30:36Z</time>
      </trkpt>
      <trkpt lat="42.89141" lon="-0.31642">
        <ele>2713</ele>
        <time>2011-03-09T12:30:37Z</time>
      </trkpt>
      <trkpt lat="42.8915" lon="-0.31654">
        <ele>2706.7</ele>
        <time>2011-03-09T12:30:40Z</time>
      </trkpt>
      <trkpt lat="42.89157" lon="-0.31661">
        <ele>2702.4</ele>
        <time>2011-03-09T12:30:42Z</time>
      </trkpt>
      <trkpt lat="42.89165" lon="-0.31673">
        <ele>2694.7</ele>
        <time>2011-03-09T12:30:45Z</time>
      </trkpt>
      <trkpt lat="42.89166" lon="-0.31675">
        <ele>2693.3</ele>
        <time>2011-03-09T12:30:47Z</time>
      </trkpt>
      <trkpt lat="42.89166" lon="-0.31676">
        <ele>2692.8</ele>
        <time>2011-03-09T12:30:51Z</time>
      </trkpt>
      <trkpt lat="42.89166" lon="-0.31684">
        <ele>2691.3</ele>
        <time>2011-03-09T12:30:54Z</time>
      </trkpt>
      <trkpt lat="42.8917" lon="-0.31698">
        <ele>2686.5</ele>
        <time>2011-03-09T12:30:57Z</time>
      </trkpt>
      <trkpt lat="42.89178" lon="-0.31703">
        <ele>2682.7</ele>
        <time>2011-03-09T12:30:59Z</time>
      </trkpt>
      <trkpt lat="42.89186" lon="-0.31709">
        <ele>2678.9</ele>
        <time>2011-03-09T12:31:01Z</time>
      </trkpt>
      <trkpt lat="42.89194" lon="-0.31715">
        <ele>2673.6</ele>
        <time>2011-03-09T12:31:03Z</time>
      </trkpt>
      <trkpt lat="42.89198" lon="-0.31719">
        <ele>2670.2</ele>
        <time>2011-03-09T12:31:04Z</time>
      </trkpt>
      <trkpt lat="42.89205" lon="-0.31728">
        <ele>2666.8</ele>
        <time>2011-03-09T12:31:06Z</time>
      </trkpt>
      <trkpt lat="42.89208" lon="-0.3173">
        <ele>2664</ele>
        <time>2011-03-09T12:31:07Z</time>
      </trkpt>
      <trkpt lat="42.89211" lon="-0.3173">
        <ele>2660.6</ele>
        <time>2011-03-09T12:31:31Z</time>
      </trkpt>
      <trkpt lat="42.89216" lon="-0.31729">
        <ele>2660.1</ele>
        <time>2011-03-09T12:31:33Z</time>
      </trkpt>
      <trkpt lat="42.89224" lon="-0.31734">
        <ele>2655.3</ele>
        <time>2011-03-09T12:31:35Z</time>
      </trkpt>
      <trkpt lat="42.89231" lon="-0.31738">
        <ele>2650.5</ele>
        <time>2011-03-09T12:31:37Z</time>
      </trkpt>
      <trkpt lat="42.89235" lon="-0.31741">
        <ele>2648.6</ele>
        <time>2011-03-09T12:31:38Z</time>
      </trkpt>
      <trkpt lat="42.89245" lon="-0.31752">
        <ele>2639.4</ele>
        <time>2011-03-09T12:31:41Z</time>
      </trkpt>
      <trkpt lat="42.89252" lon="-0.31761">
        <ele>2635.6</ele>
        <time>2011-03-09T12:31:43Z</time>
      </trkpt>
      <trkpt lat="42.89266" lon="-0.31782">
        <ele>2623.6</ele>
        <time>2011-03-09T12:31:47Z</time>
      </trkpt>
      <trkpt lat="42.89272" lon="-0.31795">
        <ele>2618.8</ele>
        <time>2011-03-09T12:31:49Z</time>
      </trkpt>
      <trkpt lat="42.89276" lon="-0.31803">
        <ele>2615.4</ele>
        <time>2011-03-09T12:31:50Z</time>
      </trkpt>
      <trkpt lat="42.89279" lon="-0.31809">
        <ele>2612</ele>
        <time>2011-03-09T12:31:51Z</time>
      </trkpt>
      <trkpt lat="42.8928" lon="-0.31812">
        <ele>2610.1</ele>
        <time>2011-03-09T12:31:52Z</time>
      </trkpt>
      <trkpt lat="42.89297" lon="-0.31835">
        <ele>2599.1</ele>
        <time>2011-03-09T12:31:56Z</time>
      </trkpt>
      <trkpt lat="42.89306" lon="-0.31847">
        <ele>2593.3</ele>
        <time>2011-03-09T12:31:58Z</time>
      </trkpt>
      <trkpt lat="42.89328" lon="-0.31874">
        <ele>2581.3</ele>
        <time>2011-03-09T12:32:02Z</time>
      </trkpt>
      <trkpt lat="42.89332" lon="-0.31876">
        <ele>2577.9</ele>
        <time>2011-03-09T12:32:03Z</time>
      </trkpt>
      <trkpt lat="42.89336" lon="-0.3188">
        <ele>2574.5</ele>
        <time>2011-03-09T12:32:04Z</time>
      </trkpt>
      <trkpt lat="42.89342" lon="-0.31884">
        <ele>2570.2</ele>
        <time>2011-03-09T12:32:05Z</time>
      </trkpt>
      <trkpt lat="42.89353" lon="-0.31887">
        <ele>2564.9</ele>
        <time>2011-03-09T12:32:07Z</time>
      </trkpt>
      <trkpt lat="42.89365" lon="-0.31892">
        <ele>2558.7</ele>
        <time>2011-03-09T12:32:09Z</time>
      </trkpt>
      <trkpt lat="42.89375" lon="-0.31892">
        <ele>2555.8</ele>
        <time>2011-03-09T12:32:11Z</time>
      </trkpt>
      <trkpt lat="42.89381" lon="-0.31894">
        <ele>2552</ele>
        <time>2011-03-09T12:32:12Z</time>
      </trkpt>
      <trkpt lat="42.89388" lon="-0.31895">
        <ele>2550</ele>
        <time>2011-03-09T12:32:13Z</time>
      </trkpt>
      <trkpt lat="42.89409" lon="-0.31924">
        <ele>2543.3</ele>
        <time>2011-03-09T12:32:41Z</time>
      </trkpt>
      <trkpt lat="42.89409" lon="-0.31924">
        <ele>2543.8</ele>
        <time>2011-03-09T12:32:57Z</time>
      </trkpt>
      <trkpt lat="42.8942" lon="-0.3193">
        <ele>2539</ele>
        <time>2011-03-09T12:33:01Z</time>
      </trkpt>
      <trkpt lat="42.89423" lon="-0.31933">
        <ele>2538.5</ele>
        <time>2011-03-09T12:33:02Z</time>
      </trkpt>
      <trkpt lat="42.89434" lon="-0.3196">
        <ele>2530.3</ele>
        <time>2011-03-09T12:33:06Z</time>
      </trkpt>
      <trkpt lat="42.89436" lon="-0.31967">
        <ele>2530.3</ele>
        <time>2011-03-09T12:33:07Z</time>
      </trkpt>
      <trkpt lat="42.89449" lon="-0.31989">
        <ele>2520.2</ele>
        <time>2011-03-09T12:33:10Z</time>
      </trkpt>
      <trkpt lat="42.89471" lon="-0.32011">
        <ele>2510.1</ele>
        <time>2011-03-09T12:33:13Z</time>
      </trkpt>
      <trkpt lat="42.89483" lon="-0.32026">
        <ele>2502</ele>
        <time>2011-03-09T12:33:15Z</time>
      </trkpt>
      <trkpt lat="42.89494" lon="-0.32046">
        <ele>2497.2</ele>
        <time>2011-03-09T12:33:17Z</time>
      </trkpt>
      <trkpt lat="42.89499" lon="-0.32055">
        <ele>2493.8</ele>
        <time>2011-03-09T12:33:18Z</time>
      </trkpt>
      <trkpt lat="42.89512" lon="-0.32075">
        <ele>2489</ele>
        <time>2011-03-09T12:33:20Z</time>
      </trkpt>
      <trkpt lat="42.89518" lon="-0.32101">
        <ele>2485.6</ele>
        <time>2011-03-09T12:33:22Z</time>
      </trkpt>
      <trkpt lat="42.89528" lon="-0.3212">
        <ele>2482.3</ele>
        <time>2011-03-09T12:33:24Z</time>
      </trkpt>
      <trkpt lat="42.89534" lon="-0.3213">
        <ele>2480.8</ele>
        <time>2011-03-09T12:33:25Z</time>
      </trkpt>
      <trkpt lat="42.8955" lon="-0.32154">
        <ele>2476.5</ele>
        <time>2011-03-09T12:33:28Z</time>
      </trkpt>
      <trkpt lat="42.89574" lon="-0.32172">
        <ele>2470.7</ele>
        <time>2011-03-09T12:33:31Z</time>
      </trkpt>
      <trkpt lat="42.89606" lon="-0.32207">
        <ele>2463.5</ele>
        <time>2011-03-09T12:33:35Z</time>
      </trkpt>
      <trkpt lat="42.89628" lon="-0.32234">
        <ele>2459.7</ele>
        <time>2011-03-09T12:33:38Z</time>
      </trkpt>
      <trkpt lat="42.89635" lon="-0.32242">
        <ele>2458.2</ele>
        <time>2011-03-09T12:33:39Z</time>
      </trkpt>
      <trkpt lat="42.89652" lon="-0.32256">
        <ele>2458.2</ele>
        <time>2011-03-09T12:33:42Z</time>
      </trkpt>
      <trkpt lat="42.89663" lon="-0.32273">
        <ele>2457.7</ele>
        <time>2011-03-09T12:33:50Z</time>
      </trkpt>
      <trkpt lat="42.89663" lon="-0.32271">
        <ele>2459.2</ele>
        <time>2011-03-09T12:34:23Z</time>
      </trkpt>
      <trkpt lat="42.89662" lon="-0.32272">
        <ele>2458.7</ele>
        <time>2011-03-09T12:34:32Z</time>
      </trkpt>
      <trkpt lat="42.8967" lon="-0.32282">
        <ele>2456.3</ele>
        <time>2011-03-09T12:34:36Z</time>
      </trkpt>
      <trkpt lat="42.89682" lon="-0.32307">
        <ele>2454.4</ele>
        <time>2011-03-09T12:34:42Z</time>
      </trkpt>
      <trkpt lat="42.89687" lon="-0.32332">
        <ele>2446.7</ele>
        <time>2011-03-09T12:34:56Z</time>
      </trkpt>
      <trkpt lat="42.89693" lon="-0.32365">
        <ele>2433.2</ele>
        <time>2011-03-09T12:35:12Z</time>
      </trkpt>
      <trkpt lat="42.89711" lon="-0.32372">
        <ele>2430.4</ele>
        <time>2011-03-09T12:35:17Z</time>
      </trkpt>
      <trkpt lat="42.89718" lon="-0.32375">
        <ele>2428.9</ele>
        <time>2011-03-09T12:35:19Z</time>
      </trkpt>
      <trkpt lat="42.89723" lon="-0.32392">
        <ele>2423.1</ele>
        <time>2011-03-09T12:35:23Z</time>
      </trkpt>
      <trkpt lat="42.89725" lon="-0.32404">
        <ele>2416.9</ele>
        <time>2011-03-09T12:35:25Z</time>
      </trkpt>
      <trkpt lat="42.8973" lon="-0.32416">
        <ele>2413</ele>
        <time>2011-03-09T12:35:27Z</time>
      </trkpt>
      <trkpt lat="42.89734" lon="-0.32422">
        <ele>2409.2</ele>
        <time>2011-03-09T12:35:28Z</time>
      </trkpt>
      <trkpt lat="42.89744" lon="-0.32427">
        <ele>2406.8</ele>
        <time>2011-03-09T12:35:30Z</time>
      </trkpt>
      <trkpt lat="42.89749" lon="-0.32434">
        <ele>2403.4</ele>
        <time>2011-03-09T12:35:32Z</time>
      </trkpt>
      <trkpt lat="42.89752" lon="-0.32439">
        <ele>2400.1</ele>
        <time>2011-03-09T12:35:33Z</time>
      </trkpt>
      <trkpt lat="42.89761" lon="-0.32449">
        <ele>2395.7</ele>
        <time>2011-03-09T12:35:35Z</time>
      </trkpt>
      <trkpt lat="42.89769" lon="-0.32463">
        <ele>2390.9</ele>
        <time>2011-03-09T12:35:37Z</time>
      </trkpt>
      <trkpt lat="42.89775" lon="-0.32467">
        <ele>2390</ele>
        <time>2011-03-09T12:35:38Z</time>
      </trkpt>
      <trkpt lat="42.89792" lon="-0.32494">
        <ele>2379.9</ele>
        <time>2011-03-09T12:35:42Z</time>
      </trkpt>
      <trkpt lat="42.89797" lon="-0.32497">
        <ele>2378.4</ele>
        <time>2011-03-09T12:35:43Z</time>
      </trkpt>
      <trkpt lat="42.89807" lon="-0.32507">
        <ele>2371.7</ele>
        <time>2011-03-09T12:35:47Z</time>
      </trkpt>
      <trkpt lat="42.89811" lon="-0.32515">
        <ele>2368.3</ele>
        <time>2011-03-09T12:35:48Z</time>
      </trkpt>
      <trkpt lat="42.89814" lon="-0.32524">
        <ele>2365.5</ele>
        <time>2011-03-09T12:35:49Z</time>
      </trkpt>
      <trkpt lat="42.89834" lon="-0.32559">
        <ele>2358.7</ele>
        <time>2011-03-09T12:35:53Z</time>
      </trkpt>
      <trkpt lat="42.89854" lon="-0.32584">
        <ele>2354.4</ele>
        <time>2011-03-09T12:35:56Z</time>
      </trkpt>
      <trkpt lat="42.89861" lon="-0.32594">
        <ele>2352.5</ele>
        <time>2011-03-09T12:35:57Z</time>
      </trkpt>
      <trkpt lat="42.8987" lon="-0.32612">
        <ele>2351</ele>
        <time>2011-03-09T12:35:59Z</time>
      </trkpt>
      <trkpt lat="42.8988" lon="-0.3265">
        <ele>2349.1</ele>
        <time>2011-03-09T12:36:06Z</time>
      </trkpt>
      <trkpt lat="42.89881" lon="-0.32652">
        <ele>2348.6</ele>
        <time>2011-03-09T12:36:07Z</time>
      </trkpt>
      <trkpt lat="42.89884" lon="-0.32656">
        <ele>2349.6</ele>
        <time>2011-03-09T12:36:10Z</time>
      </trkpt>
      <trkpt lat="42.89894" lon="-0.32665">
        <ele>2349.1</ele>
        <time>2011-03-09T12:36:22Z</time>
      </trkpt>
      <trkpt lat="42.89894" lon="-0.32679">
        <ele>2348.6</ele>
        <time>2011-03-09T12:36:29Z</time>
      </trkpt>
      <trkpt lat="42.89906" lon="-0.32713">
        <ele>2346.2</ele>
        <time>2011-03-09T12:36:39Z</time>
      </trkpt>
      <trkpt lat="42.89923" lon="-0.32743">
        <ele>2340</ele>
        <time>2011-03-09T12:36:43Z</time>
      </trkpt>
      <trkpt lat="42.89928" lon="-0.32752">
        <ele>2338.5</ele>
        <time>2011-03-09T12:36:44Z</time>
      </trkpt>
      <trkpt lat="42.89959" lon="-0.32784">
        <ele>2335.2</ele>
        <time>2011-03-09T12:36:49Z</time>
      </trkpt>
      <trkpt lat="42.8997" lon="-0.32794">
        <ele>2334.2</ele>
        <time>2011-03-09T12:36:52Z</time>
      </trkpt>
      <trkpt lat="42.89993" lon="-0.32821">
        <ele>2330.4</ele>
        <time>2011-03-09T12:36:59Z</time>
      </trkpt>
      <trkpt lat="42.90001" lon="-0.32832">
        <ele>2328.9</ele>
        <time>2011-03-09T12:37:01Z</time>
      </trkpt>
      <trkpt lat="42.90003" lon="-0.32849">
        <ele>2322.2</ele>
        <time>2011-03-09T12:37:04Z</time>
      </trkpt>
      <trkpt lat="42.90005" lon="-0.32854">
        <ele>2321.7</ele>
        <time>2011-03-09T12:37:05Z</time>
      </trkpt>
      <trkpt lat="42.90008" lon="-0.32877">
        <ele>2314</ele>
        <time>2011-03-09T12:37:08Z</time>
      </trkpt>
      <trkpt lat="42.90015" lon="-0.32891">
        <ele>2310.2</ele>
        <time>2011-03-09T12:37:10Z</time>
      </trkpt>
      <trkpt lat="42.90019" lon="-0.32897">
        <ele>2309.7</ele>
        <time>2011-03-09T12:37:11Z</time>
      </trkpt>
      <trkpt lat="42.9003" lon="-0.32909">
        <ele>2308.3</ele>
        <time>2011-03-09T12:37:13Z</time>
      </trkpt>
      <trkpt lat="42.90035" lon="-0.32915">
        <ele>2308.3</ele>
        <time>2011-03-09T12:37:14Z</time>
      </trkpt>
      <trkpt lat="42.90053" lon="-0.32938">
        <ele>2304.9</ele>
        <time>2011-03-09T12:37:18Z</time>
      </trkpt>
      <trkpt lat="42.90057" lon="-0.3294">
        <ele>2305.4</ele>
        <time>2011-03-09T12:37:19Z</time>
      </trkpt>
      <trkpt lat="42.90071" lon="-0.32949">
        <ele>2303.9</ele>
        <time>2011-03-09T12:37:23Z</time>
      </trkpt>
      <trkpt lat="42.90087" lon="-0.32956">
        <ele>2301.1</ele>
        <time>2011-03-09T12:37:26Z</time>
      </trkpt>
      <trkpt lat="42.9011" lon="-0.32978">
        <ele>2295.8</ele>
        <time>2011-03-09T12:37:30Z</time>
      </trkpt>
      <trkpt lat="42.90117" lon="-0.32986">
        <ele>2295.3</ele>
        <time>2011-03-09T12:37:32Z</time>
      </trkpt>
      <trkpt lat="42.90128" lon="-0.33008">
        <ele>2292.9</ele>
        <time>2011-03-09T12:37:35Z</time>
      </trkpt>
      <trkpt lat="42.90137" lon="-0.3303">
        <ele>2291.4</ele>
        <time>2011-03-09T12:37:38Z</time>
      </trkpt>
      <trkpt lat="42.90145" lon="-0.33047">
        <ele>2290.5</ele>
        <time>2011-03-09T12:37:40Z</time>
      </trkpt>
      <trkpt lat="42.90157" lon="-0.33074">
        <ele>2288.6</ele>
        <time>2011-03-09T12:37:45Z</time>
      </trkpt>
      <trkpt lat="42.90162" lon="-0.33124">
        <ele>2287.1</ele>
        <time>2011-03-09T12:37:56Z</time>
      </trkpt>
      <trkpt lat="42.90162" lon="-0.33151">
        <ele>2288.6</ele>
        <time>2011-03-09T12:38:08Z</time>
      </trkpt>
      <trkpt lat="42.90162" lon="-0.33156">
        <ele>2288.6</ele>
        <time>2011-03-09T12:39:02Z</time>
      </trkpt>
      <trkpt lat="42.90162" lon="-0.33161">
        <ele>2289</ele>
        <time>2011-03-09T12:39:04Z</time>
      </trkpt>
      <trkpt lat="42.90161" lon="-0.33205">
        <ele>2286.6</ele>
        <time>2011-03-09T12:39:14Z</time>
      </trkpt>
      <trkpt lat="42.90161" lon="-0.33211">
        <ele>2286.2</ele>
        <time>2011-03-09T12:39:15Z</time>
      </trkpt>
      <trkpt lat="42.90158" lon="-0.33229">
        <ele>2286.2</ele>
        <time>2011-03-09T12:39:19Z</time>
      </trkpt>
      <trkpt lat="42.90157" lon="-0.33255">
        <ele>2287.1</ele>
        <time>2011-03-09T12:39:27Z</time>
      </trkpt>
      <trkpt lat="42.90159" lon="-0.33289">
        <ele>2287.1</ele>
        <time>2011-03-09T12:39:38Z</time>
      </trkpt>
      <trkpt lat="42.9016" lon="-0.3329">
        <ele>2287.6</ele>
        <time>2011-03-09T12:39:54Z</time>
      </trkpt>
      <trkpt lat="42.9016" lon="-0.33289">
        <ele>2288.1</ele>
        <time>2011-03-09T12:40:33Z</time>
      </trkpt>
      <trkpt lat="42.90162" lon="-0.33301">
        <ele>2287.6</ele>
        <time>2011-03-09T12:40:42Z</time>
      </trkpt>
      <trkpt lat="42.90162" lon="-0.33308">
        <ele>2288.1</ele>
        <time>2011-03-09T12:40:45Z</time>
      </trkpt>
      <trkpt lat="42.90162" lon="-0.33312">
        <ele>2288.1</ele>
        <time>2011-03-09T12:40:47Z</time>
      </trkpt>
      <trkpt lat="42.90164" lon="-0.33328">
        <ele>2289</ele>
        <time>2011-03-09T12:40:58Z</time>
      </trkpt>
      <trkpt lat="42.90167" lon="-0.33342">
        <ele>2289</ele>
        <time>2011-03-09T12:41:14Z</time>
      </trkpt>
      <trkpt lat="42.90171" lon="-0.33358">
        <ele>2289.5</ele>
        <time>2011-03-09T12:41:28Z</time>
      </trkpt>
      <trkpt lat="42.90173" lon="-0.33369">
        <ele>2290</ele>
        <time>2011-03-09T12:41:32Z</time>
      </trkpt>
      <trkpt lat="42.90176" lon="-0.33388">
        <ele>2291</ele>
        <time>2011-03-09T12:41:46Z</time>
      </trkpt>
      <trkpt lat="42.90178" lon="-0.33403">
        <ele>2292.9</ele>
        <time>2011-03-09T12:42:06Z</time>
      </trkpt>
      <trkpt lat="42.90179" lon="-0.33416">
        <ele>2294.3</ele>
        <time>2011-03-09T12:42:22Z</time>
      </trkpt>
      <trkpt lat="42.90181" lon="-0.33423">
        <ele>2295.3</ele>
        <time>2011-03-09T12:42:38Z</time>
      </trkpt>
      <trkpt lat="42.90184" lon="-0.33427">
        <ele>2295.3</ele>
        <time>2011-03-09T12:42:57Z</time>
      </trkpt>
      <trkpt lat="42.90191" lon="-0.33438">
        <ele>2297.2</ele>
        <time>2011-03-09T12:43:13Z</time>
      </trkpt>
      <trkpt lat="42.90193" lon="-0.33441">
        <ele>2298.6</ele>
        <time>2011-03-09T12:43:24Z</time>
      </trkpt>
      <trkpt lat="42.90195" lon="-0.33444">
        <ele>2299.1</ele>
        <time>2011-03-09T12:43:33Z</time>
      </trkpt>
      <trkpt lat="42.90196" lon="-0.33448">
        <ele>2300.6</ele>
        <time>2011-03-09T12:43:44Z</time>
      </trkpt>
      <trkpt lat="42.90198" lon="-0.3345">
        <ele>2302</ele>
        <time>2011-03-09T12:44:03Z</time>
      </trkpt>
      <trkpt lat="42.90199" lon="-0.33452">
        <ele>2303</ele>
        <time>2011-03-09T12:44:17Z</time>
      </trkpt>
      <trkpt lat="42.90201" lon="-0.33455">
        <ele>2304.4</ele>
        <time>2011-03-09T12:44:32Z</time>
      </trkpt>
      <trkpt lat="42.90203" lon="-0.33463">
        <ele>2305.4</ele>
        <time>2011-03-09T12:44:45Z</time>
      </trkpt>
      <trkpt lat="42.90205" lon="-0.33469">
        <ele>2306.8</ele>
        <time>2011-03-09T12:44:56Z</time>
      </trkpt>
      <trkpt lat="42.90204" lon="-0.33481">
        <ele>2307.8</ele>
        <time>2011-03-09T12:45:12Z</time>
      </trkpt>
      <trkpt lat="42.90209" lon="-0.33493">
        <ele>2308.7</ele>
        <time>2011-03-09T12:45:30Z</time>
      </trkpt>
      <trkpt lat="42.90209" lon="-0.33497">
        <ele>2309.2</ele>
        <time>2011-03-09T12:45:47Z</time>
      </trkpt>
      <trkpt lat="42.90209" lon="-0.33497">
        <ele>2309.7</ele>
        <time>2011-03-09T12:46:14Z</time>
      </trkpt>
      <trkpt lat="42.90212" lon="-0.33504">
        <ele>2309.7</ele>
        <time>2011-03-09T12:46:35Z</time>
      </trkpt>
      <trkpt lat="42.90213" lon="-0.33508">
        <ele>2305.9</ele>
        <time>2011-03-09T12:46:54Z</time>
      </trkpt>
      <trkpt lat="42.90213" lon="-0.33508">
        <ele>2309.2</ele>
        <time>2011-03-09T12:46:55Z</time>
      </trkpt>
      <trkpt lat="42.90215" lon="-0.33511">
        <ele>2308.7</ele>
        <time>2011-03-09T12:47:02Z</time>
      </trkpt>
      <trkpt lat="42.90225" lon="-0.33513">
        <ele>2308.3</ele>
        <time>2011-03-09T12:47:15Z</time>
      </trkpt>
      <trkpt lat="42.90226" lon="-0.33512">
        <ele>2307.8</ele>
        <time>2011-03-09T12:47:59Z</time>
      </trkpt>
      <trkpt lat="42.90231" lon="-0.33497">
        <ele>2306.3</ele>
        <time>2011-03-09T12:48:04Z</time>
      </trkpt>
      <trkpt lat="42.90234" lon="-0.33478">
        <ele>2303</ele>
        <time>2011-03-09T12:48:08Z</time>
      </trkpt>
      <trkpt lat="42.90234" lon="-0.33474">
        <ele>2302.5</ele>
        <time>2011-03-09T12:48:09Z</time>
      </trkpt>
      <trkpt lat="42.90246" lon="-0.33469">
        <ele>2297.7</ele>
        <time>2011-03-09T12:48:14Z</time>
      </trkpt>
      <trkpt lat="42.90253" lon="-0.33467">
        <ele>2292.4</ele>
        <time>2011-03-09T12:48:16Z</time>
      </trkpt>
      <trkpt lat="42.90262" lon="-0.33473">
        <ele>2287.6</ele>
        <time>2011-03-09T12:48:18Z</time>
      </trkpt>
      <trkpt lat="42.9027" lon="-0.33472">
        <ele>2283.3</ele>
        <time>2011-03-09T12:48:20Z</time>
      </trkpt>
      <trkpt lat="42.90272" lon="-0.33469">
        <ele>2282.8</ele>
        <time>2011-03-09T12:48:21Z</time>
      </trkpt>
      <trkpt lat="42.90279" lon="-0.33462">
        <ele>2281.3</ele>
        <time>2011-03-09T12:48:24Z</time>
      </trkpt>
      <trkpt lat="42.90288" lon="-0.3346">
        <ele>2277</ele>
        <time>2011-03-09T12:48:26Z</time>
      </trkpt>
      <trkpt lat="42.90298" lon="-0.33452">
        <ele>2273.7</ele>
        <time>2011-03-09T12:48:28Z</time>
      </trkpt>
      <trkpt lat="42.90315" lon="-0.33432">
        <ele>2269.3</ele>
        <time>2011-03-09T12:48:31Z</time>
      </trkpt>
      <trkpt lat="42.90332" lon="-0.33414">
        <ele>2265.5</ele>
        <time>2011-03-09T12:48:34Z</time>
      </trkpt>
      <trkpt lat="42.90335" lon="-0.33412">
        <ele>2265</ele>
        <time>2011-03-09T12:48:35Z</time>
      </trkpt>
      <trkpt lat="42.90339" lon="-0.33421">
        <ele>2260.7</ele>
        <time>2011-03-09T12:48:38Z</time>
      </trkpt>
      <trkpt lat="42.90337" lon="-0.33426">
        <ele>2259.2</ele>
        <time>2011-03-09T12:48:39Z</time>
      </trkpt>
      <trkpt lat="42.90344" lon="-0.33437">
        <ele>2254.4</ele>
        <time>2011-03-09T12:48:42Z</time>
      </trkpt>
      <trkpt lat="42.9035" lon="-0.33442">
        <ele>2250.6</ele>
        <time>2011-03-09T12:48:43Z</time>
      </trkpt>
      <trkpt lat="42.90362" lon="-0.3345">
        <ele>2241.9</ele>
        <time>2011-03-09T12:48:45Z</time>
      </trkpt>
      <trkpt lat="42.90376" lon="-0.33452">
        <ele>2236.6</ele>
        <time>2011-03-09T12:48:47Z</time>
      </trkpt>
      <trkpt lat="42.90397" lon="-0.33452">
        <ele>2228.5</ele>
        <time>2011-03-09T12:48:51Z</time>
      </trkpt>
      <trkpt lat="42.90399" lon="-0.33461">
        <ele>2225.6</ele>
        <time>2011-03-09T12:49:00Z</time>
      </trkpt>
      <trkpt lat="42.90406" lon="-0.33464">
        <ele>2223.2</ele>
        <time>2011-03-09T12:49:04Z</time>
      </trkpt>
      <trkpt lat="42.90434" lon="-0.33448">
        <ele>2218.9</ele>
        <time>2011-03-09T12:49:10Z</time>
      </trkpt>
      <trkpt lat="42.90447" lon="-0.33445">
        <ele>2216</ele>
        <time>2011-03-09T12:49:12Z</time>
      </trkpt>
      <trkpt lat="42.90468" lon="-0.33436">
        <ele>2213.6</ele>
        <time>2011-03-09T12:49:19Z</time>
      </trkpt>
      <trkpt lat="42.90468" lon="-0.33435">
        <ele>2213.1</ele>
        <time>2011-03-09T12:49:26Z</time>
      </trkpt>
      <trkpt lat="42.90472" lon="-0.33442">
        <ele>2209.7</ele>
        <time>2011-03-09T12:49:29Z</time>
      </trkpt>
      <trkpt lat="42.90478" lon="-0.33451">
        <ele>2204.9</ele>
        <time>2011-03-09T12:49:31Z</time>
      </trkpt>
      <trkpt lat="42.90484" lon="-0.33463">
        <ele>2199.2</ele>
        <time>2011-03-09T12:49:33Z</time>
      </trkpt>
      <trkpt lat="42.90494" lon="-0.33471">
        <ele>2193.4</ele>
        <time>2011-03-09T12:49:35Z</time>
      </trkpt>
      <trkpt lat="42.90522" lon="-0.33468">
        <ele>2186.2</ele>
        <time>2011-03-09T12:49:40Z</time>
      </trkpt>
      <trkpt lat="42.90536" lon="-0.33466">
        <ele>2180.4</ele>
        <time>2011-03-09T12:49:43Z</time>
      </trkpt>
      <trkpt lat="42.90548" lon="-0.33473">
        <ele>2175.6</ele>
        <time>2011-03-09T12:49:45Z</time>
      </trkpt>
      <trkpt lat="42.90553" lon="-0.33473">
        <ele>2174.2</ele>
        <time>2011-03-09T12:49:46Z</time>
      </trkpt>
      <trkpt lat="42.9057" lon="-0.33468">
        <ele>2167.4</ele>
        <time>2011-03-09T12:49:49Z</time>
      </trkpt>
      <trkpt lat="42.90574" lon="-0.33461">
        <ele>2166</ele>
        <time>2011-03-09T12:49:52Z</time>
      </trkpt>
      <trkpt lat="42.90581" lon="-0.33452">
        <ele>2163.6</ele>
        <time>2011-03-09T12:50:22Z</time>
      </trkpt>
      <trkpt lat="42.90592" lon="-0.3343">
        <ele>2159.7</ele>
        <time>2011-03-09T12:50:26Z</time>
      </trkpt>
      <trkpt lat="42.90611" lon="-0.33413">
        <ele>2156.4</ele>
        <time>2011-03-09T12:50:31Z</time>
      </trkpt>
      <trkpt lat="42.90618" lon="-0.33413">
        <ele>2156.4</ele>
        <time>2011-03-09T12:50:32Z</time>
      </trkpt>
      <trkpt lat="42.90632" lon="-0.33414">
        <ele>2153.5</ele>
        <time>2011-03-09T12:50:34Z</time>
      </trkpt>
      <trkpt lat="42.90645" lon="-0.33417">
        <ele>2153</ele>
        <time>2011-03-09T12:50:36Z</time>
      </trkpt>
      <trkpt lat="42.90661" lon="-0.33414">
        <ele>2150.6</ele>
        <time>2011-03-09T12:50:40Z</time>
      </trkpt>
      <trkpt lat="42.9067" lon="-0.3342">
        <ele>2145.8</ele>
        <time>2011-03-09T12:50:42Z</time>
      </trkpt>
      <trkpt lat="42.90679" lon="-0.33428">
        <ele>2141</ele>
        <time>2011-03-09T12:50:44Z</time>
      </trkpt>
      <trkpt lat="42.90711" lon="-0.33438">
        <ele>2132.3</ele>
        <time>2011-03-09T12:50:49Z</time>
      </trkpt>
      <trkpt lat="42.90727" lon="-0.33438">
        <ele>2129</ele>
        <time>2011-03-09T12:50:51Z</time>
      </trkpt>
      <trkpt lat="42.9074" lon="-0.33432">
        <ele>2126.1</ele>
        <time>2011-03-09T12:50:53Z</time>
      </trkpt>
      <trkpt lat="42.90765" lon="-0.3344">
        <ele>2123.7</ele>
        <time>2011-03-09T12:50:58Z</time>
      </trkpt>
      <trkpt lat="42.9077" lon="-0.33443">
        <ele>2123.7</ele>
        <time>2011-03-09T12:50:59Z</time>
      </trkpt>
      <trkpt lat="42.90781" lon="-0.33447">
        <ele>2122.7</ele>
        <time>2011-03-09T12:51:01Z</time>
      </trkpt>
      <trkpt lat="42.90792" lon="-0.3345">
        <ele>2121.3</ele>
        <time>2011-03-09T12:51:03Z</time>
      </trkpt>
      <trkpt lat="42.90813" lon="-0.33449">
        <ele>2118.9</ele>
        <time>2011-03-09T12:51:06Z</time>
      </trkpt>
      <trkpt lat="42.90836" lon="-0.33462">
        <ele>2116.5</ele>
        <time>2011-03-09T12:51:10Z</time>
      </trkpt>
      <trkpt lat="42.90844" lon="-0.33472">
        <ele>2115.5</ele>
        <time>2011-03-09T12:51:12Z</time>
      </trkpt>
      <trkpt lat="42.90859" lon="-0.33487">
        <ele>2114.1</ele>
        <time>2011-03-09T12:51:15Z</time>
      </trkpt>
      <trkpt lat="42.90878" lon="-0.33515">
        <ele>2109.8</ele>
        <time>2011-03-09T12:51:19Z</time>
      </trkpt>
      <trkpt lat="42.90883" lon="-0.33522">
        <ele>2109.8</ele>
        <time>2011-03-09T12:51:20Z</time>
      </trkpt>
      <trkpt lat="42.90903" lon="-0.33555">
        <ele>2108.3</ele>
        <time>2011-03-09T12:51:25Z</time>
      </trkpt>
      <trkpt lat="42.90913" lon="-0.33571">
        <ele>2107.8</ele>
        <time>2011-03-09T12:51:28Z</time>
      </trkpt>
      <trkpt lat="42.90917" lon="-0.3358">
        <ele>2106.9</ele>
        <time>2011-03-09T12:51:30Z</time>
      </trkpt>
      <trkpt lat="42.90943" lon="-0.33619">
        <ele>2104.9</ele>
        <time>2011-03-09T12:51:41Z</time>
      </trkpt>
      <trkpt lat="42.90952" lon="-0.33638">
        <ele>2104.5</ele>
        <time>2011-03-09T12:51:52Z</time>
      </trkpt>
      <trkpt lat="42.90958" lon="-0.33648">
        <ele>2104.9</ele>
        <time>2011-03-09T12:52:06Z</time>
      </trkpt>
      <trkpt lat="42.90968" lon="-0.33661">
        <ele>2105.9</ele>
        <time>2011-03-09T12:52:28Z</time>
      </trkpt>
      <trkpt lat="42.90969" lon="-0.33662">
        <ele>2105.4</ele>
        <time>2011-03-09T12:53:40Z</time>
      </trkpt>
      <trkpt lat="42.90977" lon="-0.33674">
        <ele>2105.4</ele>
        <time>2011-03-09T12:53:59Z</time>
      </trkpt>
      <trkpt lat="42.90978" lon="-0.33676">
        <ele>2105.4</ele>
        <time>2011-03-09T12:54:20Z</time>
      </trkpt>
      <trkpt lat="42.90987" lon="-0.33705">
        <ele>2103.5</ele>
        <time>2011-03-09T12:54:41Z</time>
      </trkpt>
      <trkpt lat="42.90989" lon="-0.33712">
        <ele>2103</ele>
        <time>2011-03-09T12:54:42Z</time>
      </trkpt>
      <trkpt lat="42.91006" lon="-0.3372">
        <ele>2099.2</ele>
        <time>2011-03-09T12:54:48Z</time>
      </trkpt>
      <trkpt lat="42.91024" lon="-0.33704">
        <ele>2095.3</ele>
        <time>2011-03-09T12:54:53Z</time>
      </trkpt>
      <trkpt lat="42.91037" lon="-0.33692">
        <ele>2092</ele>
        <time>2011-03-09T12:54:55Z</time>
      </trkpt>
      <trkpt lat="42.9105" lon="-0.33677">
        <ele>2088.6</ele>
        <time>2011-03-09T12:54:57Z</time>
      </trkpt>
      <trkpt lat="42.91064" lon="-0.33663">
        <ele>2088.1</ele>
        <time>2011-03-09T12:55:00Z</time>
      </trkpt>
      <trkpt lat="42.91079" lon="-0.33651">
        <ele>2088.6</ele>
        <time>2011-03-09T12:55:10Z</time>
      </trkpt>
      <trkpt lat="42.91088" lon="-0.33639">
        <ele>2089.6</ele>
        <time>2011-03-09T12:55:26Z</time>
      </trkpt>
      <trkpt lat="42.91091" lon="-0.33629">
        <ele>2091</ele>
        <time>2011-03-09T12:55:41Z</time>
      </trkpt>
      <trkpt lat="42.91097" lon="-0.33621">
        <ele>2091</ele>
        <time>2011-03-09T12:55:55Z</time>
      </trkpt>
      <trkpt lat="42.91101" lon="-0.33609">
        <ele>2091.5</ele>
        <time>2011-03-09T12:56:11Z</time>
      </trkpt>
      <trkpt lat="42.91111" lon="-0.33589">
        <ele>2090.5</ele>
        <time>2011-03-09T12:56:24Z</time>
      </trkpt>
      <trkpt lat="42.91124" lon="-0.3357">
        <ele>2090</ele>
        <time>2011-03-09T12:56:34Z</time>
      </trkpt>
      <trkpt lat="42.91125" lon="-0.3357">
        <ele>2089.6</ele>
        <time>2011-03-09T12:56:44Z</time>
      </trkpt>
      <trkpt lat="42.91125" lon="-0.33569">
        <ele>2089.1</ele>
        <time>2011-03-09T12:57:02Z</time>
      </trkpt>
      <trkpt lat="42.91125" lon="-0.33568">
        <ele>2088.6</ele>
        <time>2011-03-09T12:57:21Z</time>
      </trkpt>
      <trkpt lat="42.91125" lon="-0.33569">
        <ele>2087.6</ele>
        <time>2011-03-09T12:58:50Z</time>
      </trkpt>
      <trkpt lat="42.91126" lon="-0.33569">
        <ele>2088.6</ele>
        <time>2011-03-09T12:59:41Z</time>
      </trkpt>
      <trkpt lat="42.91126" lon="-0.3357">
        <ele>2087.6</ele>
        <time>2011-03-09T13:00:42Z</time>
      </trkpt>
      <trkpt lat="42.91128" lon="-0.33568">
        <ele>2088.1</ele>
        <time>2011-03-09T13:01:06Z</time>
      </trkpt>
      <trkpt lat="42.91139" lon="-0.33555">
        <ele>2089.1</ele>
        <time>2011-03-09T13:01:20Z</time>
      </trkpt>
      <trkpt lat="42.9115" lon="-0.33543">
        <ele>2090.5</ele>
        <time>2011-03-09T13:01:36Z</time>
      </trkpt>
      <trkpt lat="42.91155" lon="-0.33539">
        <ele>2092</ele>
        <time>2011-03-09T13:01:46Z</time>
      </trkpt>
      <trkpt lat="42.91163" lon="-0.33525">
        <ele>2093.4</ele>
        <time>2011-03-09T13:02:34Z</time>
      </trkpt>
      <trkpt lat="42.91171" lon="-0.33514">
        <ele>2094.9</ele>
        <time>2011-03-09T13:02:47Z</time>
      </trkpt>
      <trkpt lat="42.91183" lon="-0.335">
        <ele>2097.3</ele>
        <time>2011-03-09T13:03:05Z</time>
      </trkpt>
      <trkpt lat="42.91193" lon="-0.33492">
        <ele>2099.2</ele>
        <time>2011-03-09T13:03:22Z</time>
      </trkpt>
      <trkpt lat="42.91206" lon="-0.33483">
        <ele>2102.5</ele>
        <time>2011-03-09T13:03:43Z</time>
      </trkpt>
      <trkpt lat="42.91224" lon="-0.33474">
        <ele>2105.4</ele>
        <time>2011-03-09T13:04:08Z</time>
      </trkpt>
      <trkpt lat="42.91235" lon="-0.3347">
        <ele>2108.3</ele>
        <time>2011-03-09T13:04:26Z</time>
      </trkpt>
      <trkpt lat="42.91243" lon="-0.33468">
        <ele>2110.7</ele>
        <time>2011-03-09T13:04:43Z</time>
      </trkpt>
      <trkpt lat="42.91252" lon="-0.33467">
        <ele>2113.6</ele>
        <time>2011-03-09T13:04:58Z</time>
      </trkpt>
      <trkpt lat="42.91262" lon="-0.33464">
        <ele>2116.5</ele>
        <time>2011-03-09T13:05:15Z</time>
      </trkpt>
      <trkpt lat="42.91269" lon="-0.3346">
        <ele>2118.4</ele>
        <time>2011-03-09T13:05:28Z</time>
      </trkpt>
      <trkpt lat="42.91276" lon="-0.33456">
        <ele>2120.8</ele>
        <time>2011-03-09T13:05:42Z</time>
      </trkpt>
      <trkpt lat="42.91277" lon="-0.33449">
        <ele>2122.7</ele>
        <time>2011-03-09T13:05:54Z</time>
      </trkpt>
      <trkpt lat="42.91276" lon="-0.3344">
        <ele>2124.7</ele>
        <time>2011-03-09T13:06:08Z</time>
      </trkpt>
      <trkpt lat="42.91274" lon="-0.33434">
        <ele>2127.5</ele>
        <time>2011-03-09T13:06:21Z</time>
      </trkpt>
      <trkpt lat="42.91282" lon="-0.33431">
        <ele>2129.9</ele>
        <time>2011-03-09T13:06:37Z</time>
      </trkpt>
      <trkpt lat="42.91292" lon="-0.33427">
        <ele>2132.3</ele>
        <time>2011-03-09T13:06:55Z</time>
      </trkpt>
      <trkpt lat="42.91292" lon="-0.33424">
        <ele>2132.8</ele>
        <time>2011-03-09T13:06:59Z</time>
      </trkpt>
      <trkpt lat="42.91288" lon="-0.33417">
        <ele>2135.2</ele>
        <time>2011-03-09T13:07:11Z</time>
      </trkpt>
      <trkpt lat="42.91292" lon="-0.33411">
        <ele>2138.1</ele>
        <time>2011-03-09T13:07:27Z</time>
      </trkpt>
      <trkpt lat="42.913" lon="-0.33407">
        <ele>2140.5</ele>
        <time>2011-03-09T13:07:40Z</time>
      </trkpt>
      <trkpt lat="42.91301" lon="-0.33406">
        <ele>2141</ele>
        <time>2011-03-09T13:07:41Z</time>
      </trkpt>
      <trkpt lat="42.91304" lon="-0.33399">
        <ele>2142.4</ele>
        <time>2011-03-09T13:07:51Z</time>
      </trkpt>
      <trkpt lat="42.91303" lon="-0.3339">
        <ele>2144.4</ele>
        <time>2011-03-09T13:08:02Z</time>
      </trkpt>
      <trkpt lat="42.91298" lon="-0.3338">
        <ele>2147.2</ele>
        <time>2011-03-09T13:08:16Z</time>
      </trkpt>
      <trkpt lat="42.91295" lon="-0.33378">
        <ele>2148.2</ele>
        <time>2011-03-09T13:08:21Z</time>
      </trkpt>
      <trkpt lat="42.91294" lon="-0.33368">
        <ele>2150.6</ele>
        <time>2011-03-09T13:08:33Z</time>
      </trkpt>
      <trkpt lat="42.91293" lon="-0.33361">
        <ele>2152</ele>
        <time>2011-03-09T13:08:41Z</time>
      </trkpt>
      <trkpt lat="42.91294" lon="-0.33354">
        <ele>2153.5</ele>
        <time>2011-03-09T13:08:49Z</time>
      </trkpt>
      <trkpt lat="42.91296" lon="-0.33345">
        <ele>2156.4</ele>
        <time>2011-03-09T13:09:02Z</time>
      </trkpt>
      <trkpt lat="42.913" lon="-0.33332">
        <ele>2158.8</ele>
        <time>2011-03-09T13:09:17Z</time>
      </trkpt>
      <trkpt lat="42.91304" lon="-0.33322">
        <ele>2161.2</ele>
        <time>2011-03-09T13:09:29Z</time>
      </trkpt>
      <trkpt lat="42.91306" lon="-0.33311">
        <ele>2164.1</ele>
        <time>2011-03-09T13:09:44Z</time>
      </trkpt>
      <trkpt lat="42.91313" lon="-0.3331">
        <ele>2166.5</ele>
        <time>2011-03-09T13:09:58Z</time>
      </trkpt>
      <trkpt lat="42.91319" lon="-0.33312">
        <ele>2168.9</ele>
        <time>2011-03-09T13:10:12Z</time>
      </trkpt>
      <trkpt lat="42.91324" lon="-0.33304">
        <ele>2171.8</ele>
        <time>2011-03-09T13:10:30Z</time>
      </trkpt>
      <trkpt lat="42.91324" lon="-0.3329">
        <ele>2175.1</ele>
        <time>2011-03-09T13:10:48Z</time>
      </trkpt>
      <trkpt lat="42.91326" lon="-0.33278">
        <ele>2177</ele>
        <time>2011-03-09T13:11:01Z</time>
      </trkpt>
      <trkpt lat="42.91327" lon="-0.33273">
        <ele>2178</ele>
        <time>2011-03-09T13:11:07Z</time>
      </trkpt>
      <trkpt lat="42.91325" lon="-0.33261">
        <ele>2180.4</ele>
        <time>2011-03-09T13:11:23Z</time>
      </trkpt>
      <trkpt lat="42.91324" lon="-0.33249">
        <ele>2183.3</ele>
        <time>2011-03-09T13:11:38Z</time>
      </trkpt>
      <trkpt lat="42.91324" lon="-0.33248">
        <ele>2184.3</ele>
        <time>2011-03-09T13:11:41Z</time>
      </trkpt>
      <trkpt lat="42.91323" lon="-0.33246">
        <ele>2184.7</ele>
        <time>2011-03-09T13:11:48Z</time>
      </trkpt>
      <trkpt lat="42.9132" lon="-0.33243">
        <ele>2186.2</ele>
        <time>2011-03-09T13:11:53Z</time>
      </trkpt>
      <trkpt lat="42.91324" lon="-0.33236">
        <ele>2188.6</ele>
        <time>2011-03-09T13:12:04Z</time>
      </trkpt>
      <trkpt lat="42.91324" lon="-0.33235">
        <ele>2188.6</ele>
        <time>2011-03-09T13:12:05Z</time>
      </trkpt>
      <trkpt lat="42.91327" lon="-0.33229">
        <ele>2191</ele>
        <time>2011-03-09T13:12:14Z</time>
      </trkpt>
      <trkpt lat="42.91328" lon="-0.33225">
        <ele>2191.5</ele>
        <time>2011-03-09T13:12:19Z</time>
      </trkpt>
      <trkpt lat="42.91323" lon="-0.33218">
        <ele>2193.4</ele>
        <time>2011-03-09T13:12:29Z</time>
      </trkpt>
      <trkpt lat="42.91318" lon="-0.3321">
        <ele>2195.8</ele>
        <time>2011-03-09T13:12:41Z</time>
      </trkpt>
      <trkpt lat="42.91318" lon="-0.33198">
        <ele>2198.2</ele>
        <time>2011-03-09T13:12:55Z</time>
      </trkpt>
      <trkpt lat="42.91315" lon="-0.33188">
        <ele>2200.1</ele>
        <time>2011-03-09T13:13:09Z</time>
      </trkpt>
      <trkpt lat="42.91315" lon="-0.33184">
        <ele>2200.1</ele>
        <time>2011-03-09T13:13:48Z</time>
      </trkpt>
      <trkpt lat="42.91317" lon="-0.33175">
        <ele>2201.1</ele>
        <time>2011-03-09T13:13:56Z</time>
      </trkpt>
      <trkpt lat="42.91315" lon="-0.33169">
        <ele>2201.6</ele>
        <time>2011-03-09T13:14:01Z</time>
      </trkpt>
      <trkpt lat="42.91314" lon="-0.33166">
        <ele>2202</ele>
        <time>2011-03-09T13:14:05Z</time>
      </trkpt>
      <trkpt lat="42.91314" lon="-0.33159">
        <ele>2203</ele>
        <time>2011-03-09T13:14:10Z</time>
      </trkpt>
      <trkpt lat="42.91315" lon="-0.3314">
        <ele>2205.4</ele>
        <time>2011-03-09T13:14:25Z</time>
      </trkpt>
      <trkpt lat="42.91315" lon="-0.33139">
        <ele>2205.4</ele>
        <time>2011-03-09T13:14:26Z</time>
      </trkpt>
      <trkpt lat="42.91318" lon="-0.33123">
        <ele>2208.8</ele>
        <time>2011-03-09T13:14:40Z</time>
      </trkpt>
      <trkpt lat="42.91321" lon="-0.33115">
        <ele>2208.3</ele>
        <time>2011-03-09T13:14:48Z</time>
      </trkpt>
      <trkpt lat="42.91323" lon="-0.33101">
        <ele>2210.7</ele>
        <time>2011-03-09T13:15:02Z</time>
      </trkpt>
      <trkpt lat="42.91323" lon="-0.33099">
        <ele>2211.2</ele>
        <time>2011-03-09T13:15:05Z</time>
      </trkpt>
      <trkpt lat="42.91323" lon="-0.33088">
        <ele>2212.6</ele>
        <time>2011-03-09T13:15:17Z</time>
      </trkpt>
      <trkpt lat="42.91325" lon="-0.33084">
        <ele>2213.1</ele>
        <time>2011-03-09T13:15:20Z</time>
      </trkpt>
      <trkpt lat="42.91326" lon="-0.33065">
        <ele>2215.5</ele>
        <time>2011-03-09T13:15:36Z</time>
      </trkpt>
      <trkpt lat="42.91328" lon="-0.3305">
        <ele>2217.4</ele>
        <time>2011-03-09T13:15:52Z</time>
      </trkpt>
      <trkpt lat="42.91327" lon="-0.33038">
        <ele>2219.3</ele>
        <time>2011-03-09T13:16:03Z</time>
      </trkpt>
      <trkpt lat="42.91327" lon="-0.33029">
        <ele>2221.7</ele>
        <time>2011-03-09T13:16:15Z</time>
      </trkpt>
      <trkpt lat="42.91327" lon="-0.3301">
        <ele>2224.6</ele>
        <time>2011-03-09T13:16:33Z</time>
      </trkpt>
      <trkpt lat="42.9133" lon="-0.32994">
        <ele>2227</ele>
        <time>2011-03-09T13:16:49Z</time>
      </trkpt>
      <trkpt lat="42.91334" lon="-0.32984">
        <ele>2228.5</ele>
        <time>2011-03-09T13:16:59Z</time>
      </trkpt>
      <trkpt lat="42.91337" lon="-0.32967">
        <ele>2231.4</ele>
        <time>2011-03-09T13:17:19Z</time>
      </trkpt>
      <trkpt lat="42.9134" lon="-0.3296">
        <ele>2231.8</ele>
        <time>2011-03-09T13:17:27Z</time>
      </trkpt>
      <trkpt lat="42.91347" lon="-0.32949">
        <ele>2232.8</ele>
        <time>2011-03-09T13:17:37Z</time>
      </trkpt>
      <trkpt lat="42.91346" lon="-0.32948">
        <ele>2232.8</ele>
        <time>2011-03-09T13:17:38Z</time>
      </trkpt>
      <trkpt lat="42.91346" lon="-0.32945">
        <ele>2233.3</ele>
        <time>2011-03-09T13:17:42Z</time>
      </trkpt>
      <trkpt lat="42.91351" lon="-0.32933">
        <ele>2234.2</ele>
        <time>2011-03-09T13:17:52Z</time>
      </trkpt>
      <trkpt lat="42.9135" lon="-0.32927">
        <ele>2235.7</ele>
        <time>2011-03-09T13:18:02Z</time>
      </trkpt>
      <trkpt lat="42.9135" lon="-0.3292">
        <ele>2237.1</ele>
        <time>2011-03-09T13:18:10Z</time>
      </trkpt>
      <trkpt lat="42.9135" lon="-0.3291">
        <ele>2239.5</ele>
        <time>2011-03-09T13:18:23Z</time>
      </trkpt>
      <trkpt lat="42.91351" lon="-0.32901">
        <ele>2241.5</ele>
        <time>2011-03-09T13:18:34Z</time>
      </trkpt>
      <trkpt lat="42.91353" lon="-0.32895">
        <ele>2242.4</ele>
        <time>2011-03-09T13:18:40Z</time>
      </trkpt>
      <trkpt lat="42.91354" lon="-0.32886">
        <ele>2244.3</ele>
        <time>2011-03-09T13:18:50Z</time>
      </trkpt>
      <trkpt lat="42.91354" lon="-0.32882">
        <ele>2245.3</ele>
        <time>2011-03-09T13:18:55Z</time>
      </trkpt>
      <trkpt lat="42.91352" lon="-0.32875">
        <ele>2246.7</ele>
        <time>2011-03-09T13:19:03Z</time>
      </trkpt>
      <trkpt lat="42.91351" lon="-0.32869">
        <ele>2248.7</ele>
        <time>2011-03-09T13:19:12Z</time>
      </trkpt>
      <trkpt lat="42.91352" lon="-0.32863">
        <ele>2250.1</ele>
        <time>2011-03-09T13:19:21Z</time>
      </trkpt>
      <trkpt lat="42.91354" lon="-0.32853">
        <ele>2252.5</ele>
        <time>2011-03-09T13:19:31Z</time>
      </trkpt>
      <trkpt lat="42.91357" lon="-0.32843">
        <ele>2255.4</ele>
        <time>2011-03-09T13:19:46Z</time>
      </trkpt>
      <trkpt lat="42.9136" lon="-0.32837">
        <ele>2256.8</ele>
        <time>2011-03-09T13:20:04Z</time>
      </trkpt>
      <trkpt lat="42.91359" lon="-0.32828">
        <ele>2258.3</ele>
        <time>2011-03-09T13:20:25Z</time>
      </trkpt>
      <trkpt lat="42.91358" lon="-0.32814">
        <ele>2261.6</ele>
        <time>2011-03-09T13:20:40Z</time>
      </trkpt>
      <trkpt lat="42.91353" lon="-0.32804">
        <ele>2265</ele>
        <time>2011-03-09T13:20:55Z</time>
      </trkpt>
      <trkpt lat="42.91352" lon="-0.32802">
        <ele>2266</ele>
        <time>2011-03-09T13:21:00Z</time>
      </trkpt>
      <trkpt lat="42.91353" lon="-0.32796">
        <ele>2267.4</ele>
        <time>2011-03-09T13:21:10Z</time>
      </trkpt>
      <trkpt lat="42.91361" lon="-0.32789">
        <ele>2270.8</ele>
        <time>2011-03-09T13:21:27Z</time>
      </trkpt>
      <trkpt lat="42.91361" lon="-0.32781">
        <ele>2272.7</ele>
        <time>2011-03-09T13:21:41Z</time>
      </trkpt>
      <trkpt lat="42.91357" lon="-0.32775">
        <ele>2276.1</ele>
        <time>2011-03-09T13:21:57Z</time>
      </trkpt>
      <trkpt lat="42.9135" lon="-0.3277">
        <ele>2278.9</ele>
        <time>2011-03-09T13:22:13Z</time>
      </trkpt>
      <trkpt lat="42.91351" lon="-0.32765">
        <ele>2281.3</ele>
        <time>2011-03-09T13:22:26Z</time>
      </trkpt>
      <trkpt lat="42.91356" lon="-0.32758">
        <ele>2283.7</ele>
        <time>2011-03-09T13:22:41Z</time>
      </trkpt>
      <trkpt lat="42.9136" lon="-0.32755">
        <ele>2284.7</ele>
        <time>2011-03-09T13:22:49Z</time>
      </trkpt>
      <trkpt lat="42.91366" lon="-0.32747">
        <ele>2287.1</ele>
        <time>2011-03-09T13:23:02Z</time>
      </trkpt>
      <trkpt lat="42.91364" lon="-0.32741">
        <ele>2290.5</ele>
        <time>2011-03-09T13:23:19Z</time>
      </trkpt>
      <trkpt lat="42.91358" lon="-0.32736">
        <ele>2292.4</ele>
        <time>2011-03-09T13:23:30Z</time>
      </trkpt>
      <trkpt lat="42.91354" lon="-0.32733">
        <ele>2295.3</ele>
        <time>2011-03-09T13:23:45Z</time>
      </trkpt>
      <trkpt lat="42.91359" lon="-0.32725">
        <ele>2297.2</ele>
        <time>2011-03-09T13:23:58Z</time>
      </trkpt>
      <trkpt lat="42.91369" lon="-0.32716">
        <ele>2300.1</ele>
        <time>2011-03-09T13:24:16Z</time>
      </trkpt>
      <trkpt lat="42.91369" lon="-0.32708">
        <ele>2303</ele>
        <time>2011-03-09T13:24:32Z</time>
      </trkpt>
      <trkpt lat="42.91365" lon="-0.32701">
        <ele>2305.9</ele>
        <time>2011-03-09T13:24:48Z</time>
      </trkpt>
      <trkpt lat="42.91359" lon="-0.32698">
        <ele>2309.2</ele>
        <time>2011-03-09T13:25:02Z</time>
      </trkpt>
      <trkpt lat="42.9136" lon="-0.32692">
        <ele>2310.7</ele>
        <time>2011-03-09T13:25:15Z</time>
      </trkpt>
      <trkpt lat="42.91363" lon="-0.32685">
        <ele>2312.6</ele>
        <time>2011-03-09T13:25:25Z</time>
      </trkpt>
      <trkpt lat="42.9137" lon="-0.32676">
        <ele>2315</ele>
        <time>2011-03-09T13:25:41Z</time>
      </trkpt>
      <trkpt lat="42.91376" lon="-0.32672">
        <ele>2317.4</ele>
        <time>2011-03-09T13:25:55Z</time>
      </trkpt>
      <trkpt lat="42.91374" lon="-0.32665">
        <ele>2319.8</ele>
        <time>2011-03-09T13:26:09Z</time>
      </trkpt>
      <trkpt lat="42.91369" lon="-0.32658">
        <ele>2323.2</ele>
        <time>2011-03-09T13:26:24Z</time>
      </trkpt>
      <trkpt lat="42.91362" lon="-0.32654">
        <ele>2326</ele>
        <time>2011-03-09T13:26:39Z</time>
      </trkpt>
      <trkpt lat="42.91355" lon="-0.32651">
        <ele>2328.9</ele>
        <time>2011-03-09T13:26:53Z</time>
      </trkpt>
      <trkpt lat="42.91362" lon="-0.32639">
        <ele>2331.8</ele>
        <time>2011-03-09T13:27:28Z</time>
      </trkpt>
      <trkpt lat="42.91371" lon="-0.32628">
        <ele>2334.7</ele>
        <time>2011-03-09T13:27:45Z</time>
      </trkpt>
      <trkpt lat="42.9138" lon="-0.32627">
        <ele>2338.1</ele>
        <time>2011-03-09T13:28:02Z</time>
      </trkpt>
      <trkpt lat="42.91383" lon="-0.32627">
        <ele>2339</ele>
        <time>2011-03-09T13:28:23Z</time>
      </trkpt>
      <trkpt lat="42.91383" lon="-0.32627">
        <ele>2339</ele>
        <time>2011-03-09T13:29:03Z</time>
      </trkpt>
      <trkpt lat="42.91389" lon="-0.32624">
        <ele>2340.9</ele>
        <time>2011-03-09T13:29:11Z</time>
      </trkpt>
      <trkpt lat="42.91394" lon="-0.32616">
        <ele>2343.8</ele>
        <time>2011-03-09T13:29:24Z</time>
      </trkpt>
      <trkpt lat="42.91393" lon="-0.32609">
        <ele>2347.2</ele>
        <time>2011-03-09T13:29:34Z</time>
      </trkpt>
      <trkpt lat="42.9139" lon="-0.32601">
        <ele>2350.1</ele>
        <time>2011-03-09T13:29:47Z</time>
      </trkpt>
      <trkpt lat="42.91387" lon="-0.326">
        <ele>2350.6</ele>
        <time>2011-03-09T13:30:06Z</time>
      </trkpt>
      <trkpt lat="42.91387" lon="-0.32598">
        <ele>2349.6</ele>
        <time>2011-03-09T13:30:25Z</time>
      </trkpt>
      <trkpt lat="42.91389" lon="-0.32595">
        <ele>2348.6</ele>
        <time>2011-03-09T13:31:10Z</time>
      </trkpt>
      <trkpt lat="42.9139" lon="-0.32591">
        <ele>2349.1</ele>
        <time>2011-03-09T13:36:49Z</time>
      </trkpt>
      <trkpt lat="42.91392" lon="-0.32585">
        <ele>2348.2</ele>
        <time>2011-03-09T13:37:09Z</time>
      </trkpt>
      <trkpt lat="42.91397" lon="-0.32572">
        <ele>2343.4</ele>
        <time>2011-03-09T13:37:13Z</time>
      </trkpt>
      <trkpt lat="42.91386" lon="-0.3255">
        <ele>2334.7</ele>
        <time>2011-03-09T13:37:25Z</time>
      </trkpt>
      <trkpt lat="42.91372" lon="-0.32523">
        <ele>2326</ele>
        <time>2011-03-09T13:37:28Z</time>
      </trkpt>
      <trkpt lat="42.91369" lon="-0.32514">
        <ele>2323.2</ele>
        <time>2011-03-09T13:37:29Z</time>
      </trkpt>
      <trkpt lat="42.91365" lon="-0.32492">
        <ele>2316.9</ele>
        <time>2011-03-09T13:37:31Z</time>
      </trkpt>
      <trkpt lat="42.91364" lon="-0.32481">
        <ele>2313.1</ele>
        <time>2011-03-09T13:37:32Z</time>
      </trkpt>
      <trkpt lat="42.91367" lon="-0.32456">
        <ele>2305.4</ele>
        <time>2011-03-09T13:37:34Z</time>
      </trkpt>
      <trkpt lat="42.91369" lon="-0.32442">
        <ele>2302</ele>
        <time>2011-03-09T13:37:35Z</time>
      </trkpt>
      <trkpt lat="42.9137" lon="-0.32429">
        <ele>2297.7</ele>
        <time>2011-03-09T13:37:36Z</time>
      </trkpt>
      <trkpt lat="42.91371" lon="-0.32416">
        <ele>2296.2</ele>
        <time>2011-03-09T13:37:37Z</time>
      </trkpt>
      <trkpt lat="42.91378" lon="-0.32391">
        <ele>2288.1</ele>
        <time>2011-03-09T13:37:39Z</time>
      </trkpt>
      <trkpt lat="42.91384" lon="-0.32359">
        <ele>2278.5</ele>
        <time>2011-03-09T13:37:42Z</time>
      </trkpt>
      <trkpt lat="42.91385" lon="-0.32325">
        <ele>2270.8</ele>
        <time>2011-03-09T13:37:45Z</time>
      </trkpt>
      <trkpt lat="42.91386" lon="-0.32315">
        <ele>2267.9</ele>
        <time>2011-03-09T13:37:46Z</time>
      </trkpt>
      <trkpt lat="42.91384" lon="-0.32293">
        <ele>2266.9</ele>
        <time>2011-03-09T13:37:48Z</time>
      </trkpt>
      <trkpt lat="42.91385" lon="-0.32255">
        <ele>2266.9</ele>
        <time>2011-03-09T13:37:56Z</time>
      </trkpt>
      <trkpt lat="42.91385" lon="-0.32254">
        <ele>2266.9</ele>
        <time>2011-03-09T13:38:29Z</time>
      </trkpt>
      <trkpt lat="42.91391" lon="-0.32246">
        <ele>2265.5</ele>
        <time>2011-03-09T13:38:32Z</time>
      </trkpt>
      <trkpt lat="42.9141" lon="-0.32216">
        <ele>2261.6</ele>
        <time>2011-03-09T13:38:37Z</time>
      </trkpt>
      <trkpt lat="42.91413" lon="-0.32209">
        <ele>2260.7</ele>
        <time>2011-03-09T13:38:38Z</time>
      </trkpt>
      <trkpt lat="42.91424" lon="-0.32188">
        <ele>2258.8</ele>
        <time>2011-03-09T13:38:41Z</time>
      </trkpt>
      <trkpt lat="42.91435" lon="-0.32183">
        <ele>2257.8</ele>
        <time>2011-03-09T13:38:46Z</time>
      </trkpt>
      <trkpt lat="42.91434" lon="-0.32183">
        <ele>2258.3</ele>
        <time>2011-03-09T13:38:48Z</time>
      </trkpt>
      <trkpt lat="42.91438" lon="-0.32163">
        <ele>2254.4</ele>
        <time>2011-03-09T13:38:53Z</time>
      </trkpt>
      <trkpt lat="42.9144" lon="-0.32146">
        <ele>2251.1</ele>
        <time>2011-03-09T13:38:55Z</time>
      </trkpt>
      <trkpt lat="42.91443" lon="-0.32127">
        <ele>2249.1</ele>
        <time>2011-03-09T13:38:57Z</time>
      </trkpt>
      <trkpt lat="42.91456" lon="-0.32106">
        <ele>2245.3</ele>
        <time>2011-03-09T13:38:59Z</time>
      </trkpt>
      <trkpt lat="42.91466" lon="-0.32078">
        <ele>2240</ele>
        <time>2011-03-09T13:39:02Z</time>
      </trkpt>
      <trkpt lat="42.91472" lon="-0.3206">
        <ele>2234.2</ele>
        <time>2011-03-09T13:39:04Z</time>
      </trkpt>
      <trkpt lat="42.91474" lon="-0.32051">
        <ele>2231.4</ele>
        <time>2011-03-09T13:39:05Z</time>
      </trkpt>
      <trkpt lat="42.91474" lon="-0.32043">
        <ele>2230.9</ele>
        <time>2011-03-09T13:39:06Z</time>
      </trkpt>
      <trkpt lat="42.91466" lon="-0.3202">
        <ele>2225.1</ele>
        <time>2011-03-09T13:39:09Z</time>
      </trkpt>
      <trkpt lat="42.91464" lon="-0.32012">
        <ele>2225.1</ele>
        <time>2011-03-09T13:39:10Z</time>
      </trkpt>
      <trkpt lat="42.91466" lon="-0.31993">
        <ele>2221.3</ele>
        <time>2011-03-09T13:39:12Z</time>
      </trkpt>
      <trkpt lat="42.91452" lon="-0.31948">
        <ele>2216.9</ele>
        <time>2011-03-09T13:39:17Z</time>
      </trkpt>
      <trkpt lat="42.91443" lon="-0.31911">
        <ele>2214.1</ele>
        <time>2011-03-09T13:39:22Z</time>
      </trkpt>
      <trkpt lat="42.91441" lon="-0.31897">
        <ele>2213.1</ele>
        <time>2011-03-09T13:39:24Z</time>
      </trkpt>
      <trkpt lat="42.91439" lon="-0.31861">
        <ele>2211.7</ele>
        <time>2011-03-09T13:39:30Z</time>
      </trkpt>
      <trkpt lat="42.91435" lon="-0.31841">
        <ele>2211.2</ele>
        <time>2011-03-09T13:39:34Z</time>
      </trkpt>
      <trkpt lat="42.91423" lon="-0.31787">
        <ele>2208.8</ele>
        <time>2011-03-09T13:39:50Z</time>
      </trkpt>
      <trkpt lat="42.91422" lon="-0.31769">
        <ele>2205.9</ele>
        <time>2011-03-09T13:39:53Z</time>
      </trkpt>
      <trkpt lat="42.91414" lon="-0.31754">
        <ele>2201.1</ele>
        <time>2011-03-09T13:40:00Z</time>
      </trkpt>
      <trkpt lat="42.91401" lon="-0.3174">
        <ele>2197.2</ele>
        <time>2011-03-09T13:40:02Z</time>
      </trkpt>
      <trkpt lat="42.91388" lon="-0.3172">
        <ele>2196.3</ele>
        <time>2011-03-09T13:40:05Z</time>
      </trkpt>
      <trkpt lat="42.91381" lon="-0.31711">
        <ele>2196.3</ele>
        <time>2011-03-09T13:40:07Z</time>
      </trkpt>
      <trkpt lat="42.91374" lon="-0.31703">
        <ele>2195.8</ele>
        <time>2011-03-09T13:40:09Z</time>
      </trkpt>
      <trkpt lat="42.91361" lon="-0.31696">
        <ele>2194.8</ele>
        <time>2011-03-09T13:40:12Z</time>
      </trkpt>
      <trkpt lat="42.91321" lon="-0.31689">
        <ele>2176.1</ele>
        <time>2011-03-09T13:40:50Z</time>
      </trkpt>
      <trkpt lat="42.91319" lon="-0.31693">
        <ele>2176.1</ele>
        <time>2011-03-09T13:40:51Z</time>
      </trkpt>
      <trkpt lat="42.91314" lon="-0.31702">
        <ele>2174.6</ele>
        <time>2011-03-09T13:40:54Z</time>
      </trkpt>
      <trkpt lat="42.91301" lon="-0.31702">
        <ele>2166.9</ele>
        <time>2011-03-09T13:40:57Z</time>
      </trkpt>
      <trkpt lat="42.91293" lon="-0.31695">
        <ele>2161.7</ele>
        <time>2011-03-09T13:40:59Z</time>
      </trkpt>
      <trkpt lat="42.91286" lon="-0.31687">
        <ele>2156.9</ele>
        <time>2011-03-09T13:41:01Z</time>
      </trkpt>
      <trkpt lat="42.91281" lon="-0.31684">
        <ele>2154.9</ele>
        <time>2011-03-09T13:41:02Z</time>
      </trkpt>
      <trkpt lat="42.91269" lon="-0.31669">
        <ele>2145.3</ele>
        <time>2011-03-09T13:41:05Z</time>
      </trkpt>
      <trkpt lat="42.91257" lon="-0.31648">
        <ele>2143.9</ele>
        <time>2011-03-09T13:41:08Z</time>
      </trkpt>
      <trkpt lat="42.91252" lon="-0.31632">
        <ele>2142</ele>
        <time>2011-03-09T13:41:11Z</time>
      </trkpt>
      <trkpt lat="42.9125" lon="-0.31619">
        <ele>2137.1</ele>
        <time>2011-03-09T13:41:14Z</time>
      </trkpt>
      <trkpt lat="42.91249" lon="-0.31604">
        <ele>2132.8</ele>
        <time>2011-03-09T13:41:16Z</time>
      </trkpt>
      <trkpt lat="42.91245" lon="-0.31589">
        <ele>2124.7</ele>
        <time>2011-03-09T13:41:18Z</time>
      </trkpt>
      <trkpt lat="42.91236" lon="-0.31583">
        <ele>2124.2</ele>
        <time>2011-03-09T13:41:20Z</time>
      </trkpt>
      <trkpt lat="42.91232" lon="-0.31582">
        <ele>2123.2</ele>
        <time>2011-03-09T13:41:21Z</time>
      </trkpt>
      <trkpt lat="42.91222" lon="-0.31584">
        <ele>2119.4</ele>
        <time>2011-03-09T13:41:23Z</time>
      </trkpt>
      <trkpt lat="42.91206" lon="-0.31582">
        <ele>2116</ele>
        <time>2011-03-09T13:41:26Z</time>
      </trkpt>
      <trkpt lat="42.91204" lon="-0.31583">
        <ele>2116</ele>
        <time>2011-03-09T13:41:27Z</time>
      </trkpt>
      <trkpt lat="42.91204" lon="-0.31582">
        <ele>2116</ele>
        <time>2011-03-09T13:41:40Z</time>
      </trkpt>
      <trkpt lat="42.91204" lon="-0.31581">
        <ele>2116</ele>
        <time>2011-03-09T13:41:48Z</time>
      </trkpt>
      <trkpt lat="42.91186" lon="-0.31592">
        <ele>2108.3</ele>
        <time>2011-03-09T13:42:20Z</time>
      </trkpt>
      <trkpt lat="42.91183" lon="-0.31595">
        <ele>2106.9</ele>
        <time>2011-03-09T13:42:21Z</time>
      </trkpt>
      <trkpt lat="42.9117" lon="-0.31606">
        <ele>2102.1</ele>
        <time>2011-03-09T13:42:24Z</time>
      </trkpt>
      <trkpt lat="42.91158" lon="-0.31611">
        <ele>2099.7</ele>
        <time>2011-03-09T13:42:26Z</time>
      </trkpt>
      <trkpt lat="42.91144" lon="-0.31609">
        <ele>2097.7</ele>
        <time>2011-03-09T13:42:29Z</time>
      </trkpt>
      <trkpt lat="42.9114" lon="-0.31599">
        <ele>2096.8</ele>
        <time>2011-03-09T13:42:37Z</time>
      </trkpt>
      <trkpt lat="42.91138" lon="-0.31595">
        <ele>2094.9</ele>
        <time>2011-03-09T13:42:38Z</time>
      </trkpt>
      <trkpt lat="42.91136" lon="-0.31581">
        <ele>2088.6</ele>
        <time>2011-03-09T13:42:41Z</time>
      </trkpt>
      <trkpt lat="42.91137" lon="-0.3157">
        <ele>2083.3</ele>
        <time>2011-03-09T13:42:44Z</time>
      </trkpt>
      <trkpt lat="42.91138" lon="-0.31563">
        <ele>2078.5</ele>
        <time>2011-03-09T13:42:46Z</time>
      </trkpt>
      <trkpt lat="42.91141" lon="-0.31556">
        <ele>2074.7</ele>
        <time>2011-03-09T13:42:48Z</time>
      </trkpt>
      <trkpt lat="42.91141" lon="-0.31548">
        <ele>2070.3</ele>
        <time>2011-03-09T13:42:50Z</time>
      </trkpt>
      <trkpt lat="42.9114" lon="-0.3154">
        <ele>2065</ele>
        <time>2011-03-09T13:42:52Z</time>
      </trkpt>
      <trkpt lat="42.91134" lon="-0.3153">
        <ele>2060.2</ele>
        <time>2011-03-09T13:42:54Z</time>
      </trkpt>
      <trkpt lat="42.91133" lon="-0.31519">
        <ele>2056.4</ele>
        <time>2011-03-09T13:42:56Z</time>
      </trkpt>
      <trkpt lat="42.91127" lon="-0.31506">
        <ele>2053</ele>
        <time>2011-03-09T13:42:58Z</time>
      </trkpt>
      <trkpt lat="42.91129" lon="-0.31499">
        <ele>2049.7</ele>
        <time>2011-03-09T13:42:59Z</time>
      </trkpt>
      <trkpt lat="42.91131" lon="-0.31491">
        <ele>2048.2</ele>
        <time>2011-03-09T13:43:00Z</time>
      </trkpt>
      <trkpt lat="42.91142" lon="-0.31457">
        <ele>2042</ele>
        <time>2011-03-09T13:43:04Z</time>
      </trkpt>
      <trkpt lat="42.91144" lon="-0.31446">
        <ele>2038.6</ele>
        <time>2011-03-09T13:43:05Z</time>
      </trkpt>
      <trkpt lat="42.9114" lon="-0.3142">
        <ele>2034.8</ele>
        <time>2011-03-09T13:43:08Z</time>
      </trkpt>
      <trkpt lat="42.91145" lon="-0.31409">
        <ele>2032.4</ele>
        <time>2011-03-09T13:43:10Z</time>
      </trkpt>
      <trkpt lat="42.91147" lon="-0.31388">
        <ele>2030</ele>
        <time>2011-03-09T13:43:14Z</time>
      </trkpt>
      <trkpt lat="42.91149" lon="-0.31378">
        <ele>2026.6</ele>
        <time>2011-03-09T13:43:17Z</time>
      </trkpt>
      <trkpt lat="42.91146" lon="-0.31371">
        <ele>2025.2</ele>
        <time>2011-03-09T13:43:36Z</time>
      </trkpt>
      <trkpt lat="42.91133" lon="-0.31366">
        <ele>2022.8</ele>
        <time>2011-03-09T13:43:39Z</time>
      </trkpt>
      <trkpt lat="42.91129" lon="-0.31366">
        <ele>2021.8</ele>
        <time>2011-03-09T13:43:40Z</time>
      </trkpt>
      <trkpt lat="42.91124" lon="-0.31353">
        <ele>2017</ele>
        <time>2011-03-09T13:43:43Z</time>
      </trkpt>
      <trkpt lat="42.91125" lon="-0.31346">
        <ele>2017</ele>
        <time>2011-03-09T13:43:44Z</time>
      </trkpt>
      <trkpt lat="42.91128" lon="-0.31341">
        <ele>2017</ele>
        <time>2011-03-09T13:43:45Z</time>
      </trkpt>
      <trkpt lat="42.91146" lon="-0.31324">
        <ele>2016</ele>
        <time>2011-03-09T13:43:54Z</time>
      </trkpt>
      <trkpt lat="42.91149" lon="-0.3132">
        <ele>2015.1</ele>
        <time>2011-03-09T13:43:56Z</time>
      </trkpt>
      <trkpt lat="42.91148" lon="-0.31313">
        <ele>2013.6</ele>
        <time>2011-03-09T13:43:58Z</time>
      </trkpt>
      <trkpt lat="42.91159" lon="-0.31299">
        <ele>2007.9</ele>
        <time>2011-03-09T13:44:01Z</time>
      </trkpt>
      <trkpt lat="42.91175" lon="-0.31287">
        <ele>2001.6</ele>
        <time>2011-03-09T13:44:04Z</time>
      </trkpt>
      <trkpt lat="42.91189" lon="-0.31275">
        <ele>1996.3</ele>
        <time>2011-03-09T13:44:06Z</time>
      </trkpt>
      <trkpt lat="42.91202" lon="-0.31262">
        <ele>1992</ele>
        <time>2011-03-09T13:44:08Z</time>
      </trkpt>
      <trkpt lat="42.91215" lon="-0.31251">
        <ele>1986.7</ele>
        <time>2011-03-09T13:44:10Z</time>
      </trkpt>
      <trkpt lat="42.91225" lon="-0.31238">
        <ele>1979.5</ele>
        <time>2011-03-09T13:44:13Z</time>
      </trkpt>
      <trkpt lat="42.91238" lon="-0.31228">
        <ele>1973.7</ele>
        <time>2011-03-09T13:44:57Z</time>
      </trkpt>
      <trkpt lat="42.91252" lon="-0.31223">
        <ele>1968.4</ele>
        <time>2011-03-09T13:45:00Z</time>
      </trkpt>
      <trkpt lat="42.91273" lon="-0.31208">
        <ele>1959.8</ele>
        <time>2011-03-09T13:45:09Z</time>
      </trkpt>
      <trkpt lat="42.91284" lon="-0.31207">
        <ele>1954.5</ele>
        <time>2011-03-09T13:45:11Z</time>
      </trkpt>
      <trkpt lat="42.91295" lon="-0.31202">
        <ele>1949.7</ele>
        <time>2011-03-09T13:45:13Z</time>
      </trkpt>
      <trkpt lat="42.91299" lon="-0.31198">
        <ele>1946.8</ele>
        <time>2011-03-09T13:45:14Z</time>
      </trkpt>
      <trkpt lat="42.91309" lon="-0.31192">
        <ele>1943.4</ele>
        <time>2011-03-09T13:45:15Z</time>
      </trkpt>
      <trkpt lat="42.91317" lon="-0.31171">
        <ele>1935.8</ele>
        <time>2011-03-09T13:45:18Z</time>
      </trkpt>
      <trkpt lat="42.91317" lon="-0.31153">
        <ele>1932.4</ele>
        <time>2011-03-09T13:45:20Z</time>
      </trkpt>
      <trkpt lat="42.91331" lon="-0.31121">
        <ele>1924.7</ele>
        <time>2011-03-09T13:45:24Z</time>
      </trkpt>
      <trkpt lat="42.91346" lon="-0.31105">
        <ele>1919.9</ele>
        <time>2011-03-09T13:45:26Z</time>
      </trkpt>
      <trkpt lat="42.91353" lon="-0.31075">
        <ele>1915.1</ele>
        <time>2011-03-09T13:45:29Z</time>
      </trkpt>
      <trkpt lat="42.91354" lon="-0.31067">
        <ele>1914.6</ele>
        <time>2011-03-09T13:45:30Z</time>
      </trkpt>
      <trkpt lat="42.91364" lon="-0.31054">
        <ele>1909.8</ele>
        <time>2011-03-09T13:45:33Z</time>
      </trkpt>
      <trkpt lat="42.91369" lon="-0.31053">
        <ele>1906</ele>
        <time>2011-03-09T13:45:34Z</time>
      </trkpt>
      <trkpt lat="42.91375" lon="-0.31047">
        <ele>1900.7</ele>
        <time>2011-03-09T13:45:36Z</time>
      </trkpt>
      <trkpt lat="42.91382" lon="-0.31022">
        <ele>1897.3</ele>
        <time>2011-03-09T13:45:39Z</time>
      </trkpt>
      <trkpt lat="42.91395" lon="-0.30986">
        <ele>1891.5</ele>
        <time>2011-03-09T13:45:42Z</time>
      </trkpt>
      <trkpt lat="42.91404" lon="-0.3096">
        <ele>1888.6</ele>
        <time>2011-03-09T13:45:44Z</time>
      </trkpt>
      <trkpt lat="42.91407" lon="-0.30936">
        <ele>1884.3</ele>
        <time>2011-03-09T13:45:46Z</time>
      </trkpt>
      <trkpt lat="42.91416" lon="-0.30909">
        <ele>1880.5</ele>
        <time>2011-03-09T13:45:48Z</time>
      </trkpt>
      <trkpt lat="42.91414" lon="-0.30877">
        <ele>1877.1</ele>
        <time>2011-03-09T13:45:51Z</time>
      </trkpt>
      <trkpt lat="42.91409" lon="-0.30843">
        <ele>1874.2</ele>
        <time>2011-03-09T13:45:55Z</time>
      </trkpt>
      <trkpt lat="42.91413" lon="-0.30824">
        <ele>1870.9</ele>
        <time>2011-03-09T13:45:58Z</time>
      </trkpt>
      <trkpt lat="42.91403" lon="-0.30805">
        <ele>1868.9</ele>
        <time>2011-03-09T13:46:13Z</time>
      </trkpt>
      <trkpt lat="42.91406" lon="-0.30787">
        <ele>1867</ele>
        <time>2011-03-09T13:46:35Z</time>
      </trkpt>
      <trkpt lat="42.91405" lon="-0.30755">
        <ele>1864.1</ele>
        <time>2011-03-09T13:46:42Z</time>
      </trkpt>
      <trkpt lat="42.91413" lon="-0.30714">
        <ele>1860.8</ele>
        <time>2011-03-09T13:46:52Z</time>
      </trkpt>
      <trkpt lat="42.91421" lon="-0.30687">
        <ele>1859.8</ele>
        <time>2011-03-09T13:48:14Z</time>
      </trkpt>
      <trkpt lat="42.91424" lon="-0.30685">
        <ele>1859.3</ele>
        <time>2011-03-09T13:48:17Z</time>
      </trkpt>
      <trkpt lat="42.91427" lon="-0.3068">
        <ele>1858.4</ele>
        <time>2011-03-09T13:48:28Z</time>
      </trkpt>
      <trkpt lat="42.91425" lon="-0.30656">
        <ele>1856</ele>
        <time>2011-03-09T13:48:34Z</time>
      </trkpt>
      <trkpt lat="42.91429" lon="-0.3064">
        <ele>1855.5</ele>
        <time>2011-03-09T13:48:36Z</time>
      </trkpt>
      <trkpt lat="42.91431" lon="-0.30626">
        <ele>1854</ele>
        <time>2011-03-09T13:48:38Z</time>
      </trkpt>
      <trkpt lat="42.91435" lon="-0.30611">
        <ele>1853.1</ele>
        <time>2011-03-09T13:48:41Z</time>
      </trkpt>
      <trkpt lat="42.91443" lon="-0.30577">
        <ele>1852.1</ele>
        <time>2011-03-09T13:48:53Z</time>
      </trkpt>
      <trkpt lat="42.91443" lon="-0.30573">
        <ele>1851.6</ele>
        <time>2011-03-09T13:48:54Z</time>
      </trkpt>
      <trkpt lat="42.91443" lon="-0.30546">
        <ele>1848.3</ele>
        <time>2011-03-09T13:48:58Z</time>
      </trkpt>
      <trkpt lat="42.91442" lon="-0.30537">
        <ele>1848.3</ele>
        <time>2011-03-09T13:48:59Z</time>
      </trkpt>
      <trkpt lat="42.91443" lon="-0.30506">
        <ele>1845.9</ele>
        <time>2011-03-09T13:49:03Z</time>
      </trkpt>
      <trkpt lat="42.91441" lon="-0.30491">
        <ele>1844.9</ele>
        <time>2011-03-09T13:49:05Z</time>
      </trkpt>
      <trkpt lat="42.91436" lon="-0.30459">
        <ele>1843.5</ele>
        <time>2011-03-09T13:49:12Z</time>
      </trkpt>
      <trkpt lat="42.91435" lon="-0.30438">
        <ele>1841.5</ele>
        <time>2011-03-09T13:49:16Z</time>
      </trkpt>
      <trkpt lat="42.91436" lon="-0.30427">
        <ele>1841.1</ele>
        <time>2011-03-09T13:49:18Z</time>
      </trkpt>
      <trkpt lat="42.91437" lon="-0.30388">
        <ele>1837.7</ele>
        <time>2011-03-09T13:49:25Z</time>
      </trkpt>
      <trkpt lat="42.91438" lon="-0.3038">
        <ele>1836.7</ele>
        <time>2011-03-09T13:49:26Z</time>
      </trkpt>
      <trkpt lat="42.91444" lon="-0.3035">
        <ele>1833.9</ele>
        <time>2011-03-09T13:49:29Z</time>
      </trkpt>
      <trkpt lat="42.91442" lon="-0.30344">
        <ele>1831.9</ele>
        <time>2011-03-09T13:49:30Z</time>
      </trkpt>
      <trkpt lat="42.91441" lon="-0.30316">
        <ele>1830</ele>
        <time>2011-03-09T13:49:36Z</time>
      </trkpt>
      <trkpt lat="42.91441" lon="-0.3026">
        <ele>1827.1</ele>
        <time>2011-03-09T13:49:51Z</time>
      </trkpt>
      <trkpt lat="42.91441" lon="-0.30245">
        <ele>1826.6</ele>
        <time>2011-03-09T13:49:56Z</time>
      </trkpt>
      <trkpt lat="42.91442" lon="-0.30218">
        <ele>1826.2</ele>
        <time>2011-03-09T13:50:08Z</time>
      </trkpt>
      <trkpt lat="42.9144" lon="-0.30207">
        <ele>1825.2</ele>
        <time>2011-03-09T13:50:11Z</time>
      </trkpt>
      <trkpt lat="42.91438" lon="-0.30194">
        <ele>1822.8</ele>
        <time>2011-03-09T13:50:13Z</time>
      </trkpt>
      <trkpt lat="42.91437" lon="-0.30168">
        <ele>1821.4</ele>
        <time>2011-03-09T13:50:17Z</time>
      </trkpt>
      <trkpt lat="42.91434" lon="-0.30149">
        <ele>1819.9</ele>
        <time>2011-03-09T13:50:23Z</time>
      </trkpt>
      <trkpt lat="42.91428" lon="-0.30125">
        <ele>1814.6</ele>
        <time>2011-03-09T13:50:26Z</time>
      </trkpt>
      <trkpt lat="42.91426" lon="-0.30103">
        <ele>1813.2</ele>
        <time>2011-03-09T13:50:28Z</time>
      </trkpt>
      <trkpt lat="42.91426" lon="-0.30068">
        <ele>1810.8</ele>
        <time>2011-03-09T13:50:32Z</time>
      </trkpt>
      <trkpt lat="42.91423" lon="-0.30046">
        <ele>1809.3</ele>
        <time>2011-03-09T13:50:37Z</time>
      </trkpt>
      <trkpt lat="42.91416" lon="-0.30012">
        <ele>1805.5</ele>
        <time>2011-03-09T13:50:43Z</time>
      </trkpt>
      <trkpt lat="42.9141" lon="-0.29988">
        <ele>1804.1</ele>
        <time>2011-03-09T13:50:50Z</time>
      </trkpt>
      <trkpt lat="42.91406" lon="-0.29966">
        <ele>1800.2</ele>
        <time>2011-03-09T13:50:53Z</time>
      </trkpt>
      <trkpt lat="42.91403" lon="-0.29948">
        <ele>1796.8</ele>
        <time>2011-03-09T13:50:55Z</time>
      </trkpt>
      <trkpt lat="42.91402" lon="-0.29942">
        <ele>1796.8</ele>
        <time>2011-03-09T13:50:56Z</time>
      </trkpt>
      <trkpt lat="42.914" lon="-0.29931">
        <ele>1796.8</ele>
        <time>2011-03-09T13:51:04Z</time>
      </trkpt>
      <trkpt lat="42.91394" lon="-0.29908">
        <ele>1793.5</ele>
        <time>2011-03-09T13:51:34Z</time>
      </trkpt>
      <trkpt lat="42.9139" lon="-0.29902">
        <ele>1793.5</ele>
        <time>2011-03-09T13:51:38Z</time>
      </trkpt>
      <trkpt lat="42.9139" lon="-0.299">
        <ele>1793</ele>
        <time>2011-03-09T13:51:42Z</time>
      </trkpt>
      <trkpt lat="42.91391" lon="-0.29893">
        <ele>1790.6</ele>
        <time>2011-03-09T13:51:49Z</time>
      </trkpt>
      <trkpt lat="42.91393" lon="-0.29889">
        <ele>1786.7</ele>
        <time>2011-03-09T13:51:52Z</time>
      </trkpt>
      <trkpt lat="42.91407" lon="-0.29892">
        <ele>1782.9</ele>
        <time>2011-03-09T13:51:55Z</time>
      </trkpt>
      <trkpt lat="42.91421" lon="-0.29895">
        <ele>1774.3</ele>
        <time>2011-03-09T13:52:19Z</time>
      </trkpt>
      <trkpt lat="42.91428" lon="-0.29892">
        <ele>1772.3</ele>
        <time>2011-03-09T13:52:23Z</time>
      </trkpt>
      <trkpt lat="42.91425" lon="-0.2986">
        <ele>1764.2</ele>
        <time>2011-03-09T13:52:47Z</time>
      </trkpt>
      <trkpt lat="42.91414" lon="-0.29849">
        <ele>1760.3</ele>
        <time>2011-03-09T13:52:50Z</time>
      </trkpt>
      <trkpt lat="42.91404" lon="-0.29826">
        <ele>1757.4</ele>
        <time>2011-03-09T13:52:55Z</time>
      </trkpt>
      <trkpt lat="42.91409" lon="-0.29806">
        <ele>1755</ele>
        <time>2011-03-09T13:53:01Z</time>
      </trkpt>
      <trkpt lat="42.91415" lon="-0.29789">
        <ele>1754.1</ele>
        <time>2011-03-09T13:53:10Z</time>
      </trkpt>
      <trkpt lat="42.91421" lon="-0.29783">
        <ele>1755</ele>
        <time>2011-03-09T13:53:21Z</time>
      </trkpt>
      <trkpt lat="42.91427" lon="-0.29767">
        <ele>1754.5</ele>
        <time>2011-03-09T13:53:33Z</time>
      </trkpt>
      <trkpt lat="42.91431" lon="-0.29752">
        <ele>1755</ele>
        <time>2011-03-09T13:53:45Z</time>
      </trkpt>
      <trkpt lat="42.91433" lon="-0.2975">
        <ele>1754.5</ele>
        <time>2011-03-09T13:53:47Z</time>
      </trkpt>
      <trkpt lat="42.91432" lon="-0.29748">
        <ele>1754.5</ele>
        <time>2011-03-09T13:53:49Z</time>
      </trkpt>
      <trkpt lat="42.9143" lon="-0.29742">
        <ele>1754.5</ele>
        <time>2011-03-09T13:53:56Z</time>
      </trkpt>
      <trkpt lat="42.9143" lon="-0.29717">
        <ele>1750.2</ele>
        <time>2011-03-09T13:54:02Z</time>
      </trkpt>
      <trkpt lat="42.9143" lon="-0.2971">
        <ele>1748.8</ele>
        <time>2011-03-09T13:54:03Z</time>
      </trkpt>
      <trkpt lat="42.91428" lon="-0.29698">
        <ele>1747.8</ele>
        <time>2011-03-09T13:54:05Z</time>
      </trkpt>
      <trkpt lat="42.91424" lon="-0.29658">
        <ele>1744</ele>
        <time>2011-03-09T13:54:14Z</time>
      </trkpt>
      <trkpt lat="42.91424" lon="-0.29637">
        <ele>1742</ele>
        <time>2011-03-09T13:54:18Z</time>
      </trkpt>
      <trkpt lat="42.91425" lon="-0.29602">
        <ele>1738.7</ele>
        <time>2011-03-09T13:54:25Z</time>
      </trkpt>
      <trkpt lat="42.91426" lon="-0.29567">
        <ele>1737.2</ele>
        <time>2011-03-09T13:54:38Z</time>
      </trkpt>
      <trkpt lat="42.91428" lon="-0.29554">
        <ele>1737.2</ele>
        <time>2011-03-09T13:54:50Z</time>
      </trkpt>
      <trkpt lat="42.91428" lon="-0.29552">
        <ele>1737.7</ele>
        <time>2011-03-09T13:54:52Z</time>
      </trkpt>
      <trkpt lat="42.91422" lon="-0.29535">
        <ele>1737.2</ele>
        <time>2011-03-09T13:55:02Z</time>
      </trkpt>
      <trkpt lat="42.91419" lon="-0.29529">
        <ele>1737.7</ele>
        <time>2011-03-09T13:55:05Z</time>
      </trkpt>
      <trkpt lat="42.91417" lon="-0.2952">
        <ele>1737.2</ele>
        <time>2011-03-09T13:55:09Z</time>
      </trkpt>
      <trkpt lat="42.91418" lon="-0.29508">
        <ele>1738.2</ele>
        <time>2011-03-09T13:56:17Z</time>
      </trkpt>
      <trkpt lat="42.91418" lon="-0.29504">
        <ele>1738.2</ele>
        <time>2011-03-09T13:56:35Z</time>
      </trkpt>
      <trkpt lat="42.91416" lon="-0.29486">
        <ele>1737.7</ele>
        <time>2011-03-09T13:56:41Z</time>
      </trkpt>
      <trkpt lat="42.91415" lon="-0.29469">
        <ele>1736.8</ele>
        <time>2011-03-09T13:56:47Z</time>
      </trkpt>
      <trkpt lat="42.91415" lon="-0.29461">
        <ele>1737.2</ele>
        <time>2011-03-09T13:56:51Z</time>
      </trkpt>
      <trkpt lat="42.91415" lon="-0.29441">
        <ele>1737.2</ele>
        <time>2011-03-09T13:56:59Z</time>
      </trkpt>
      <trkpt lat="42.91416" lon="-0.29426">
        <ele>1736.8</ele>
        <time>2011-03-09T13:57:05Z</time>
      </trkpt>
      <trkpt lat="42.91425" lon="-0.29376">
        <ele>1733.4</ele>
        <time>2011-03-09T13:57:20Z</time>
      </trkpt>
      <trkpt lat="42.91425" lon="-0.2937">
        <ele>1733.9</ele>
        <time>2011-03-09T13:57:23Z</time>
      </trkpt>
      <trkpt lat="42.91423" lon="-0.29351">
        <ele>1732.9</ele>
        <time>2011-03-09T13:57:30Z</time>
      </trkpt>
      <trkpt lat="42.91424" lon="-0.29331">
        <ele>1732.4</ele>
        <time>2011-03-09T13:57:37Z</time>
      </trkpt>
      <trkpt lat="42.91423" lon="-0.29317">
        <ele>1732.9</ele>
        <time>2011-03-09T13:57:52Z</time>
      </trkpt>
      <trkpt lat="42.91424" lon="-0.29297">
        <ele>1731.5</ele>
        <time>2011-03-09T13:58:18Z</time>
      </trkpt>
      <trkpt lat="42.91425" lon="-0.29287">
        <ele>1731</ele>
        <time>2011-03-09T13:58:35Z</time>
      </trkpt>
      <trkpt lat="42.91423" lon="-0.29284">
        <ele>1731</ele>
        <time>2011-03-09T13:59:06Z</time>
      </trkpt>
      <trkpt lat="42.9142" lon="-0.29281">
        <ele>1731</ele>
        <time>2011-03-09T13:59:09Z</time>
      </trkpt>
      <trkpt lat="42.91417" lon="-0.29284">
        <ele>1731.5</ele>
        <time>2011-03-09T13:59:52Z</time>
      </trkpt>
      <trkpt lat="42.91417" lon="-0.29284">
        <ele>1730</ele>
        <time>2011-03-09T13:59:54Z</time>
      </trkpt>
      <trkpt lat="42.91406" lon="-0.29272">
        <ele>1730</ele>
        <time>2011-03-09T14:11:18Z</time>
      </trkpt>
      <trkpt lat="42.91403" lon="-0.2927">
        <ele>1730</ele>
        <time>2011-03-09T14:11:19Z</time>
      </trkpt>
      <trkpt lat="42.91385" lon="-0.2927">
        <ele>1726.7</ele>
        <time>2011-03-09T14:11:23Z</time>
      </trkpt>
      <trkpt lat="42.91372" lon="-0.2927">
        <ele>1724.7</ele>
        <time>2011-03-09T14:11:27Z</time>
      </trkpt>
      <trkpt lat="42.91356" lon="-0.29262">
        <ele>1722.3</ele>
        <time>2011-03-09T14:11:32Z</time>
      </trkpt>
      <trkpt lat="42.91343" lon="-0.29259">
        <ele>1720.4</ele>
        <time>2011-03-09T14:11:35Z</time>
      </trkpt>
      <trkpt lat="42.91339" lon="-0.29252">
        <ele>1719.9</ele>
        <time>2011-03-09T14:11:48Z</time>
      </trkpt>
      <trkpt lat="42.91339" lon="-0.29251">
        <ele>1719.9</ele>
        <time>2011-03-09T14:11:59Z</time>
      </trkpt>
      <trkpt lat="42.91341" lon="-0.29205">
        <ele>1716.6</ele>
        <time>2011-03-09T14:12:11Z</time>
      </trkpt>
      <trkpt lat="42.91338" lon="-0.29169">
        <ele>1713.2</ele>
        <time>2011-03-09T14:12:16Z</time>
      </trkpt>
      <trkpt lat="42.91336" lon="-0.29138">
        <ele>1707.9</ele>
        <time>2011-03-09T14:12:19Z</time>
      </trkpt>
      <trkpt lat="42.91336" lon="-0.29127">
        <ele>1707.9</ele>
        <time>2011-03-09T14:12:20Z</time>
      </trkpt>
      <trkpt lat="42.91333" lon="-0.29101">
        <ele>1705.5</ele>
        <time>2011-03-09T14:12:23Z</time>
      </trkpt>
      <trkpt lat="42.91337" lon="-0.29068">
        <ele>1705.5</ele>
        <time>2011-03-09T14:12:33Z</time>
      </trkpt>
      <trkpt lat="42.91338" lon="-0.29048">
        <ele>1706</ele>
        <time>2011-03-09T14:12:49Z</time>
      </trkpt>
      <trkpt lat="42.91336" lon="-0.2904">
        <ele>1705.5</ele>
        <time>2011-03-09T14:12:51Z</time>
      </trkpt>
      <trkpt lat="42.9132" lon="-0.2901">
        <ele>1701.7</ele>
        <time>2011-03-09T14:12:57Z</time>
      </trkpt>
      <trkpt lat="42.91316" lon="-0.29003">
        <ele>1699.7</ele>
        <time>2011-03-09T14:12:58Z</time>
      </trkpt>
      <trkpt lat="42.91311" lon="-0.28987">
        <ele>1698.3</ele>
        <time>2011-03-09T14:13:00Z</time>
      </trkpt>
      <trkpt lat="42.91311" lon="-0.28968">
        <ele>1694.5</ele>
        <time>2011-03-09T14:13:02Z</time>
      </trkpt>
      <trkpt lat="42.91311" lon="-0.28947">
        <ele>1689.7</ele>
        <time>2011-03-09T14:13:04Z</time>
      </trkpt>
      <trkpt lat="42.91305" lon="-0.28927">
        <ele>1689.7</ele>
        <time>2011-03-09T14:13:07Z</time>
      </trkpt>
      <trkpt lat="42.91303" lon="-0.28915">
        <ele>1688.7</ele>
        <time>2011-03-09T14:13:09Z</time>
      </trkpt>
      <trkpt lat="42.91302" lon="-0.28891">
        <ele>1686.8</ele>
        <time>2011-03-09T14:13:13Z</time>
      </trkpt>
      <trkpt lat="42.913" lon="-0.28851">
        <ele>1682.9</ele>
        <time>2011-03-09T14:13:19Z</time>
      </trkpt>
      <trkpt lat="42.91296" lon="-0.28822">
        <ele>1677.2</ele>
        <time>2011-03-09T14:13:22Z</time>
      </trkpt>
      <trkpt lat="42.91294" lon="-0.28814">
        <ele>1677.2</ele>
        <time>2011-03-09T14:13:23Z</time>
      </trkpt>
      <trkpt lat="42.91291" lon="-0.28799">
        <ele>1676.2</ele>
        <time>2011-03-09T14:13:25Z</time>
      </trkpt>
      <trkpt lat="42.91293" lon="-0.28762">
        <ele>1671.9</ele>
        <time>2011-03-09T14:13:31Z</time>
      </trkpt>
      <trkpt lat="42.91294" lon="-0.28757">
        <ele>1671.9</ele>
        <time>2011-03-09T14:13:32Z</time>
      </trkpt>
      <trkpt lat="42.91293" lon="-0.28724">
        <ele>1669</ele>
        <time>2011-03-09T14:13:44Z</time>
      </trkpt>
      <trkpt lat="42.91291" lon="-0.28714">
        <ele>1668.5</ele>
        <time>2011-03-09T14:13:55Z</time>
      </trkpt>
      <trkpt lat="42.91286" lon="-0.28693">
        <ele>1665.6</ele>
        <time>2011-03-09T14:14:08Z</time>
      </trkpt>
      <trkpt lat="42.91284" lon="-0.28688">
        <ele>1665.1</ele>
        <time>2011-03-09T14:14:09Z</time>
      </trkpt>
      <trkpt lat="42.91279" lon="-0.28656">
        <ele>1660.8</ele>
        <time>2011-03-09T14:14:13Z</time>
      </trkpt>
      <trkpt lat="42.91273" lon="-0.28631">
        <ele>1657.5</ele>
        <time>2011-03-09T14:14:16Z</time>
      </trkpt>
      <trkpt lat="42.91263" lon="-0.28603">
        <ele>1655.5</ele>
        <time>2011-03-09T14:14:20Z</time>
      </trkpt>
      <trkpt lat="42.91252" lon="-0.2857">
        <ele>1652.6</ele>
        <time>2011-03-09T14:14:25Z</time>
      </trkpt>
      <trkpt lat="42.91249" lon="-0.2854">
        <ele>1647.4</ele>
        <time>2011-03-09T14:14:28Z</time>
      </trkpt>
      <trkpt lat="42.91249" lon="-0.28518">
        <ele>1645.4</ele>
        <time>2011-03-09T14:14:30Z</time>
      </trkpt>
      <trkpt lat="42.91247" lon="-0.28487">
        <ele>1642.5</ele>
        <time>2011-03-09T14:14:33Z</time>
      </trkpt>
      <trkpt lat="42.91245" lon="-0.28478">
        <ele>1641.6</ele>
        <time>2011-03-09T14:14:34Z</time>
      </trkpt>
      <trkpt lat="42.91244" lon="-0.28453">
        <ele>1636.8</ele>
        <time>2011-03-09T14:14:37Z</time>
      </trkpt>
      <trkpt lat="42.91247" lon="-0.28423">
        <ele>1632.5</ele>
        <time>2011-03-09T14:14:45Z</time>
      </trkpt>
      <trkpt lat="42.91247" lon="-0.284">
        <ele>1628.6</ele>
        <time>2011-03-09T14:14:49Z</time>
      </trkpt>
      <trkpt lat="42.91246" lon="-0.28375">
        <ele>1624.8</ele>
        <time>2011-03-09T14:14:53Z</time>
      </trkpt>
      <trkpt lat="42.91248" lon="-0.2834">
        <ele>1619.5</ele>
        <time>2011-03-09T14:14:58Z</time>
      </trkpt>
      <trkpt lat="42.9125" lon="-0.28311">
        <ele>1616.1</ele>
        <time>2011-03-09T14:15:02Z</time>
      </trkpt>
      <trkpt lat="42.91252" lon="-0.28281">
        <ele>1612.7</ele>
        <time>2011-03-09T14:15:07Z</time>
      </trkpt>
      <trkpt lat="42.91254" lon="-0.28261">
        <ele>1609.9</ele>
        <time>2011-03-09T14:15:11Z</time>
      </trkpt>
      <trkpt lat="42.91268" lon="-0.28256">
        <ele>1605.1</ele>
        <time>2011-03-09T14:15:14Z</time>
      </trkpt>
      <trkpt lat="42.91275" lon="-0.28249">
        <ele>1599.3</ele>
        <time>2011-03-09T14:15:16Z</time>
      </trkpt>
      <trkpt lat="42.91285" lon="-0.28237">
        <ele>1589.2</ele>
        <time>2011-03-09T14:15:20Z</time>
      </trkpt>
      <trkpt lat="42.91287" lon="-0.28232">
        <ele>1586.3</ele>
        <time>2011-03-09T14:15:22Z</time>
      </trkpt>
      <trkpt lat="42.91287" lon="-0.2823">
        <ele>1586.3</ele>
        <time>2011-03-09T14:15:33Z</time>
      </trkpt>
      <trkpt lat="42.91285" lon="-0.28206">
        <ele>1582.9</ele>
        <time>2011-03-09T14:15:39Z</time>
      </trkpt>
      <trkpt lat="42.91285" lon="-0.28198">
        <ele>1581.5</ele>
        <time>2011-03-09T14:15:40Z</time>
      </trkpt>
      <trkpt lat="42.91285" lon="-0.28172">
        <ele>1577.7</ele>
        <time>2011-03-09T14:15:43Z</time>
      </trkpt>
      <trkpt lat="42.91288" lon="-0.28155">
        <ele>1574.8</ele>
        <time>2011-03-09T14:15:45Z</time>
      </trkpt>
      <trkpt lat="42.91297" lon="-0.28116">
        <ele>1570.9</ele>
        <time>2011-03-09T14:15:50Z</time>
      </trkpt>
      <trkpt lat="42.91302" lon="-0.28096">
        <ele>1568.5</ele>
        <time>2011-03-09T14:15:53Z</time>
      </trkpt>
      <trkpt lat="42.91306" lon="-0.28085">
        <ele>1567.1</ele>
        <time>2011-03-09T14:15:55Z</time>
      </trkpt>
      <trkpt lat="42.91312" lon="-0.28064">
        <ele>1564.7</ele>
        <time>2011-03-09T14:16:00Z</time>
      </trkpt>
      <trkpt lat="42.91316" lon="-0.28044">
        <ele>1561.8</ele>
        <time>2011-03-09T14:16:06Z</time>
      </trkpt>
      <trkpt lat="42.91319" lon="-0.28031">
        <ele>1560.4</ele>
        <time>2011-03-09T14:16:09Z</time>
      </trkpt>
      <trkpt lat="42.91322" lon="-0.28008">
        <ele>1557</ele>
        <time>2011-03-09T14:16:14Z</time>
      </trkpt>
      <trkpt lat="42.91327" lon="-0.27985">
        <ele>1554.1</ele>
        <time>2011-03-09T14:16:20Z</time>
      </trkpt>
      <trkpt lat="42.91334" lon="-0.27971">
        <ele>1551.2</ele>
        <time>2011-03-09T14:16:23Z</time>
      </trkpt>
      <trkpt lat="42.91343" lon="-0.27949">
        <ele>1548.8</ele>
        <time>2011-03-09T14:16:31Z</time>
      </trkpt>
      <trkpt lat="42.91343" lon="-0.27936">
        <ele>1549.3</ele>
        <time>2011-03-09T14:16:47Z</time>
      </trkpt>
      <trkpt lat="42.9135" lon="-0.27924">
        <ele>1550.7</ele>
        <time>2011-03-09T14:17:02Z</time>
      </trkpt>
      <trkpt lat="42.91351" lon="-0.2792">
        <ele>1550.3</ele>
        <time>2011-03-09T14:17:33Z</time>
      </trkpt>
      <trkpt lat="42.91348" lon="-0.27922">
        <ele>1550.3</ele>
        <time>2011-03-09T14:17:37Z</time>
      </trkpt>
      <trkpt lat="42.91353" lon="-0.2791">
        <ele>1549.3</ele>
        <time>2011-03-09T14:17:42Z</time>
      </trkpt>
      <trkpt lat="42.91355" lon="-0.27904">
        <ele>1549.3</ele>
        <time>2011-03-09T14:17:44Z</time>
      </trkpt>
      <trkpt lat="42.91363" lon="-0.27889">
        <ele>1548.8</ele>
        <time>2011-03-09T14:17:53Z</time>
      </trkpt>
      <trkpt lat="42.91364" lon="-0.27889">
        <ele>1548.3</ele>
        <time>2011-03-09T14:17:56Z</time>
      </trkpt>
      <trkpt lat="42.91376" lon="-0.2787">
        <ele>1545</ele>
        <time>2011-03-09T14:18:03Z</time>
      </trkpt>
      <trkpt lat="42.91383" lon="-0.27848">
        <ele>1541.1</ele>
        <time>2011-03-09T14:18:07Z</time>
      </trkpt>
      <trkpt lat="42.91385" lon="-0.27837">
        <ele>1539.7</ele>
        <time>2011-03-09T14:18:09Z</time>
      </trkpt>
      <trkpt lat="42.91391" lon="-0.27822">
        <ele>1537.8</ele>
        <time>2011-03-09T14:18:12Z</time>
      </trkpt>
      <trkpt lat="42.9139" lon="-0.27811">
        <ele>1537.3</ele>
        <time>2011-03-09T14:18:18Z</time>
      </trkpt>
      <trkpt lat="42.91397" lon="-0.27796">
        <ele>1536.8</ele>
        <time>2011-03-09T14:18:33Z</time>
      </trkpt>
      <trkpt lat="42.91405" lon="-0.27783">
        <ele>1536.3</ele>
        <time>2011-03-09T14:18:54Z</time>
      </trkpt>
      <trkpt lat="42.91406" lon="-0.27782">
        <ele>1536.8</ele>
        <time>2011-03-09T14:18:55Z</time>
      </trkpt>
      <trkpt lat="42.91406" lon="-0.27759">
        <ele>1536.8</ele>
        <time>2011-03-09T14:19:09Z</time>
      </trkpt>
      <trkpt lat="42.91406" lon="-0.27751">
        <ele>1537.3</ele>
        <time>2011-03-09T14:19:16Z</time>
      </trkpt>
      <trkpt lat="42.91406" lon="-0.27746">
        <ele>1537.3</ele>
        <time>2011-03-09T14:19:19Z</time>
      </trkpt>
      <trkpt lat="42.91407" lon="-0.27736">
        <ele>1537.3</ele>
        <time>2011-03-09T14:19:26Z</time>
      </trkpt>
      <trkpt lat="42.91412" lon="-0.27713">
        <ele>1535.4</ele>
        <time>2011-03-09T14:19:36Z</time>
      </trkpt>
      <trkpt lat="42.91415" lon="-0.2769">
        <ele>1533.4</ele>
        <time>2011-03-09T14:19:45Z</time>
      </trkpt>
      <trkpt lat="42.9142" lon="-0.27675">
        <ele>1532.5</ele>
        <time>2011-03-09T14:19:51Z</time>
      </trkpt>
      <trkpt lat="42.91425" lon="-0.27663">
        <ele>1531</ele>
        <time>2011-03-09T14:19:56Z</time>
      </trkpt>
      <trkpt lat="42.91428" lon="-0.27652">
        <ele>1530.6</ele>
        <time>2011-03-09T14:20:01Z</time>
      </trkpt>
      <trkpt lat="42.9143" lon="-0.27641">
        <ele>1530.1</ele>
        <time>2011-03-09T14:20:07Z</time>
      </trkpt>
      <trkpt lat="42.91431" lon="-0.27638">
        <ele>1529.6</ele>
        <time>2011-03-09T14:20:09Z</time>
      </trkpt>
      <trkpt lat="42.91432" lon="-0.27634">
        <ele>1529.6</ele>
        <time>2011-03-09T14:20:13Z</time>
      </trkpt>
      <trkpt lat="42.91433" lon="-0.27629">
        <ele>1530.1</ele>
        <time>2011-03-09T14:20:17Z</time>
      </trkpt>
      <trkpt lat="42.91435" lon="-0.27622">
        <ele>1529.1</ele>
        <time>2011-03-09T14:20:21Z</time>
      </trkpt>
      <trkpt lat="42.91436" lon="-0.27618">
        <ele>1529.1</ele>
        <time>2011-03-09T14:20:24Z</time>
      </trkpt>
      <trkpt lat="42.91439" lon="-0.27609">
        <ele>1528.2</ele>
        <time>2011-03-09T14:20:29Z</time>
      </trkpt>
      <trkpt lat="42.91442" lon="-0.27601">
        <ele>1527.7</ele>
        <time>2011-03-09T14:20:33Z</time>
      </trkpt>
      <trkpt lat="42.91452" lon="-0.27568">
        <ele>1524.3</ele>
        <time>2011-03-09T14:20:43Z</time>
      </trkpt>
      <trkpt lat="42.91456" lon="-0.27552">
        <ele>1522.4</ele>
        <time>2011-03-09T14:20:47Z</time>
      </trkpt>
      <trkpt lat="42.91464" lon="-0.2753">
        <ele>1520</ele>
        <time>2011-03-09T14:20:54Z</time>
      </trkpt>
      <trkpt lat="42.91466" lon="-0.27524">
        <ele>1520</ele>
        <time>2011-03-09T14:20:57Z</time>
      </trkpt>
      <trkpt lat="42.91453" lon="-0.27499">
        <ele>1517.6</ele>
        <time>2011-03-09T14:21:13Z</time>
      </trkpt>
      <trkpt lat="42.91452" lon="-0.27493">
        <ele>1517.1</ele>
        <time>2011-03-09T14:21:14Z</time>
      </trkpt>
      <trkpt lat="42.91445" lon="-0.27472">
        <ele>1513.7</ele>
        <time>2011-03-09T14:21:17Z</time>
      </trkpt>
      <trkpt lat="42.91442" lon="-0.2746">
        <ele>1512.3</ele>
        <time>2011-03-09T14:21:19Z</time>
      </trkpt>
      <trkpt lat="42.91434" lon="-0.27446">
        <ele>1510.8</ele>
        <time>2011-03-09T14:21:28Z</time>
      </trkpt>
      <trkpt lat="42.91431" lon="-0.27432">
        <ele>1512.3</ele>
        <time>2011-03-09T14:21:41Z</time>
      </trkpt>
      <trkpt lat="42.9143" lon="-0.27422">
        <ele>1510.4</ele>
        <time>2011-03-09T14:21:52Z</time>
      </trkpt>
      <trkpt lat="42.9143" lon="-0.27419">
        <ele>1510.4</ele>
        <time>2011-03-09T14:21:54Z</time>
      </trkpt>
      <trkpt lat="42.91428" lon="-0.27401">
        <ele>1510.4</ele>
        <time>2011-03-09T14:22:08Z</time>
      </trkpt>
      <trkpt lat="42.91422" lon="-0.27384">
        <ele>1510.4</ele>
        <time>2011-03-09T14:22:23Z</time>
      </trkpt>
      <trkpt lat="42.91421" lon="-0.27382">
        <ele>1510.4</ele>
        <time>2011-03-09T14:22:25Z</time>
      </trkpt>
      <trkpt lat="42.91416" lon="-0.27368">
        <ele>1506.5</ele>
        <time>2011-03-09T14:22:30Z</time>
      </trkpt>
      <trkpt lat="42.91409" lon="-0.27349">
        <ele>1502.7</ele>
        <time>2011-03-09T14:22:34Z</time>
      </trkpt>
      <trkpt lat="42.91406" lon="-0.27341">
        <ele>1500.8</ele>
        <time>2011-03-09T14:22:37Z</time>
      </trkpt>
      <trkpt lat="42.91404" lon="-0.27311">
        <ele>1497.4</ele>
        <time>2011-03-09T14:22:42Z</time>
      </trkpt>
      <trkpt lat="42.91401" lon="-0.27304">
        <ele>1497.4</ele>
        <time>2011-03-09T14:22:43Z</time>
      </trkpt>
      <trkpt lat="42.91396" lon="-0.27295">
        <ele>1495.9</ele>
        <time>2011-03-09T14:22:45Z</time>
      </trkpt>
      <trkpt lat="42.91398" lon="-0.27289">
        <ele>1494.5</ele>
        <time>2011-03-09T14:22:51Z</time>
      </trkpt>
      <trkpt lat="42.91402" lon="-0.27289">
        <ele>1493.1</ele>
        <time>2011-03-09T14:22:53Z</time>
      </trkpt>
      <trkpt lat="42.91413" lon="-0.27281">
        <ele>1488.7</ele>
        <time>2011-03-09T14:22:57Z</time>
      </trkpt>
      <trkpt lat="42.91415" lon="-0.27266">
        <ele>1485.4</ele>
        <time>2011-03-09T14:23:01Z</time>
      </trkpt>
      <trkpt lat="42.91412" lon="-0.27262">
        <ele>1483.9</ele>
        <time>2011-03-09T14:23:03Z</time>
      </trkpt>
      <trkpt lat="42.9141" lon="-0.27261">
        <ele>1483</ele>
        <time>2011-03-09T14:23:05Z</time>
      </trkpt>
      <trkpt lat="42.91409" lon="-0.27251">
        <ele>1478.6</ele>
        <time>2011-03-09T14:23:08Z</time>
      </trkpt>
      <trkpt lat="42.91408" lon="-0.27251">
        <ele>1478.2</ele>
        <time>2011-03-09T14:23:09Z</time>
      </trkpt>
      <trkpt lat="42.91409" lon="-0.27252">
        <ele>1478.2</ele>
        <time>2011-03-09T14:23:20Z</time>
      </trkpt>
      <trkpt lat="42.91414" lon="-0.27247">
        <ele>1476.2</ele>
        <time>2011-03-09T14:23:24Z</time>
      </trkpt>
      <trkpt lat="42.91414" lon="-0.2724">
        <ele>1475.3</ele>
        <time>2011-03-09T14:23:35Z</time>
      </trkpt>
      <trkpt lat="42.91414" lon="-0.27235">
        <ele>1474.3</ele>
        <time>2011-03-09T14:23:41Z</time>
      </trkpt>
      <trkpt lat="42.91413" lon="-0.27231">
        <ele>1472.4</ele>
        <time>2011-03-09T14:23:48Z</time>
      </trkpt>
      <trkpt lat="42.91404" lon="-0.27213">
        <ele>1468.6</ele>
        <time>2011-03-09T14:23:57Z</time>
      </trkpt>
      <trkpt lat="42.91394" lon="-0.27198">
        <ele>1466.1</ele>
        <time>2011-03-09T14:24:05Z</time>
      </trkpt>
      <trkpt lat="42.91388" lon="-0.27189">
        <ele>1465.2</ele>
        <time>2011-03-09T14:24:08Z</time>
      </trkpt>
      <trkpt lat="42.91384" lon="-0.27164">
        <ele>1462.3</ele>
        <time>2011-03-09T14:24:15Z</time>
      </trkpt>
      <trkpt lat="42.91383" lon="-0.27159">
        <ele>1461.3</ele>
        <time>2011-03-09T14:24:16Z</time>
      </trkpt>
      <trkpt lat="42.91376" lon="-0.2712">
        <ele>1456.1</ele>
        <time>2011-03-09T14:24:22Z</time>
      </trkpt>
      <trkpt lat="42.91373" lon="-0.2711">
        <ele>1455.1</ele>
        <time>2011-03-09T14:24:24Z</time>
      </trkpt>
      <trkpt lat="42.91369" lon="-0.271">
        <ele>1452.2</ele>
        <time>2011-03-09T14:24:26Z</time>
      </trkpt>
      <trkpt lat="42.91367" lon="-0.2708">
        <ele>1446.9</ele>
        <time>2011-03-09T14:24:29Z</time>
      </trkpt>
      <trkpt lat="42.91367" lon="-0.27072">
        <ele>1445</ele>
        <time>2011-03-09T14:24:30Z</time>
      </trkpt>
      <trkpt lat="42.91368" lon="-0.27056">
        <ele>1440.2</ele>
        <time>2011-03-09T14:24:32Z</time>
      </trkpt>
      <trkpt lat="42.91365" lon="-0.27034">
        <ele>1434.9</ele>
        <time>2011-03-09T14:24:35Z</time>
      </trkpt>
      <trkpt lat="42.91364" lon="-0.27017">
        <ele>1429.6</ele>
        <time>2011-03-09T14:24:37Z</time>
      </trkpt>
      <trkpt lat="42.91359" lon="-0.27">
        <ele>1426.3</ele>
        <time>2011-03-09T14:24:39Z</time>
      </trkpt>
      <trkpt lat="42.91353" lon="-0.26972">
        <ele>1421.9</ele>
        <time>2011-03-09T14:24:42Z</time>
      </trkpt>
      <trkpt lat="42.91348" lon="-0.26935">
        <ele>1417.1</ele>
        <time>2011-03-09T14:24:46Z</time>
      </trkpt>
      <trkpt lat="42.91346" lon="-0.26924">
        <ele>1416.2</ele>
        <time>2011-03-09T14:24:48Z</time>
      </trkpt>
      <trkpt lat="42.91343" lon="-0.26906">
        <ele>1411.4</ele>
        <time>2011-03-09T14:24:51Z</time>
      </trkpt>
      <trkpt lat="42.91338" lon="-0.26876">
        <ele>1407</ele>
        <time>2011-03-09T14:24:55Z</time>
      </trkpt>
      <trkpt lat="42.91333" lon="-0.26854">
        <ele>1403.7</ele>
        <time>2011-03-09T14:24:58Z</time>
      </trkpt>
      <trkpt lat="42.91331" lon="-0.26842">
        <ele>1402.2</ele>
        <time>2011-03-09T14:25:00Z</time>
      </trkpt>
      <trkpt lat="42.91329" lon="-0.26821">
        <ele>1400.3</ele>
        <time>2011-03-09T14:25:09Z</time>
      </trkpt>
      <trkpt lat="42.91323" lon="-0.26791">
        <ele>1396.9</ele>
        <time>2011-03-09T14:25:16Z</time>
      </trkpt>
      <trkpt lat="42.91321" lon="-0.26786">
        <ele>1396.5</ele>
        <time>2011-03-09T14:25:17Z</time>
      </trkpt>
      <trkpt lat="42.91313" lon="-0.26751">
        <ele>1392.6</ele>
        <time>2011-03-09T14:25:22Z</time>
      </trkpt>
      <trkpt lat="42.91305" lon="-0.26731">
        <ele>1389.7</ele>
        <time>2011-03-09T14:25:25Z</time>
      </trkpt>
      <trkpt lat="42.91297" lon="-0.26699">
        <ele>1387.8</ele>
        <time>2011-03-09T14:25:33Z</time>
      </trkpt>
      <trkpt lat="42.91292" lon="-0.26688">
        <ele>1386.4</ele>
        <time>2011-03-09T14:25:36Z</time>
      </trkpt>
      <trkpt lat="42.91289" lon="-0.26678">
        <ele>1386.4</ele>
        <time>2011-03-09T14:25:49Z</time>
      </trkpt>
      <trkpt lat="42.9129" lon="-0.26679">
        <ele>1386.8</ele>
        <time>2011-03-09T14:26:08Z</time>
      </trkpt>
      <trkpt lat="42.91287" lon="-0.26671">
        <ele>1387.3</ele>
        <time>2011-03-09T14:26:24Z</time>
      </trkpt>
      <trkpt lat="42.91281" lon="-0.26661">
        <ele>1388.8</ele>
        <time>2011-03-09T14:26:39Z</time>
      </trkpt>
      <trkpt lat="42.9128" lon="-0.26652">
        <ele>1390.7</ele>
        <time>2011-03-09T14:26:55Z</time>
      </trkpt>
      <trkpt lat="42.91278" lon="-0.26643">
        <ele>1391.2</ele>
        <time>2011-03-09T14:27:05Z</time>
      </trkpt>
      <trkpt lat="42.91272" lon="-0.26635">
        <ele>1391.2</ele>
        <time>2011-03-09T14:27:13Z</time>
      </trkpt>
      <trkpt lat="42.91262" lon="-0.26621">
        <ele>1391.6</ele>
        <time>2011-03-09T14:27:29Z</time>
      </trkpt>
      <trkpt lat="42.91261" lon="-0.26618">
        <ele>1391.2</ele>
        <time>2011-03-09T14:27:47Z</time>
      </trkpt>
      <trkpt lat="42.91246" lon="-0.26607">
        <ele>1388.8</ele>
        <time>2011-03-09T14:28:22Z</time>
      </trkpt>
      <trkpt lat="42.91237" lon="-0.26602">
        <ele>1385.4</ele>
        <time>2011-03-09T14:28:30Z</time>
      </trkpt>
      <trkpt lat="42.91229" lon="-0.26591">
        <ele>1382</ele>
        <time>2011-03-09T14:28:39Z</time>
      </trkpt>
      <trkpt lat="42.9122" lon="-0.2658">
        <ele>1378.7</ele>
        <time>2011-03-09T14:28:49Z</time>
      </trkpt>
      <trkpt lat="42.91215" lon="-0.26571">
        <ele>1375.8</ele>
        <time>2011-03-09T14:28:59Z</time>
      </trkpt>
      <trkpt lat="42.91212" lon="-0.26561">
        <ele>1373.9</ele>
        <time>2011-03-09T14:29:05Z</time>
      </trkpt>
      <trkpt lat="42.91207" lon="-0.26556">
        <ele>1371.9</ele>
        <time>2011-03-09T14:29:12Z</time>
      </trkpt>
      <trkpt lat="42.91207" lon="-0.26554">
        <ele>1371.5</ele>
        <time>2011-03-09T14:29:14Z</time>
      </trkpt>
      <trkpt lat="42.91201" lon="-0.2655">
        <ele>1369.5</ele>
        <time>2011-03-09T14:29:20Z</time>
      </trkpt>
      <trkpt lat="42.91198" lon="-0.26548">
        <ele>1369.1</ele>
        <time>2011-03-09T14:29:23Z</time>
      </trkpt>
      <trkpt lat="42.91194" lon="-0.26552">
        <ele>1368.1</ele>
        <time>2011-03-09T14:29:36Z</time>
      </trkpt>
      <trkpt lat="42.91185" lon="-0.26548">
        <ele>1365.2</ele>
        <time>2011-03-09T14:32:46Z</time>
      </trkpt>
      <trkpt lat="42.91178" lon="-0.26546">
        <ele>1362.8</ele>
        <time>2011-03-09T14:32:53Z</time>
      </trkpt>
      <trkpt lat="42.91173" lon="-0.26543">
        <ele>1361.8</ele>
        <time>2011-03-09T14:32:56Z</time>
      </trkpt>
      <trkpt lat="42.91157" lon="-0.26537">
        <ele>1359</ele>
        <time>2011-03-09T14:33:07Z</time>
      </trkpt>
      <trkpt lat="42.91154" lon="-0.26538">
        <ele>1358</ele>
        <time>2011-03-09T14:33:09Z</time>
      </trkpt>
      <trkpt lat="42.91142" lon="-0.26533">
        <ele>1354.6</ele>
        <time>2011-03-09T14:33:18Z</time>
      </trkpt>
      <trkpt lat="42.91138" lon="-0.26531">
        <ele>1353.7</ele>
        <time>2011-03-09T14:33:21Z</time>
      </trkpt>
      <trkpt lat="42.91131" lon="-0.26524">
        <ele>1352.2</ele>
        <time>2011-03-09T14:33:28Z</time>
      </trkpt>
      <trkpt lat="42.91119" lon="-0.26502">
        <ele>1348.4</ele>
        <time>2011-03-09T14:33:39Z</time>
      </trkpt>
      <trkpt lat="42.91111" lon="-0.26488">
        <ele>1345</ele>
        <time>2011-03-09T14:33:48Z</time>
      </trkpt>
      <trkpt lat="42.91105" lon="-0.26475">
        <ele>1342.1</ele>
        <time>2011-03-09T14:33:58Z</time>
      </trkpt>
      <trkpt lat="42.911" lon="-0.26461">
        <ele>1339.3</ele>
        <time>2011-03-09T14:34:08Z</time>
      </trkpt>
      <trkpt lat="42.91101" lon="-0.26459">
        <ele>1338.8</ele>
        <time>2011-03-09T14:34:09Z</time>
      </trkpt>
      <trkpt lat="42.91098" lon="-0.26453">
        <ele>1337.8</ele>
        <time>2011-03-09T14:34:13Z</time>
      </trkpt>
      <trkpt lat="42.91106" lon="-0.26444">
        <ele>1335.4</ele>
        <time>2011-03-09T14:34:22Z</time>
      </trkpt>
      <trkpt lat="42.91116" lon="-0.26435">
        <ele>1332.5</ele>
        <time>2011-03-09T14:34:33Z</time>
      </trkpt>
      <trkpt lat="42.91127" lon="-0.26422">
        <ele>1329.6</ele>
        <time>2011-03-09T14:34:43Z</time>
      </trkpt>
      <trkpt lat="42.91139" lon="-0.26418">
        <ele>1326.8</ele>
        <time>2011-03-09T14:34:54Z</time>
      </trkpt>
      <trkpt lat="42.91148" lon="-0.26401">
        <ele>1324.4</ele>
        <time>2011-03-09T14:35:08Z</time>
      </trkpt>
      <trkpt lat="42.91163" lon="-0.26387">
        <ele>1322.9</ele>
        <time>2011-03-09T14:35:24Z</time>
      </trkpt>
      <trkpt lat="42.9117" lon="-0.26383">
        <ele>1322.4</ele>
        <time>2011-03-09T14:35:31Z</time>
      </trkpt>
      <trkpt lat="42.91174" lon="-0.26381">
        <ele>1322.4</ele>
        <time>2011-03-09T14:35:33Z</time>
      </trkpt>
      <trkpt lat="42.91186" lon="-0.26375">
        <ele>1320.5</ele>
        <time>2011-03-09T14:35:46Z</time>
      </trkpt>
      <trkpt lat="42.912" lon="-0.26371">
        <ele>1318.1</ele>
        <time>2011-03-09T14:36:01Z</time>
      </trkpt>
      <trkpt lat="42.91202" lon="-0.2637">
        <ele>1318.1</ele>
        <time>2011-03-09T14:36:02Z</time>
      </trkpt>
      <trkpt lat="42.91205" lon="-0.26366">
        <ele>1317.1</ele>
        <time>2011-03-09T14:36:05Z</time>
      </trkpt>
      <trkpt lat="42.91207" lon="-0.26363">
        <ele>1316.7</ele>
        <time>2011-03-09T14:36:08Z</time>
      </trkpt>
      <trkpt lat="42.91208" lon="-0.26357">
        <ele>1315.2</ele>
        <time>2011-03-09T14:36:12Z</time>
      </trkpt>
      <trkpt lat="42.91209" lon="-0.2635">
        <ele>1314.7</ele>
        <time>2011-03-09T14:36:16Z</time>
      </trkpt>
      <trkpt lat="42.91208" lon="-0.26339">
        <ele>1313.8</ele>
        <time>2011-03-09T14:36:22Z</time>
      </trkpt>
      <trkpt lat="42.91209" lon="-0.26335">
        <ele>1312.8</ele>
        <time>2011-03-09T14:36:25Z</time>
      </trkpt>
      <trkpt lat="42.91212" lon="-0.26333">
        <ele>1311.9</ele>
        <time>2011-03-09T14:36:28Z</time>
      </trkpt>
      <trkpt lat="42.91217" lon="-0.26327">
        <ele>1309.9</ele>
        <time>2011-03-09T14:36:33Z</time>
      </trkpt>
      <trkpt lat="42.9122" lon="-0.26324">
        <ele>1309</ele>
        <time>2011-03-09T14:36:36Z</time>
      </trkpt>
      <trkpt lat="42.91224" lon="-0.26318">
        <ele>1307.5</ele>
        <time>2011-03-09T14:36:40Z</time>
      </trkpt>
      <trkpt lat="42.91225" lon="-0.26316">
        <ele>1307</ele>
        <time>2011-03-09T14:36:42Z</time>
      </trkpt>
      <trkpt lat="42.91228" lon="-0.26303">
        <ele>1304.6</ele>
        <time>2011-03-09T14:36:51Z</time>
      </trkpt>
      <trkpt lat="42.91236" lon="-0.26287">
        <ele>1301.3</ele>
        <time>2011-03-09T14:37:02Z</time>
      </trkpt>
      <trkpt lat="42.91238" lon="-0.26285">
        <ele>1300.8</ele>
        <time>2011-03-09T14:37:04Z</time>
      </trkpt>
      <trkpt lat="42.91243" lon="-0.26269">
        <ele>1297.9</ele>
        <time>2011-03-09T14:37:14Z</time>
      </trkpt>
      <trkpt lat="42.91243" lon="-0.26264">
        <ele>1297.4</ele>
        <time>2011-03-09T14:37:15Z</time>
      </trkpt>
      <trkpt lat="42.91249" lon="-0.26257">
        <ele>1295</ele>
        <time>2011-03-09T14:37:21Z</time>
      </trkpt>
      <trkpt lat="42.9125" lon="-0.26252">
        <ele>1293.6</ele>
        <time>2011-03-09T14:37:24Z</time>
      </trkpt>
      <trkpt lat="42.91264" lon="-0.26232">
        <ele>1288.3</ele>
        <time>2011-03-09T14:37:40Z</time>
      </trkpt>
      <trkpt lat="42.91265" lon="-0.26223">
        <ele>1286.9</ele>
        <time>2011-03-09T14:37:44Z</time>
      </trkpt>
      <trkpt lat="42.91268" lon="-0.262">
        <ele>1284</ele>
        <time>2011-03-09T14:37:55Z</time>
      </trkpt>
      <trkpt lat="42.91268" lon="-0.2619">
        <ele>1283</ele>
        <time>2011-03-09T14:38:01Z</time>
      </trkpt>
      <trkpt lat="42.91269" lon="-0.26186">
        <ele>1282.5</ele>
        <time>2011-03-09T14:38:04Z</time>
      </trkpt>
      <trkpt lat="42.91264" lon="-0.2617">
        <ele>1282.5</ele>
        <time>2011-03-09T14:38:15Z</time>
      </trkpt>
      <trkpt lat="42.91264" lon="-0.26158">
        <ele>1282.1</ele>
        <time>2011-03-09T14:38:20Z</time>
      </trkpt>
      <trkpt lat="42.91264" lon="-0.26151">
        <ele>1282.1</ele>
        <time>2011-03-09T14:38:23Z</time>
      </trkpt>
      <trkpt lat="42.91266" lon="-0.26143">
        <ele>1280.6</ele>
        <time>2011-03-09T14:38:28Z</time>
      </trkpt>
      <trkpt lat="42.91265" lon="-0.2614">
        <ele>1280.1</ele>
        <time>2011-03-09T14:38:30Z</time>
      </trkpt>
      <trkpt lat="42.91262" lon="-0.26133">
        <ele>1278.2</ele>
        <time>2011-03-09T14:38:35Z</time>
      </trkpt>
      <trkpt lat="42.91247" lon="-0.26132">
        <ele>1275.3</ele>
        <time>2011-03-09T14:38:45Z</time>
      </trkpt>
      <trkpt lat="42.91244" lon="-0.26135">
        <ele>1274.4</ele>
        <time>2011-03-09T14:38:47Z</time>
      </trkpt>
      <trkpt lat="42.91239" lon="-0.26134">
        <ele>1272.9</ele>
        <time>2011-03-09T14:38:50Z</time>
      </trkpt>
      <trkpt lat="42.91232" lon="-0.26142">
        <ele>1271</ele>
        <time>2011-03-09T14:38:55Z</time>
      </trkpt>
      <trkpt lat="42.91223" lon="-0.26145">
        <ele>1267.6</ele>
        <time>2011-03-09T14:39:02Z</time>
      </trkpt>
      <trkpt lat="42.91221" lon="-0.26144">
        <ele>1267.6</ele>
        <time>2011-03-09T14:39:03Z</time>
      </trkpt>
      <trkpt lat="42.9121" lon="-0.2614">
        <ele>1264.8</ele>
        <time>2011-03-09T14:39:10Z</time>
      </trkpt>
      <trkpt lat="42.91202" lon="-0.26135">
        <ele>1261.9</ele>
        <time>2011-03-09T14:39:16Z</time>
      </trkpt>
      <trkpt lat="42.91195" lon="-0.26137">
        <ele>1259.5</ele>
        <time>2011-03-09T14:39:21Z</time>
      </trkpt>
      <trkpt lat="42.91184" lon="-0.26139">
        <ele>1256.1</ele>
        <time>2011-03-09T14:39:29Z</time>
      </trkpt>
      <trkpt lat="42.91177" lon="-0.26131">
        <ele>1253.2</ele>
        <time>2011-03-09T14:39:37Z</time>
      </trkpt>
      <trkpt lat="42.91176" lon="-0.26113">
        <ele>1250.8</ele>
        <time>2011-03-09T14:39:47Z</time>
      </trkpt>
      <trkpt lat="42.91189" lon="-0.26094">
        <ele>1247.4</ele>
        <time>2011-03-09T14:40:03Z</time>
      </trkpt>
      <trkpt lat="42.91198" lon="-0.2609">
        <ele>1246.5</ele>
        <time>2011-03-09T14:40:08Z</time>
      </trkpt>
      <trkpt lat="42.91213" lon="-0.26074">
        <ele>1243.1</ele>
        <time>2011-03-09T14:40:20Z</time>
      </trkpt>
      <trkpt lat="42.91229" lon="-0.26065">
        <ele>1239.8</ele>
        <time>2011-03-09T14:40:30Z</time>
      </trkpt>
      <trkpt lat="42.91233" lon="-0.26061">
        <ele>1238.3</ele>
        <time>2011-03-09T14:40:35Z</time>
      </trkpt>
      <trkpt lat="42.91242" lon="-0.2605">
        <ele>1235.9</ele>
        <time>2011-03-09T14:40:44Z</time>
      </trkpt>
      <trkpt lat="42.91251" lon="-0.26033">
        <ele>1232.5</ele>
        <time>2011-03-09T14:40:53Z</time>
      </trkpt>
      <trkpt lat="42.91252" lon="-0.26027">
        <ele>1231.1</ele>
        <time>2011-03-09T14:40:56Z</time>
      </trkpt>
      <trkpt lat="42.91262" lon="-0.2601">
        <ele>1229.2</ele>
        <time>2011-03-09T14:41:08Z</time>
      </trkpt>
      <trkpt lat="42.91265" lon="-0.25995">
        <ele>1225.8</ele>
        <time>2011-03-09T14:41:17Z</time>
      </trkpt>
      <trkpt lat="42.91269" lon="-0.25987">
        <ele>1225.8</ele>
        <time>2011-03-09T14:41:23Z</time>
      </trkpt>
      <trkpt lat="42.91268" lon="-0.2598">
        <ele>1225.3</ele>
        <time>2011-03-09T14:41:27Z</time>
      </trkpt>
      <trkpt lat="42.91265" lon="-0.25971">
        <ele>1224.4</ele>
        <time>2011-03-09T14:41:42Z</time>
      </trkpt>
      <trkpt lat="42.91263" lon="-0.25968">
        <ele>1223.9</ele>
        <time>2011-03-09T14:41:58Z</time>
      </trkpt>
      <trkpt lat="42.91261" lon="-0.25966">
        <ele>1223.4</ele>
        <time>2011-03-09T14:42:00Z</time>
      </trkpt>
      <trkpt lat="42.91243" lon="-0.2595">
        <ele>1220.5</ele>
        <time>2011-03-09T14:42:14Z</time>
      </trkpt>
      <trkpt lat="42.91234" lon="-0.25949">
        <ele>1219.1</ele>
        <time>2011-03-09T14:42:27Z</time>
      </trkpt>
      <trkpt lat="42.91233" lon="-0.25947">
        <ele>1218.1</ele>
        <time>2011-03-09T14:42:36Z</time>
      </trkpt>
      <trkpt lat="42.91231" lon="-0.25942">
        <ele>1217.2</ele>
        <time>2011-03-09T14:42:48Z</time>
      </trkpt>
      <trkpt lat="42.9124" lon="-0.25935">
        <ele>1217.6</ele>
        <time>2011-03-09T14:42:58Z</time>
      </trkpt>
      <trkpt lat="42.9125" lon="-0.25931">
        <ele>1217.6</ele>
        <time>2011-03-09T14:43:04Z</time>
      </trkpt>
      <trkpt lat="42.91256" lon="-0.25923">
        <ele>1217.6</ele>
        <time>2011-03-09T14:43:14Z</time>
      </trkpt>
      <trkpt lat="42.91264" lon="-0.25916">
        <ele>1217.2</ele>
        <time>2011-03-09T14:43:22Z</time>
      </trkpt>
      <trkpt lat="42.91267" lon="-0.25914">
        <ele>1217.6</ele>
        <time>2011-03-09T14:43:25Z</time>
      </trkpt>
      <trkpt lat="42.91289" lon="-0.25909">
        <ele>1218.1</ele>
        <time>2011-03-09T14:43:44Z</time>
      </trkpt>
      <trkpt lat="42.91308" lon="-0.25901">
        <ele>1217.6</ele>
        <time>2011-03-09T14:44:00Z</time>
      </trkpt>
      <trkpt lat="42.91316" lon="-0.25898">
        <ele>1217.6</ele>
        <time>2011-03-09T14:44:06Z</time>
      </trkpt>
      <trkpt lat="42.91336" lon="-0.25891">
        <ele>1217.2</ele>
        <time>2011-03-09T14:44:22Z</time>
      </trkpt>
      <trkpt lat="42.91355" lon="-0.25887">
        <ele>1217.2</ele>
        <time>2011-03-09T14:44:36Z</time>
      </trkpt>
      <trkpt lat="42.91379" lon="-0.25884">
        <ele>1217.2</ele>
        <time>2011-03-09T14:44:54Z</time>
      </trkpt>
      <trkpt lat="42.91382" lon="-0.25883">
        <ele>1217.2</ele>
        <time>2011-03-09T14:44:57Z</time>
      </trkpt>
      <trkpt lat="42.9141" lon="-0.25868">
        <ele>1217.2</ele>
        <time>2011-03-09T14:45:17Z</time>
      </trkpt>
      <trkpt lat="42.91415" lon="-0.25865">
        <ele>1217.2</ele>
        <time>2011-03-09T14:45:21Z</time>
      </trkpt>
      <trkpt lat="42.91424" lon="-0.25856">
        <ele>1216.7</ele>
        <time>2011-03-09T14:45:29Z</time>
      </trkpt>
      <trkpt lat="42.91432" lon="-0.25848">
        <ele>1217.2</ele>
        <time>2011-03-09T14:45:36Z</time>
      </trkpt>
      <trkpt lat="42.91452" lon="-0.25822">
        <ele>1216.2</ele>
        <time>2011-03-09T14:45:56Z</time>
      </trkpt>
      <trkpt lat="42.91455" lon="-0.25814">
        <ele>1216.7</ele>
        <time>2011-03-09T14:46:02Z</time>
      </trkpt>
      <trkpt lat="42.9146" lon="-0.258">
        <ele>1216.7</ele>
        <time>2011-03-09T14:46:13Z</time>
      </trkpt>
      <trkpt lat="42.9146" lon="-0.25796">
        <ele>1217.2</ele>
        <time>2011-03-09T14:46:16Z</time>
      </trkpt>
      <trkpt lat="42.9147" lon="-0.25799">
        <ele>1216.7</ele>
        <time>2011-03-09T14:46:25Z</time>
      </trkpt>
      <trkpt lat="42.91472" lon="-0.25797">
        <ele>1216.7</ele>
        <time>2011-03-09T14:46:27Z</time>
      </trkpt>
      <trkpt lat="42.91473" lon="-0.25795">
        <ele>1216.7</ele>
        <time>2011-03-09T14:46:29Z</time>
      </trkpt>
      <trkpt lat="42.91478" lon="-0.2579">
        <ele>1216.7</ele>
        <time>2011-03-09T14:46:34Z</time>
      </trkpt>
      <trkpt lat="42.91479" lon="-0.25787">
        <ele>1216.2</ele>
        <time>2011-03-09T14:46:36Z</time>
      </trkpt>
      <trkpt lat="42.91482" lon="-0.25779">
        <ele>1216.2</ele>
        <time>2011-03-09T14:46:41Z</time>
      </trkpt>
      <trkpt lat="42.91484" lon="-0.25775">
        <ele>1216.2</ele>
        <time>2011-03-09T14:46:44Z</time>
      </trkpt>
      <trkpt lat="42.91486" lon="-0.25765">
        <ele>1216.2</ele>
        <time>2011-03-09T14:46:50Z</time>
      </trkpt>
      <trkpt lat="42.91488" lon="-0.25761">
        <ele>1216.2</ele>
        <time>2011-03-09T14:46:53Z</time>
      </trkpt>
      <trkpt lat="42.91498" lon="-0.2575">
        <ele>1216.7</ele>
        <time>2011-03-09T14:47:00Z</time>
      </trkpt>
      <trkpt lat="42.91499" lon="-0.25749">
        <ele>1216.2</ele>
        <time>2011-03-09T14:47:01Z</time>
      </trkpt>
      <trkpt lat="42.91503" lon="-0.25742">
        <ele>1216.7</ele>
        <time>2011-03-09T14:47:06Z</time>
      </trkpt>
      <trkpt lat="42.91511" lon="-0.25732">
        <ele>1216.2</ele>
        <time>2011-03-09T14:47:13Z</time>
      </trkpt>
      <trkpt lat="42.91514" lon="-0.25722">
        <ele>1216.2</ele>
        <time>2011-03-09T14:47:19Z</time>
      </trkpt>
      <trkpt lat="42.91517" lon="-0.25715">
        <ele>1216.7</ele>
        <time>2011-03-09T14:47:23Z</time>
      </trkpt>
      <trkpt lat="42.9152" lon="-0.2571">
        <ele>1216.7</ele>
        <time>2011-03-09T14:47:26Z</time>
      </trkpt>
      <trkpt lat="42.91519" lon="-0.25702">
        <ele>1216.2</ele>
        <time>2011-03-09T14:47:30Z</time>
      </trkpt>
      <trkpt lat="42.9152" lon="-0.25697">
        <ele>1216.7</ele>
        <time>2011-03-09T14:47:33Z</time>
      </trkpt>
      <trkpt lat="42.91521" lon="-0.25685">
        <ele>1216.2</ele>
        <time>2011-03-09T14:47:40Z</time>
      </trkpt>
      <trkpt lat="42.91528" lon="-0.25672">
        <ele>1216.7</ele>
        <time>2011-03-09T14:47:48Z</time>
      </trkpt>
      <trkpt lat="42.91528" lon="-0.25665">
        <ele>1216.7</ele>
        <time>2011-03-09T14:47:52Z</time>
      </trkpt>
      <trkpt lat="42.91531" lon="-0.25663">
        <ele>1216.2</ele>
        <time>2011-03-09T14:47:54Z</time>
      </trkpt>
      <trkpt lat="42.91531" lon="-0.25653">
        <ele>1216.2</ele>
        <time>2011-03-09T14:47:59Z</time>
      </trkpt>
      <trkpt lat="42.91535" lon="-0.25644">
        <ele>1216.2</ele>
        <time>2011-03-09T14:48:08Z</time>
      </trkpt>
      <trkpt lat="42.91538" lon="-0.25641">
        <ele>1216.2</ele>
        <time>2011-03-09T14:48:11Z</time>
      </trkpt>
      <trkpt lat="42.91541" lon="-0.25634">
        <ele>1215.7</ele>
        <time>2011-03-09T14:48:16Z</time>
      </trkpt>
      <trkpt lat="42.91543" lon="-0.25633">
        <ele>1216.2</ele>
        <time>2011-03-09T14:48:18Z</time>
      </trkpt>
      <trkpt lat="42.91545" lon="-0.25628">
        <ele>1215.7</ele>
        <time>2011-03-09T14:48:22Z</time>
      </trkpt>
      <trkpt lat="42.9155" lon="-0.25621">
        <ele>1215.7</ele>
        <time>2011-03-09T14:48:29Z</time>
      </trkpt>
      <trkpt lat="42.91551" lon="-0.25618">
        <ele>1215.7</ele>
        <time>2011-03-09T14:48:31Z</time>
      </trkpt>
      <trkpt lat="42.9156" lon="-0.2561">
        <ele>1215.7</ele>
        <time>2011-03-09T14:48:40Z</time>
      </trkpt>
      <trkpt lat="42.91564" lon="-0.25608">
        <ele>1215.7</ele>
        <time>2011-03-09T14:48:51Z</time>
      </trkpt>
      <trkpt lat="42.91567" lon="-0.2561">
        <ele>1215.7</ele>
        <time>2011-03-09T14:48:54Z</time>
      </trkpt>
      <trkpt lat="42.91575" lon="-0.25608">
        <ele>1215.7</ele>
        <time>2011-03-09T14:49:01Z</time>
      </trkpt>
      <trkpt lat="42.91577" lon="-0.25606">
        <ele>1215.7</ele>
        <time>2011-03-09T14:49:03Z</time>
      </trkpt>
      <trkpt lat="42.91592" lon="-0.25597">
        <ele>1215.7</ele>
        <time>2011-03-09T14:49:19Z</time>
      </trkpt>
      <trkpt lat="42.91606" lon="-0.25591">
        <ele>1215.7</ele>
        <time>2011-03-09T14:49:32Z</time>
      </trkpt>
      <trkpt lat="42.9161" lon="-0.25591">
        <ele>1215.7</ele>
        <time>2011-03-09T14:49:36Z</time>
      </trkpt>
      <trkpt lat="42.91631" lon="-0.2559">
        <ele>1215.7</ele>
        <time>2011-03-09T14:49:56Z</time>
      </trkpt>
      <trkpt lat="42.9166" lon="-0.25586">
        <ele>1215.7</ele>
        <time>2011-03-09T14:50:20Z</time>
      </trkpt>
      <trkpt lat="42.91676" lon="-0.2558">
        <ele>1216.2</ele>
        <time>2011-03-09T14:50:34Z</time>
      </trkpt>
      <trkpt lat="42.91678" lon="-0.25578">
        <ele>1215.7</ele>
        <time>2011-03-09T14:50:37Z</time>
      </trkpt>
      <trkpt lat="42.91682" lon="-0.25571">
        <ele>1215.7</ele>
        <time>2011-03-09T14:50:43Z</time>
      </trkpt>
      <trkpt lat="42.91697" lon="-0.25548">
        <ele>1215.7</ele>
        <time>2011-03-09T14:51:03Z</time>
      </trkpt>
      <trkpt lat="42.91698" lon="-0.25546">
        <ele>1215.7</ele>
        <time>2011-03-09T14:51:05Z</time>
      </trkpt>
      <trkpt lat="42.91701" lon="-0.25537">
        <ele>1215.2</ele>
        <time>2011-03-09T14:54:46Z</time>
      </trkpt>
      <trkpt lat="42.9171" lon="-0.25522">
        <ele>1214.8</ele>
        <time>2011-03-09T14:54:57Z</time>
      </trkpt>
      <trkpt lat="42.91731" lon="-0.25507">
        <ele>1214.3</ele>
        <time>2011-03-09T14:55:15Z</time>
      </trkpt>
      <trkpt lat="42.91754" lon="-0.2549">
        <ele>1211.9</ele>
        <time>2011-03-09T14:55:35Z</time>
      </trkpt>
      <trkpt lat="42.9176" lon="-0.25484">
        <ele>1211.4</ele>
        <time>2011-03-09T14:55:41Z</time>
      </trkpt>
      <trkpt lat="42.91761" lon="-0.25483">
        <ele>1211.4</ele>
        <time>2011-03-09T14:55:43Z</time>
      </trkpt>
      <trkpt lat="42.91767" lon="-0.25477">
        <ele>1210.4</ele>
        <time>2011-03-09T14:55:49Z</time>
      </trkpt>
      <trkpt lat="42.91791" lon="-0.25463">
        <ele>1208.5</ele>
        <time>2011-03-09T14:56:07Z</time>
      </trkpt>
      <trkpt lat="42.91806" lon="-0.25458">
        <ele>1206.6</ele>
        <time>2011-03-09T14:56:19Z</time>
      </trkpt>
      <trkpt lat="42.91808" lon="-0.25459">
        <ele>1207.1</ele>
        <time>2011-03-09T14:56:20Z</time>
      </trkpt>
      <trkpt lat="42.91814" lon="-0.25453">
        <ele>1206.6</ele>
        <time>2011-03-09T14:56:25Z</time>
      </trkpt>
      <trkpt lat="42.91837" lon="-0.25424">
        <ele>1204.7</ele>
        <time>2011-03-09T14:56:44Z</time>
      </trkpt>
      <trkpt lat="42.91843" lon="-0.25421">
        <ele>1204.2</ele>
        <time>2011-03-09T14:56:49Z</time>
      </trkpt>
      <trkpt lat="42.91856" lon="-0.2542">
        <ele>1203.2</ele>
        <time>2011-03-09T14:56:59Z</time>
      </trkpt>
      <trkpt lat="42.9186" lon="-0.25416">
        <ele>1202.7</ele>
        <time>2011-03-09T14:57:03Z</time>
      </trkpt>
      <trkpt lat="42.91877" lon="-0.25392">
        <ele>1200.8</ele>
        <time>2011-03-09T14:57:22Z</time>
      </trkpt>
      <trkpt lat="42.91882" lon="-0.25387">
        <ele>1200.3</ele>
        <time>2011-03-09T14:57:27Z</time>
      </trkpt>
      <trkpt lat="42.91886" lon="-0.25385">
        <ele>1199.9</ele>
        <time>2011-03-09T14:57:30Z</time>
      </trkpt>
      <trkpt lat="42.9189" lon="-0.25383">
        <ele>1199.4</ele>
        <time>2011-03-09T14:57:34Z</time>
      </trkpt>
      <trkpt lat="42.91892" lon="-0.25381">
        <ele>1199.4</ele>
        <time>2011-03-09T14:57:36Z</time>
      </trkpt>
      <trkpt lat="42.91898" lon="-0.25377">
        <ele>1198.4</ele>
        <time>2011-03-09T14:57:42Z</time>
      </trkpt>
      <trkpt lat="42.91911" lon="-0.25359">
        <ele>1197.5</ele>
        <time>2011-03-09T14:57:56Z</time>
      </trkpt>
      <trkpt lat="42.91917" lon="-0.25347">
        <ele>1196.5</ele>
        <time>2011-03-09T14:58:04Z</time>
      </trkpt>
      <trkpt lat="42.91938" lon="-0.25337">
        <ele>1194.1</ele>
        <time>2011-03-09T14:58:21Z</time>
      </trkpt>
      <trkpt lat="42.91957" lon="-0.2532">
        <ele>1192.2</ele>
        <time>2011-03-09T14:58:38Z</time>
      </trkpt>
      <trkpt lat="42.91977" lon="-0.25297">
        <ele>1190.2</ele>
        <time>2011-03-09T14:58:57Z</time>
      </trkpt>
      <trkpt lat="42.91998" lon="-0.25304">
        <ele>1188.3</ele>
        <time>2011-03-09T14:59:13Z</time>
      </trkpt>
      <trkpt lat="42.92001" lon="-0.25305">
        <ele>1187.8</ele>
        <time>2011-03-09T14:59:15Z</time>
      </trkpt>
      <trkpt lat="42.92024" lon="-0.25324">
        <ele>1185.9</ele>
        <time>2011-03-09T14:59:34Z</time>
      </trkpt>
      <trkpt lat="42.92039" lon="-0.25321">
        <ele>1184</ele>
        <time>2011-03-09T14:59:47Z</time>
      </trkpt>
      <trkpt lat="42.92052" lon="-0.25309">
        <ele>1182.6</ele>
        <time>2011-03-09T14:59:59Z</time>
      </trkpt>
      <trkpt lat="42.92056" lon="-0.25302">
        <ele>1181.6</ele>
        <time>2011-03-09T15:00:03Z</time>
      </trkpt>
      <trkpt lat="42.92084" lon="-0.25272">
        <ele>1178.7</ele>
        <time>2011-03-09T15:00:26Z</time>
      </trkpt>
      <trkpt lat="42.92085" lon="-0.25272">
        <ele>1178.7</ele>
        <time>2011-03-09T15:00:27Z</time>
      </trkpt>
      <trkpt lat="42.92092" lon="-0.25267">
        <ele>1177.8</ele>
        <time>2011-03-09T15:00:32Z</time>
      </trkpt>
      <trkpt lat="42.92116" lon="-0.25254">
        <ele>1175.3</ele>
        <time>2011-03-09T15:00:48Z</time>
      </trkpt>
      <trkpt lat="42.92118" lon="-0.25251">
        <ele>1174.9</ele>
        <time>2011-03-09T15:00:50Z</time>
      </trkpt>
      <trkpt lat="42.92129" lon="-0.25251">
        <ele>1173.9</ele>
        <time>2011-03-09T15:00:55Z</time>
      </trkpt>
      <trkpt lat="42.92146" lon="-0.25236">
        <ele>1172</ele>
        <time>2011-03-09T15:01:10Z</time>
      </trkpt>
      <trkpt lat="42.92147" lon="-0.25234">
        <ele>1171.5</ele>
        <time>2011-03-09T15:01:11Z</time>
      </trkpt>
      <trkpt lat="42.92167" lon="-0.2523">
        <ele>1169.6</ele>
        <time>2011-03-09T15:01:26Z</time>
      </trkpt>
      <trkpt lat="42.92171" lon="-0.2523">
        <ele>1169.1</ele>
        <time>2011-03-09T15:01:28Z</time>
      </trkpt>
      <trkpt lat="42.92189" lon="-0.25223">
        <ele>1167.2</ele>
        <time>2011-03-09T15:01:42Z</time>
      </trkpt>
      <trkpt lat="42.922" lon="-0.25222">
        <ele>1165.7</ele>
        <time>2011-03-09T15:01:50Z</time>
      </trkpt>
      <trkpt lat="42.92202" lon="-0.2522">
        <ele>1165.7</ele>
        <time>2011-03-09T15:01:52Z</time>
      </trkpt>
      <trkpt lat="42.92211" lon="-0.25218">
        <ele>1164.8</ele>
        <time>2011-03-09T15:01:59Z</time>
      </trkpt>
      <trkpt lat="42.92218" lon="-0.25216">
        <ele>1163.8</ele>
        <time>2011-03-09T15:02:04Z</time>
      </trkpt>
      <trkpt lat="42.92225" lon="-0.25212">
        <ele>1163.3</ele>
        <time>2011-03-09T15:02:10Z</time>
      </trkpt>
      <trkpt lat="42.92235" lon="-0.25201">
        <ele>1161.9</ele>
        <time>2011-03-09T15:02:20Z</time>
      </trkpt>
      <trkpt lat="42.92257" lon="-0.2519">
        <ele>1159</ele>
        <time>2011-03-09T15:02:36Z</time>
      </trkpt>
      <trkpt lat="42.92285" lon="-0.25178">
        <ele>1156.6</ele>
        <time>2011-03-09T15:02:54Z</time>
      </trkpt>
      <trkpt lat="42.92286" lon="-0.25177">
        <ele>1156.1</ele>
        <time>2011-03-09T15:02:55Z</time>
      </trkpt>
      <trkpt lat="42.92289" lon="-0.25175">
        <ele>1156.1</ele>
        <time>2011-03-09T15:02:57Z</time>
      </trkpt>
      <trkpt lat="42.92306" lon="-0.25164">
        <ele>1154.2</ele>
        <time>2011-03-09T15:03:10Z</time>
      </trkpt>
      <trkpt lat="42.9232" lon="-0.25158">
        <ele>1151.8</ele>
        <time>2011-03-09T15:03:20Z</time>
      </trkpt>
      <trkpt lat="42.92335" lon="-0.25139">
        <ele>1149.9</ele>
        <time>2011-03-09T15:03:33Z</time>
      </trkpt>
      <trkpt lat="42.92342" lon="-0.25116">
        <ele>1148.4</ele>
        <time>2011-03-09T15:03:45Z</time>
      </trkpt>
      <trkpt lat="42.92345" lon="-0.25111">
        <ele>1148.4</ele>
        <time>2011-03-09T15:03:48Z</time>
      </trkpt>
      <trkpt lat="42.92358" lon="-0.25081">
        <ele>1145.5</ele>
        <time>2011-03-09T15:04:07Z</time>
      </trkpt>
      <trkpt lat="42.92361" lon="-0.25075">
        <ele>1144.6</ele>
        <time>2011-03-09T15:04:11Z</time>
      </trkpt>
      <trkpt lat="42.92362" lon="-0.25071">
        <ele>1145.1</ele>
        <time>2011-03-09T15:04:13Z</time>
      </trkpt>
      <trkpt lat="42.92366" lon="-0.25067">
        <ele>1144.6</ele>
        <time>2011-03-09T15:04:17Z</time>
      </trkpt>
      <trkpt lat="42.9237" lon="-0.25057">
        <ele>1143.6</ele>
        <time>2011-03-09T15:04:33Z</time>
      </trkpt>
      <trkpt lat="42.92371" lon="-0.25047">
        <ele>1142.7</ele>
        <time>2011-03-09T15:04:55Z</time>
      </trkpt>
      <trkpt lat="42.92373" lon="-0.25043">
        <ele>1142.2</ele>
        <time>2011-03-09T15:04:58Z</time>
      </trkpt>
      <trkpt lat="42.92376" lon="-0.25032">
        <ele>1141.2</ele>
        <time>2011-03-09T15:05:04Z</time>
      </trkpt>
      <trkpt lat="42.92385" lon="-0.2501">
        <ele>1139.8</ele>
        <time>2011-03-09T15:05:18Z</time>
      </trkpt>
      <trkpt lat="42.92385" lon="-0.25004">
        <ele>1138.8</ele>
        <time>2011-03-09T15:05:21Z</time>
      </trkpt>
      <trkpt lat="42.92387" lon="-0.25002">
        <ele>1138.8</ele>
        <time>2011-03-09T15:05:23Z</time>
      </trkpt>
      <trkpt lat="42.92393" lon="-0.2497">
        <ele>1135.9</ele>
        <time>2011-03-09T15:05:39Z</time>
      </trkpt>
      <trkpt lat="42.92405" lon="-0.24934">
        <ele>1133.1</ele>
        <time>2011-03-09T15:05:58Z</time>
      </trkpt>
      <trkpt lat="42.9242" lon="-0.249">
        <ele>1130.2</ele>
        <time>2011-03-09T15:06:17Z</time>
      </trkpt>
      <trkpt lat="42.92421" lon="-0.24895">
        <ele>1129.7</ele>
        <time>2011-03-09T15:06:20Z</time>
      </trkpt>
      <trkpt lat="42.92424" lon="-0.2489">
        <ele>1129.2</ele>
        <time>2011-03-09T15:06:24Z</time>
      </trkpt>
      <trkpt lat="42.92429" lon="-0.24881">
        <ele>1128.2</ele>
        <time>2011-03-09T15:06:30Z</time>
      </trkpt>
      <trkpt lat="42.92457" lon="-0.24864">
        <ele>1125.4</ele>
        <time>2011-03-09T15:06:52Z</time>
      </trkpt>
      <trkpt lat="42.9246" lon="-0.24862">
        <ele>1125.4</ele>
        <time>2011-03-09T15:06:54Z</time>
      </trkpt>
      <trkpt lat="42.92464" lon="-0.2486">
        <ele>1124.9</ele>
        <time>2011-03-09T15:06:57Z</time>
      </trkpt>
      <trkpt lat="42.92484" lon="-0.24846">
        <ele>1123.4</ele>
        <time>2011-03-09T15:07:14Z</time>
      </trkpt>
      <trkpt lat="42.92504" lon="-0.24832">
        <ele>1122</ele>
        <time>2011-03-09T15:07:31Z</time>
      </trkpt>
      <trkpt lat="42.9251" lon="-0.2483">
        <ele>1122</ele>
        <time>2011-03-09T15:07:35Z</time>
      </trkpt>
      <trkpt lat="42.92544" lon="-0.24813">
        <ele>1119.6</ele>
        <time>2011-03-09T15:07:58Z</time>
      </trkpt>
      <trkpt lat="42.92568" lon="-0.24801">
        <ele>1116.7</ele>
        <time>2011-03-09T15:08:15Z</time>
      </trkpt>
      <trkpt lat="42.92589" lon="-0.24787">
        <ele>1115.3</ele>
        <time>2011-03-09T15:08:32Z</time>
      </trkpt>
      <trkpt lat="42.92592" lon="-0.24786">
        <ele>1114.8</ele>
        <time>2011-03-09T15:08:35Z</time>
      </trkpt>
      <trkpt lat="42.92602" lon="-0.24782">
        <ele>1114.3</ele>
        <time>2011-03-09T15:08:42Z</time>
      </trkpt>
      <trkpt lat="42.92613" lon="-0.2478">
        <ele>1113.3</ele>
        <time>2011-03-09T15:08:49Z</time>
      </trkpt>
      <trkpt lat="42.92628" lon="-0.24768">
        <ele>1112.4</ele>
        <time>2011-03-09T15:09:01Z</time>
      </trkpt>
      <trkpt lat="42.92655" lon="-0.24752">
        <ele>1110.5</ele>
        <time>2011-03-09T15:09:20Z</time>
      </trkpt>
      <trkpt lat="42.92675" lon="-0.24731">
        <ele>1109</ele>
        <time>2011-03-09T15:09:37Z</time>
      </trkpt>
      <trkpt lat="42.92688" lon="-0.24721">
        <ele>1107.6</ele>
        <time>2011-03-09T15:09:48Z</time>
      </trkpt>
      <trkpt lat="42.92693" lon="-0.24718">
        <ele>1107.1</ele>
        <time>2011-03-09T15:09:52Z</time>
      </trkpt>
      <trkpt lat="42.92719" lon="-0.24703">
        <ele>1104.7</ele>
        <time>2011-03-09T15:10:11Z</time>
      </trkpt>
      <trkpt lat="42.92721" lon="-0.24703">
        <ele>1104.7</ele>
        <time>2011-03-09T15:10:12Z</time>
      </trkpt>
      <trkpt lat="42.92749" lon="-0.24685">
        <ele>1102.3</ele>
        <time>2011-03-09T15:10:32Z</time>
      </trkpt>
      <trkpt lat="42.92773" lon="-0.24666">
        <ele>1100.8</ele>
        <time>2011-03-09T15:10:51Z</time>
      </trkpt>
      <trkpt lat="42.92794" lon="-0.24656">
        <ele>1099.9</ele>
        <time>2011-03-09T15:11:06Z</time>
      </trkpt>
      <trkpt lat="42.9281" lon="-0.24646">
        <ele>1098.4</ele>
        <time>2011-03-09T15:11:18Z</time>
      </trkpt>
      <trkpt lat="42.92834" lon="-0.24639">
        <ele>1095.6</ele>
        <time>2011-03-09T15:11:36Z</time>
      </trkpt>
      <trkpt lat="42.92852" lon="-0.24631">
        <ele>1093.6</ele>
        <time>2011-03-09T15:11:50Z</time>
      </trkpt>
      <trkpt lat="42.92856" lon="-0.24629">
        <ele>1093.6</ele>
        <time>2011-03-09T15:11:53Z</time>
      </trkpt>
      <trkpt lat="42.92871" lon="-0.24618">
        <ele>1092.2</ele>
        <time>2011-03-09T15:12:06Z</time>
      </trkpt>
      <trkpt lat="42.92875" lon="-0.24617">
        <ele>1091.7</ele>
        <time>2011-03-09T15:12:09Z</time>
      </trkpt>
      <trkpt lat="42.92889" lon="-0.2461">
        <ele>1090.3</ele>
        <time>2011-03-09T15:12:21Z</time>
      </trkpt>
      <trkpt lat="42.92909" lon="-0.246">
        <ele>1088.3</ele>
        <time>2011-03-09T15:12:35Z</time>
      </trkpt>
      <trkpt lat="42.92924" lon="-0.24593">
        <ele>1086.9</ele>
        <time>2011-03-09T15:12:46Z</time>
      </trkpt>
      <trkpt lat="42.92928" lon="-0.24592">
        <ele>1085.9</ele>
        <time>2011-03-09T15:12:49Z</time>
      </trkpt>
      <trkpt lat="42.92929" lon="-0.24591">
        <ele>1085.9</ele>
        <time>2011-03-09T15:12:51Z</time>
      </trkpt>
      <trkpt lat="42.92941" lon="-0.24586">
        <ele>1085</ele>
        <time>2011-03-09T15:12:58Z</time>
      </trkpt>
      <trkpt lat="42.92946" lon="-0.24584">
        <ele>1085</ele>
        <time>2011-03-09T15:13:02Z</time>
      </trkpt>
      <trkpt lat="42.92971" lon="-0.24575">
        <ele>1083.5</ele>
        <time>2011-03-09T15:13:16Z</time>
      </trkpt>
      <trkpt lat="42.92972" lon="-0.24573">
        <ele>1083.1</ele>
        <time>2011-03-09T15:13:18Z</time>
      </trkpt>
      <trkpt lat="42.92971" lon="-0.24566">
        <ele>1082.6</ele>
        <time>2011-03-09T15:13:21Z</time>
      </trkpt>
      <trkpt lat="42.92971" lon="-0.24558">
        <ele>1082.1</ele>
        <time>2011-03-09T15:13:25Z</time>
      </trkpt>
      <trkpt lat="42.92971" lon="-0.24535">
        <ele>1081.6</ele>
        <time>2011-03-09T15:13:36Z</time>
      </trkpt>
      <trkpt lat="42.92973" lon="-0.24525">
        <ele>1081.1</ele>
        <time>2011-03-09T15:13:41Z</time>
      </trkpt>
      <trkpt lat="42.92976" lon="-0.24517">
        <ele>1081.1</ele>
        <time>2011-03-09T15:13:46Z</time>
      </trkpt>
      <trkpt lat="42.92974" lon="-0.24512">
        <ele>1081.1</ele>
        <time>2011-03-09T15:13:48Z</time>
      </trkpt>
      <trkpt lat="42.92987" lon="-0.24493">
        <ele>1081.1</ele>
        <time>2011-03-09T15:14:02Z</time>
      </trkpt>
      <trkpt lat="42.92993" lon="-0.2449">
        <ele>1080.7</ele>
        <time>2011-03-09T15:14:08Z</time>
      </trkpt>
      <trkpt lat="42.93001" lon="-0.24486">
        <ele>1080.7</ele>
        <time>2011-03-09T19:23:53Z</time>
      </trkpt>
      <trkpt lat="42.93001" lon="-0.24486">
        <ele>1080.7</ele>
        <time>2011-03-09T19:24:13Z</time>
      </trkpt>
      <trkpt lat="42.93001" lon="-0.24486">
        <ele>1081.6</ele>
        <time>2011-03-09T19:24:19Z</time>
      </trkpt>
      <trkpt lat="42.93001" lon="-0.24486">
        <ele>1080.2</ele>
        <time>2011-03-09T19:24:20Z</time>
      </trkpt>
      <trkpt lat="42.93001" lon="-0.24486">
        <ele>1081.1</ele>
        <time>2011-03-09T19:24:21Z</time>
      </trkpt>
    </trkseg>
  </trk>
</gpx>